[[{"header":{"parameterUnit":"m.s-1","parameterCategory":1,"la1":30.6,"la2":29.2853,"lo1":-89.7004,"lo2":-87.6739,"dy":0.0162,"dx":0.0183,"nx":112,"ny":82,"refTime":"2023-07-31T00:00:00:Z","depth":0,"parameterNumber":2,"parameterNumberName":"U-component_of_WINDS"},"data":[0.0,0.0,0.0,0.0,0.0,0.0,0.0,0.0,0.0,0.0,0.0,0.0,0.0,0.0,0.0,0.0,0.0,0.0,0.0,0.0,0.0,0.0,0.0,0.0,0.0,0.0,0.0,0.0,0.0,0.0,0.0,0.0,0.0,0.0,0.0,0.0,0.0,0.0,0.0,0.0,0.0,0.0,0.0,0.0,0.0,0.0,0.0,0.0,0.0,0.0,0.0,0.0,0.0,0.0,0.0,0.0,0.0,0.0,0.0,0.0,0.0,0.0,0.0,0.0,0.0,0.0,0.0,0.0,0.0,0.0,0.0,0.0,0.0,0.0,0.0,0.0,0.0,0.0,0.0,0.0,0.0,0.0,0.0,0.0,0.0,0.0,0.0,0.0,0.0,0.0,-0.4762,-0.5304,-0.381,-0.3295,-0.4798,-0.5228,-0.5444,-0.553,0.0,0.0,0.0,0.0,0.0,0.0,0.0,0.0,0.0,0.0,0.0,0.0,0.0,0.0,0.0,0.0,0.0,0.0,0.0,0.0,0.0,0.0,0.0,0.0,0.0,0.0,0.0,0.0,0.0,0.0,0.0,0.0,0.0,0.0,0.0,0.0,0.0,0.0,0.0,0.0,0.0,0.0,0.0,0.0,0.0,0.0,0.0,0.0,0.0,0.0,0.0,0.0,0.0,0.0,0.0,0.0,0.0,0.0,0.0,0.0,0.0,0.0,0.0,0.0,0.0,0.0,0.0,0.0,0.0,0.0,0.0,0.0,0.0,0.0,0.0,0.0,0.0,0.0,0.0,0.0,0.0,0.0,0.0,0.0,0.0,0.0,0.0,0.0,0.0,0.0,0.0,0.0,0.0,0.0,0.0,0.0,0.0,0.0,0.0,0.0,0.0,0.0,0.0,0.0,-0.198,-0.5052,-0.3761,-0.2194,-0.1005,-0.2506,-0.429,-0.6064,0.0,0.0,0.0,0.0,0.0,0.0,0.0,0.0,0.0,0.0,0.0,0.0,0.0,0.0,0.0,0.0,0.0,0.0,0.0,0.0,0.0,0.0,0.0,0.0,0.0,0.0,0.0,0.0,0.0,0.0,0.0,0.0,0.0,0.0,0.0,0.0,0.0,0.0,0.0,0.0,0.0,0.0,0.0,0.0,0.0,0.0,0.0,0.0,0.0,0.0,0.0,0.0,0.0,0.0,0.0,0.0,0.0,0.0,0.0,0.0,0.0,0.0,0.0,0.0,0.0,0.0,0.0,0.0,0.0,0.0,0.0,0.0,0.0,0.0,0.0,0.0,0.0,0.0,0.0,0.0,0.0,0.0,0.0,0.0,0.0,0.0,0.0,0.0,0.0,0.0,0.0,0.0,0.0,0.0,0.0,0.0,0.0,0.0,0.0,0.0,0.0,0.0,0.0,-0.0,-0.0609,-0.2315,-0.1697,-0.0929,-0.0078,-0.1941,-0.4026,-0.6157,-0.5698,0.0,0.0,0.0,0.0,0.0,0.0,0.0,0.0,0.0,0.0,0.0,0.0,0.0,0.0,0.0,0.0,0.0,0.0,0.0,0.0,0.0,0.0,0.0,0.0,0.0,0.0,0.0,0.0,0.0,0.0,0.0,0.0,0.0,0.0,0.0,0.0,0.0,0.0,0.0,0.0,0.0,0.0,0.0,0.0,0.0,0.0,0.0,0.0,0.0,0.0,0.0,0.0,0.0,0.0,0.0,0.0,0.0,0.0,0.0,0.0,0.0,0.0,0.0,0.0,0.0,0.0,0.0,0.0,0.0,0.0,0.0,0.0,0.0,0.0,0.0,0.0,0.0,0.0,0.0,0.0,0.0,0.0,0.0,0.0,0.0,0.0,0.0,0.0,0.0,0.0,0.0,0.0,0.0,0.0,0.0,0.0,0.0,0.0,0.0,0.0,0.0,0.0,-0.0,-0.0,-0.0,-0.0,-0.0,-0.0,-0.1493,-0.3071,-0.4739,-0.442,0.0,0.0,0.0,0.0,0.0,0.0,0.0,0.0,0.0,0.0,0.0,0.0,0.0,0.0,0.0,0.0,0.0,0.0,0.0,0.0,0.0,0.0,0.0,0.0,0.0,0.0,0.0,0.0,0.0,0.0,0.0,0.0,0.0,0.0,0.0,0.0,0.0,0.0,0.0,0.0,0.0,0.0,0.0,0.0,0.0,0.0,0.0,0.0,0.0,0.0,0.0,0.0,0.0,0.0,0.0,0.0,0.0,0.0,0.0,0.0,0.0,0.0,0.0,0.0,0.0,0.0,0.0,0.0,0.0,0.0,0.0,0.0,0.0,0.0,0.0,0.0,0.0,0.0,0.0,0.0,0.0,0.0,0.0,0.0,0.0,0.0,0.0,0.0,0.0,0.0,0.0,0.0,0.0,0.0,0.0,0.0,0.0,0.0,0.0,0.0,0.0,0.0,-0.0,-0.0,-0.0,-0.0,-0.0,-0.0,-0.0157,-0.0314,-0.0471,-0.0393,0.0,0.0,0.0,0.0,0.0,0.0,0.0,0.0,0.0,0.0,0.0,0.0,0.0,0.0,0.0,0.0,0.0,0.0,0.0,0.0,0.0,0.0,0.0,0.0,0.0,0.0,0.0,0.0,0.0,0.0,0.0,0.0,0.0,0.0,0.0,0.0,0.0,0.0,0.0,0.0,0.0,0.0,0.0,0.0,0.0,0.0,0.0,0.0,0.0,0.0,0.0,0.0,0.0,0.0,0.0,0.0,0.0,0.0,0.0,0.0,0.0,0.0,0.0,0.0,0.0,0.0,0.0,0.0,0.0,0.0,0.0,0.0,0.0,0.0,0.0,0.0,0.0,0.0,0.0,0.0,0.0,0.0,0.0,0.0,0.0,0.0,0.0,0.0,0.0,0.0,0.0,0.0,0.0,0.0,0.0,0.0,0.0,0.0,0.0,0.0,0.0,0.0,-0.0,-0.0,0.0,-0.0,-0.0,-0.0,-0.0,-0.0,-0.0,0.0,0.0,0.0,0.0,0.0,0.0,0.0,0.0,0.0,0.0,0.0,0.0,0.0,0.0,0.0,0.0,0.0,0.0,0.0,0.0,0.0,0.0,0.0,0.0,0.0,0.0,0.0,0.0,0.0,0.0,0.0,0.0,0.0,0.0,0.0,0.0,0.0,0.0,0.0,0.0,0.0,0.0,0.0,0.0,0.0,0.0,0.0,0.0,0.0,0.0,0.0,0.0,0.0,0.0,0.0,0.0,0.0,0.0,0.0,0.0,0.0,0.0,0.0,0.0,0.0,0.0,0.0,0.0,0.0,0.0,0.0,0.0,0.0,0.0,0.0,0.0,0.0,0.0,0.0,0.0,0.0,0.0,0.0,0.0,0.0,0.0,0.0,0.0,0.0,0.0,0.0,0.0,0.0,0.0,0.0,0.0,0.0,0.0,0.0,0.0,0.0,0.0,-0.0,-0.0,-0.0,0.0,-0.0,-0.0,-0.0,-0.0,-0.0,-0.0,0.0,0.0,0.0,0.0,0.0,0.0,0.0,0.0,0.0,0.0,0.0,0.0,0.0,0.0,0.0,0.0,0.0,0.0,0.0,0.0,0.0,0.0,0.0,0.0,0.0,0.0,0.0,0.0,0.0,0.0,0.0,0.0,0.0,0.0,0.0,0.0,0.0,0.0,0.0,0.0,0.0,0.0,0.0,0.0,0.0,0.0,0.0,0.0,0.0,0.0,0.0,0.0,0.0,0.0,0.0,0.0,0.0,0.0,0.0,0.0,0.0,0.0,0.0,0.0,0.0,0.0,0.0,0.0,0.0,0.0,0.0,0.0,0.0,0.0,0.0,0.0,0.0,0.0,0.0,0.0,0.0,0.0,0.0,0.0,0.0,0.0,0.0,0.0,0.0,0.0,0.0,0.0,0.0,0.0,0.0,0.0,0.0,0.0,0.0,0.0,0.0,0.0,-0.0079,-0.0079,-0.0,-0.0,-0.0,-0.0,-0.0,-0.0,-0.0,0.0,0.0,0.0,0.0,0.0,0.0,0.0,0.0,0.0,0.0,0.0,0.0,0.0,0.0,0.0,0.0,0.0,0.0,0.0,0.0,0.0,0.0,0.0,0.0,0.0,0.0,0.0,0.0,0.0,0.0,0.0,0.0,0.0,0.0,0.0,0.0,0.0,0.0,0.0,0.0,0.0,0.0,0.0,0.0,0.0,0.0,0.0,0.0,0.0,0.0,0.0,0.0,0.0,0.0,0.0,0.0,0.0,0.0,0.0,0.0,0.0,0.0,0.0,0.0,0.0,0.0,0.0,0.0,0.0,0.0,0.0,0.0,0.0,0.0,0.0,0.0,0.0,0.0,0.0,0.0,0.0,0.0,0.0,0.0,0.0,0.0,0.0,0.0,0.0,0.0,0.0,0.0,0.0,0.0,0.0,0.0,0.0,0.0,0.0,0.0,0.0,0.0,0.0,-0.4413,-0.3136,-0.2189,-0.2189,-0.2189,-0.2189,-0.2189,-0.2189,-0.1564,-0.0078,0.0,0.0,0.0,0.0,0.0,0.0,0.0,0.0,0.0,0.0,0.0,0.0,0.0,0.0,0.0,0.0,0.0,0.0,0.0,0.0,0.0,0.0,0.0,0.0,0.0,0.0,0.0,0.0,0.0,0.0,0.0,0.0,0.0,0.0,0.0,0.0,0.0,0.0,0.0,0.0,0.0,0.0,0.0,0.0,0.0,0.0,0.0,0.0,0.0,0.0,0.0,0.0,0.0,0.0,0.0,0.0,0.0,0.0,0.0,0.0,0.0,0.0,0.0,0.0,0.0,0.0,0.0,0.0,0.0,0.0,0.0,0.0,0.0,0.0,0.0,0.0,0.0,0.0,0.0,0.0,0.0,0.0,0.0,0.0,0.0,0.0,0.0,0.0,0.0,0.0,0.0,0.0,0.0,0.0,0.0,0.0,0.0,0.0,0.0,0.0,0.0,0.0,-0.6572,-0.5424,-0.4545,-0.4506,-0.4511,-0.4511,-0.4511,-0.4511,-0.393,-0.2622,0.0,0.0,0.0,0.0,0.0,0.0,0.0,0.0,0.0,0.0,0.0,0.0,0.0,0.0,0.0,0.0,0.0,0.0,0.0,0.0,0.0,0.0,0.0,0.0,0.0,0.0,0.0,0.0,0.0,0.0,0.0,0.0,0.0,0.0,0.0,0.0,0.0,0.0,0.0,0.0,0.0,0.0,0.0,0.0,0.0,0.0,0.0,0.0,0.0,0.0,0.0,0.0,0.0,0.0,0.0,0.0,0.0,0.0,0.0,0.0,0.0,0.0,0.0,0.0,0.0,0.0,0.0,0.0,0.0,0.0,0.0,0.0,0.0,0.0,0.0,0.0,0.0,0.0,0.0,0.0,0.0,0.0,0.0,0.0,0.0,0.0,0.0,0.0,0.0,0.0,0.0,0.0,0.0,0.0,0.0,0.0,0.0,0.0,0.0,0.0,0.0,0.0,-0.6961,-0.688,-0.6678,-0.6732,-0.6662,-0.6662,-0.6662,-0.6662,-0.6605,-0.6384,0.0,0.0,0.0,0.0,0.0,0.0,0.0,0.0,0.0,0.0,0.0,0.0,0.0,0.0,0.0,0.0,0.0,0.0,0.0,0.0,0.0,0.0,0.0,0.0,0.0,0.0,0.0,0.0,0.0,0.0,0.0,0.0,0.0,0.0,0.0,0.0,0.0,0.0,0.0,0.0,0.0,0.0,0.0,0.0,0.0,0.0,0.0,0.0,0.0,0.0,0.0,0.0,0.0,0.0,0.0,0.0,0.0,0.0,0.0,0.0,-0.6338,0.0,0.0,0.0,0.0,0.0,0.0,0.0,0.0,0.0,0.0,0.0,0.0,0.0,0.0,0.0,0.0,0.0,0.0,0.0,0.0,0.0,0.0,0.0,0.0,0.0,0.0,0.0,0.0,0.0,0.0,0.0,0.0,0.0,0.0,0.0,0.0,0.0,0.0,0.0,0.0,0.0,-0.6595,-0.6757,-0.6678,-0.6709,-0.6712,-0.6712,-0.6712,-0.6712,-0.6702,-0.6678,-0.6197,0.0,0.0,0.0,0.0,0.0,0.0,0.0,0.0,0.0,0.0,0.0,0.0,0.0,0.0,0.0,0.0,0.0,0.0,0.0,0.0,0.0,0.0,0.0,0.0,0.0,0.0,0.0,0.0,0.0,0.0,0.0,0.0,0.0,0.0,0.0,0.0,0.0,0.0,0.0,0.0,0.0,0.0,0.0,0.0,0.0,0.0,0.0,0.0,0.0,0.0,0.0,0.0,0.0,0.0,0.0,0.0,0.0,0.0,0.0,0.0,-0.6338,0.0,0.0,0.0,0.0,0.0,0.0,0.0,0.0,0.0,0.0,0.0,0.0,0.0,0.0,0.0,0.0,0.0,0.0,0.0,0.0,0.0,0.0,0.0,0.0,0.0,0.0,0.0,0.0,0.0,0.0,0.0,0.0,0.0,0.0,0.0,0.0,0.0,0.0,0.0,0.0,-0.682,-0.682,-0.6837,-0.6905,-0.6912,-0.6912,-0.6912,-0.6912,-0.6885,-0.6824,-0.6881,0.0,0.0,0.0,0.0,0.0,0.0,0.0,0.0,0.0,0.0,0.0,0.0,0.0,0.0,0.0,0.0,0.0,0.0,0.0,0.0,0.0,0.0,0.0,0.0,0.0,0.0,0.0,0.0,0.0,0.0,0.0,0.0,0.0,0.0,0.0,0.0,0.0,0.0,0.0,0.0,0.0,0.0,0.0,0.0,0.0,0.0,0.0,0.0,0.0,0.0,0.0,0.0,0.0,-0.6702,-0.6702,-0.6702,-0.6702,-0.6702,-0.6685,-0.6444,-0.6339,-0.6339,0.0,0.0,0.0,0.0,0.0,0.0,0.0,0.0,0.0,0.0,0.0,0.0,0.0,0.0,0.0,0.0,0.0,0.0,0.0,0.0,0.0,0.0,0.0,0.0,0.0,-0.6637,-0.6059,0.0,0.0,0.0,0.0,0.0,0.0,0.0,0.0,0.0,0.0,0.0,0.0,-0.7056,-0.6973,-0.701,-0.7129,-0.7139,-0.7139,-0.7139,-0.7139,-0.7092,-0.6973,-0.7075,-0.7034,0.0,0.0,0.0,0.0,0.0,0.0,0.0,0.0,0.0,0.0,0.0,0.0,0.0,0.0,0.0,0.0,0.0,0.0,0.0,0.0,0.0,0.0,0.0,0.0,0.0,0.0,0.0,0.0,0.0,0.0,0.0,0.0,-0.7629,-0.7629,0.0,0.0,0.0,0.0,0.0,0.0,0.0,0.0,0.0,0.0,0.0,0.0,0.0,-0.6651,-0.6671,-0.6671,-0.6681,-0.6702,-0.6702,-0.6702,-0.6702,-0.6702,-0.6702,-0.6698,-0.6661,0.0,-0.6641,-0.6641,0.0,0.0,0.0,0.0,0.0,0.0,0.0,0.0,0.0,0.0,0.0,0.0,0.0,0.0,0.0,0.0,0.0,0.0,0.0,0.0,0.0,0.0,-0.6675,-0.6678,-0.6692,-0.6609,0.0,-0.6261,-0.6379,-0.6552,-0.6652,0.0,0.0,0.0,0.0,0.0,0.0,0.0,-0.7115,-0.7115,-0.7119,-0.7139,-0.7139,-0.7139,-0.7139,-0.7139,-0.7132,-0.7112,-0.7129,-0.7122,-0.7085,-0.7102,0.0,0.0,0.0,0.0,0.0,0.0,0.0,0.0,0.0,0.0,0.0,0.0,0.0,0.0,0.0,0.0,0.0,0.0,0.0,0.0,0.0,0.0,0.0,0.0,0.0,0.0,0.0,0.0,0.0,-0.8089,-0.7557,-0.7022,-0.7099,-0.6983,0.0,0.0,0.0,0.0,0.0,0.0,0.0,0.0,0.0,-0.6702,-0.6702,-0.6742,-0.6827,-0.6827,-0.6868,-0.6949,-0.6949,-0.6949,-0.6949,-0.6949,-0.6949,-0.6949,-0.6949,-0.6949,-0.6936,-0.677,-0.6702,-0.6702,0.0,0.0,0.0,0.0,-0.6702,-0.6702,-0.6702,-0.6702,0.0,0.0,0.0,0.0,0.0,0.0,0.0,0.0,0.0,0.0,0.0,0.0,0.0,-0.6827,-0.6892,-0.6949,-0.6949,-0.6959,-0.6946,0.0,-0.7008,-0.7083,-0.7061,0.0,0.0,0.0,0.0,-0.7064,-0.7143,-0.7139,-0.7139,-0.7139,-0.7139,-0.7139,-0.7139,-0.7139,-0.7139,-0.7139,-0.7139,-0.7139,-0.7139,-0.7139,-0.7109,0.0,0.0,0.0,0.0,0.0,0.0,0.0,0.0,0.0,0.0,0.0,0.0,0.0,0.0,0.0,0.0,0.0,0.0,0.0,0.0,0.0,0.0,0.0,0.0,0.0,0.0,0.0,0.0,-0.7974,-0.77,-0.7239,-0.7352,-0.7352,0.0,0.0,0.0,0.0,0.0,0.0,-0.6759,-0.7042,-0.7147,-0.6814,-0.7063,-0.7225,-0.7041,-0.7041,-0.7115,-0.7258,-0.7258,-0.7258,-0.7258,-0.7258,-0.7258,-0.7258,-0.7258,-0.7258,-0.7234,-0.6936,-0.6814,-0.6814,-0.6814,-0.6814,-0.6814,-0.6814,-0.6814,-0.6814,-0.6814,-0.6814,-0.6814,-0.6814,0.0,-0.6814,-0.6814,0.0,0.0,0.0,0.0,-0.6814,-0.6814,-0.6929,-0.7041,-0.7041,-0.7153,-0.7258,-0.7258,-0.7258,-0.7204,0.0,-0.7068,-0.7153,-0.719,0.0,0.0,0.0,0.0,-0.7258,-0.7258,-0.7258,-0.7258,-0.7258,-0.7258,-0.7258,-0.7258,-0.7258,-0.7258,-0.7258,-0.7221,-0.72,-0.72,-0.7163,-0.7139,-0.7139,0.0,0.0,0.0,0.0,0.0,0.0,0.0,0.0,0.0,0.0,0.0,0.0,0.0,0.0,0.0,0.0,0.0,0.0,0.0,0.0,0.0,0.0,0.0,0.0,0.0,0.0,0.0,0.0,0.0,-0.9375,-0.7874,0.0,0.0,0.0,0.0,-0.6702,-0.6834,-0.6915,-0.6915,-0.808,-0.8253,-0.7119,-0.8165,-0.834,-0.7346,-0.735,-0.7424,-0.7577,-0.7577,-0.7577,-0.7577,-0.7577,-0.7577,-0.7577,-0.7577,-0.7577,-0.7553,-0.7244,-0.7115,-0.7115,-0.7115,-0.7115,-0.7115,-0.7115,-0.7115,-0.7115,-0.7115,-0.7115,-0.7115,-0.7115,-0.7115,-0.7115,-0.7115,-0.7115,0.0,0.0,-0.7115,-0.7115,-0.7115,-0.7234,-0.735,-0.735,-0.7465,-0.7577,-0.7577,-0.7577,-0.7489,0.0,-0.7136,-0.7187,-0.7333,0.0,-0.7411,-0.7553,-0.7577,-0.7577,-0.7577,-0.7577,-0.7577,-0.7577,-0.7577,-0.7577,-0.7577,-0.7577,-0.7577,-0.7577,-0.7441,-0.736,-0.736,-0.7217,-0.7139,-0.7139,-0.7132,0.0,0.0,0.0,0.0,0.0,0.0,0.0,0.0,0.0,0.0,0.0,0.0,0.0,0.0,0.0,0.0,0.0,0.0,0.0,0.0,0.0,0.0,0.0,0.0,0.0,0.0,0.0,0.0,-0.8707,-0.7558,0.0,-0.8493,-0.8258,-0.8058,-0.8088,-0.8155,-0.8237,-0.8344,-0.8057,-0.8136,-0.8595,-0.9051,-0.954,-1.0063,-1.0067,-0.9644,-0.8788,-0.8788,-0.8426,-0.76,-0.76,-0.76,-0.76,-0.76,-0.76,-0.759,-0.7482,-0.7434,-0.7434,-0.7434,-0.7434,-0.7434,-0.7434,-0.7434,-0.7434,-0.7434,-0.7434,-0.7434,-0.7434,-0.7434,-0.7434,-0.7434,-0.7434,-0.7434,-0.7434,-0.7434,-0.7434,-0.7434,-0.7475,-0.7519,-0.7519,-0.756,-0.76,-0.76,-0.76,-0.7567,-0.7458,-0.7434,-0.7455,-0.7509,-0.7519,-0.7536,-0.759,-0.76,-0.76,-0.76,-0.76,-0.76,-0.76,-0.76,-0.76,-0.76,-0.76,-0.76,-0.76,-0.755,-0.7519,-0.7519,-0.737,-0.7288,-0.7288,-0.719,-0.7139,0.0,0.0,0.0,0.0,0.0,0.0,0.0,0.0,0.0,0.0,0.0,0.0,0.0,0.0,0.0,0.0,0.0,0.0,0.0,0.0,0.0,0.0,0.0,0.0,0.0,0.0,-0.8338,-0.948,-0.8721,-0.848,-0.9785,-0.9695,-0.936,-0.897,-0.9038,-0.9123,-0.9241,-0.8893,-0.8946,-0.9515,-0.989,-1.0385,-1.092,-1.092,-1.0679,-1.0274,-1.0274,-0.9905,-0.9068,-0.9068,-0.9068,-0.9068,-0.9068,-0.9068,-0.8973,-0.86,-0.8409,-0.8398,-0.7827,-0.76,-0.76,-0.76,-0.76,-0.76,-0.76,-0.76,-0.76,-0.76,-0.76,-0.76,-0.76,-0.76,-0.76,-0.76,-0.76,-0.76,-0.76,-0.7634,-0.7672,-0.7672,-0.7709,-0.7746,-0.7746,-0.7746,-0.7746,-0.7746,-0.7668,-0.7614,-0.7662,-0.7672,-0.7689,-0.774,-0.7746,-0.7746,-0.7746,-0.7746,-0.7746,-0.7746,-0.7746,-0.7746,-0.7746,-0.8126,-0.8221,-0.775,-0.8076,-0.8139,-0.7672,-0.7529,-0.7448,-0.7448,-0.7295,-0.719,-0.7139,0.0,0.0,0.0,0.0,0.0,0.0,0.0,0.0,0.0,0.0,0.0,0.0,0.0,0.0,0.0,0.0,0.0,0.0,0.0,0.0,0.0,0.0,0.0,-1.0416,-1.0321,-1.0872,-1.1969,-1.1256,-1.1052,-1.2254,-1.1614,-1.0597,-0.9341,-0.9509,-0.9612,-0.9621,-1.0731,-1.0828,-0.963,-1.074,-1.0939,-1.0005,-0.9914,-1.0583,-1.1945,-1.1848,-1.1853,-1.1853,-1.1853,-1.1848,-1.1945,-1.1945,-1.1853,-1.175,-1.0489,-0.9998,-0.9768,-0.8196,-0.7614,-0.7614,-0.7614,-0.7614,-0.7614,-0.7614,-0.7614,-0.7614,-0.7614,-0.7614,-0.7614,-0.7614,-0.7614,-0.7614,-0.7614,-0.7614,-0.7614,-0.7614,-0.7716,-0.7818,-0.7818,-0.7933,-0.8038,-0.8038,-0.8038,-0.8038,-0.8038,-0.7807,-0.7658,-0.7794,-0.7818,-0.7868,-0.8018,-0.8038,0.0,-0.8038,-0.8038,-0.8038,-0.8038,-0.8038,-0.8038,-0.8038,-0.9217,-0.941,-0.8038,-0.9057,-0.9152,-0.7914,-0.7682,-0.7604,-0.76,-0.7448,-0.7295,-0.7146,0.0,0.0,0.0,0.0,0.0,0.0,0.0,0.0,0.0,0.0,0.0,0.0,0.0,0.0,0.0,0.0,0.0,0.0,0.0,0.0,0.0,0.0,-1.3071,-1.1876,-1.1075,-1.0947,-1.2143,-1.15,-1.1377,-1.2517,-1.2672,-1.2468,-1.21,-1.2161,-1.227,-1.2341,-1.189,-1.1968,-1.2696,-1.2998,-1.3507,-1.4159,-1.3194,-1.2459,-1.1848,-1.0974,-1.0485,-1.0485,-1.0485,-1.1072,-1.1945,-1.1945,-1.1365,-1.0485,-1.0096,-0.941,-0.852,-0.8048,-0.7919,-0.7919,-0.7919,-0.7919,-0.7919,-0.7919,-0.7919,-0.7919,-0.7919,-0.7919,-0.7919,-0.7919,-0.7919,-0.7919,-0.7919,-0.7919,-0.7919,-0.7919,-0.7946,-0.7977,-0.7977,-0.8011,-0.8038,-0.8038,-0.8038,-0.8038,-0.8038,-0.7974,-0.7929,-0.797,-0.7977,-0.7991,-0.8031,-0.8038,0.0,-0.8038,-0.8038,-0.8038,-0.8038,-0.8038,-0.8038,-0.8038,-0.8333,-0.8432,-0.8038,-0.8294,-0.8754,-0.9339,-0.8308,-0.7706,-0.76,-0.7448,-0.735,0.0,0.0,0.0,0.0,0.0,0.0,0.0,0.0,0.0,0.0,0.0,0.0,0.0,0.0,0.0,0.0,0.0,0.0,0.0,0.0,0.0,0.0,-1.4269,-1.4045,-1.3529,-1.2748,-1.2539,-1.3355,-1.3063,-1.2981,-1.3698,-1.3954,-1.3933,-1.3371,-1.3373,-1.3502,-1.3643,-1.2987,-1.3048,-1.3872,-1.3878,-1.4268,-1.5045,-1.4377,-1.394,-1.3757,-1.3068,-1.2814,-1.2814,-1.2814,-1.321,0.0,-1.3906,-1.3512,-1.2814,-1.2218,-1.1516,0.0,0.0,0.0,0.0,0.0,-0.8038,-0.8038,-0.8038,-0.8038,-0.8038,-0.8038,-0.8038,-0.8038,-0.8038,-0.8038,-0.8038,-0.8038,-0.8038,-0.8038,-0.8038,-0.8038,-0.8038,-0.8038,-0.8038,-0.8038,-0.8038,-0.8038,-0.8038,-0.8038,-0.8038,0.0,-0.8038,-0.8038,-0.8038,-0.8038,-0.8432,-0.8627,-0.8038,-0.892,-0.9213,-0.8137,-0.8528,-0.8627,-0.8038,-0.8531,0.0,0.0,0.0,-0.9217,-0.9998,-0.9213,0.0,0.0,0.0,-0.7526,-0.7465,0.0,0.0,0.0,-0.7132,-0.7095,0.0,0.0,0.0,0.0,0.0,0.0,0.0,0.0,0.0,0.0,0.0,0.0,0.0,0.0,0.0,0.0,-1.4569,-1.4676,-1.497,-1.4783,-1.4703,-1.4937,-1.499,-1.5017,-1.5017,-1.5277,-1.4968,-1.3725,-1.3939,-1.407,-1.407,0.0,0.0,0.0,0.0,-1.4226,-1.4256,-1.4288,-1.4906,-1.6124,-1.6175,-1.6293,-1.65,-1.65,-1.66,-1.6707,-1.6707,-1.66,-1.6393,-1.5261,-1.485,-1.4494,-1.125,-0.9343,-0.8258,-0.8045,-0.8038,-0.8038,-0.8038,0.0,0.0,-0.8038,-0.8038,-0.8038,-0.8038,-0.8038,-0.8038,-0.8038,-0.8038,-0.8038,-0.8038,-0.8038,-0.8038,-0.8038,-0.8038,-0.8038,-0.8038,-0.8038,-0.8038,-0.8038,-0.8038,-0.8038,-0.8038,-0.8038,-0.8038,-0.8038,-0.9019,-0.9312,-0.8137,-0.9998,-1.0583,-0.8428,0.0,0.0,-0.8531,-0.9509,-0.9706,-0.8531,-0.9509,-1.0194,-0.9998,-1.0096,-1.0015,-0.956,-0.8583,-0.7938,-0.7624,-0.7472,-0.7397,-0.7394,-0.7221,-0.7139,0.0,0.0,0.0,0.0,0.0,0.0,0.0,0.0,0.0,0.0,0.0,0.0,0.0,0.0,0.0,-1.483,-1.4877,-1.4977,-1.5271,-1.5264,-1.5164,-1.4983,-1.517,-1.5311,-1.5311,-1.5578,-1.5644,-1.5354,-1.5406,-1.5439,-1.5439,-1.5439,0.0,-1.5875,-1.5881,-1.5895,-1.613,-1.5157,-1.4873,-1.5081,0.0,0.0,-1.516,-1.516,-1.5777,-1.6707,-1.6707,-1.6085,-1.516,-1.4951,-1.485,-1.4511,-1.1505,-1.0117,-0.9803,-0.8478,-0.8038,-0.8038,-0.8038,-0.8038,-0.8038,-0.8038,-0.8038,-0.8038,-0.8038,-0.8038,0.0,-0.8038,-0.8038,-0.8038,-0.8038,-0.8038,-0.8038,-0.8038,-0.8038,-0.8038,-0.8038,-0.8038,-0.8038,-0.8038,-0.8038,-0.8038,-0.8038,-0.8038,-0.8038,-0.8038,-0.8233,-0.8333,-0.8038,-0.8432,-0.9019,-0.9509,-0.9801,-1.0293,-1.1068,-1.1361,-1.1458,-1.1165,-1.1361,-1.1072,-0.9998,-1.0974,-1.0565,-0.8386,-0.9026,-0.8844,-0.777,-0.7628,-0.7556,-0.755,-0.7268,-0.7139,0.0,0.0,0.0,0.0,0.0,0.0,0.0,0.0,0.0,0.0,0.0,-1.4396,0.0,0.0,-1.4836,-1.513,-1.5177,-1.5284,-1.5571,-1.5611,-1.5558,-1.5418,-1.5524,-1.5611,-1.5611,-1.5745,-1.5832,-1.5832,-1.5832,-1.5892,-1.6046,-1.6052,-1.6186,-1.648,-1.6486,-1.656,-1.6707,-1.6227,-1.5986,-1.5986,-1.55,-1.5561,-1.6188,-1.6188,-1.651,-1.7141,-1.7141,-1.6826,-1.6188,-1.6188,-1.6188,-1.5956,-1.3724,-1.223,-1.1304,-0.99,-0.8864,-0.8262,-0.8262,-0.8262,-0.8262,-0.8262,-0.8262,-0.8262,-0.8262,-0.8262,-0.8245,-0.8174,-0.8153,-0.8136,-0.8058,-0.8038,-0.8038,-0.8038,-0.8038,-0.8038,-0.8038,-0.8531,-0.8825,-0.8137,-0.8528,-0.9019,-0.9019,-0.9019,-0.8726,-0.8137,-0.8531,-0.8726,-0.8038,-0.9698,-1.0672,-1.0096,-1.0583,-1.1165,-1.1848,-1.1945,-1.1945,-1.1945,-1.2528,-1.2328,-1.097,-1.1556,-1.1263,-0.9993,-0.9225,-0.8893,-0.8893,-0.8062,-0.7706,-0.7699,-0.7475,-0.7329,0.0,0.0,0.0,0.0,0.0,0.0,0.0,0.0,-1.4536,-1.4596,-1.4603,-1.4696,-1.499,-1.505,-1.5144,-1.5431,-1.5478,-1.5565,-1.5798,-1.5832,-1.5832,-1.5832,-1.5832,-1.5832,-1.5832,-1.5832,-1.5832,-1.5832,-1.5879,-1.6019,-1.6259,-1.6326,-1.6493,-1.678,-1.6794,-1.682,-1.6874,-1.7114,-1.7235,-1.7235,-1.7468,-1.7582,-1.7582,-1.7582,-1.7582,-1.7582,-1.7582,-1.7582,-1.7582,-1.7582,-1.7582,-1.745,-1.6156,-1.4463,-1.261,-1.1187,-0.9924,-0.8895,-0.8584,-0.8482,-0.8482,-0.8482,-0.8482,-0.8482,-0.8482,-0.8482,-0.8459,-0.8343,-0.8313,-0.8385,-0.8456,-0.8521,-0.8618,-0.8818,-0.8918,-0.8918,-0.8918,-0.978,-1.0151,-0.9069,-0.9628,-1.0386,-1.0386,-1.0386,-0.9998,-0.892,-0.9706,-0.9998,-0.892,-1.1351,-1.2425,-1.0583,-1.1072,-1.175,-1.2237,-1.2528,-1.2624,-1.2624,-1.3392,-1.3295,-1.1945,-1.1945,-1.175,-1.156,-0.9702,-0.9213,-0.9998,-0.8784,-0.8046,-0.7851,-0.774,-0.7587,-1.4088,-1.4088,-1.4088,-1.4088,-1.4115,-1.4195,0.0,0.0,-1.4596,-1.4863,-1.4917,-1.5003,-1.5297,-1.5351,-1.5444,-1.5732,-1.5785,-1.5792,-1.5825,-1.5832,-1.5832,-1.5832,-1.5832,-1.5832,-1.5832,-1.5832,-1.5832,-1.5832,-1.6072,-1.6239,-1.6273,-1.652,-1.6794,-1.7088,-1.7101,-1.7221,-1.7482,-1.7515,-1.7535,-1.7535,-1.7569,-1.7582,-1.7582,-1.7582,-1.7582,-1.7582,-1.7582,-1.7582,-1.7582,-1.7582,-1.7582,-1.7582,-1.7437,-1.5683,-1.3036,-1.129,-1.0642,-1.0231,-0.8999,-0.8482,-0.8482,-0.8482,-0.8482,-0.8482,-0.8482,-0.8482,-0.8479,-0.8462,-0.8459,-0.8762,-1.0075,-1.0376,-1.0686,-1.2021,-1.2225,-1.2225,-1.2225,-1.2178,-1.2044,-1.1944,-1.1786,-1.1658,-1.1658,-1.1658,-1.1653,-1.1463,-1.1556,-1.1653,-1.1458,-1.0877,-1.0774,-1.1556,-1.0779,-1.1165,-1.3488,-1.4752,-1.5343,-1.5343,-1.4459,-1.3295,-1.1945,-1.1945,-1.1365,-1.0194,-1.1072,-1.0974,-0.9998,-0.9878,-0.9186,-0.8014,-0.7997,-0.7841,-1.4088,-1.4088,0.0,0.0,-1.4342,-1.4583,-1.4529,-1.4783,-1.5064,-1.519,-1.5217,-1.5304,-1.5591,-1.5651,-1.5691,0.0,-1.5832,-1.5832,-1.5832,-1.5832,-1.5832,-1.5832,-1.5832,-1.5832,-1.5832,-1.5985,-1.6086,-1.6086,-1.6359,-1.66,-1.6774,-1.6901,-1.7101,-1.7388,-1.7402,-1.7462,-1.7582,-1.7582,-1.7582,-1.7582,-1.7582,-1.7582,-1.7582,-1.7582,-1.7582,-1.7582,-1.7582,-1.7582,-1.7582,-1.7582,-1.7582,-1.7582,-1.7582,-1.6823,-1.55,-1.3052,-1.1082,-0.96,-0.896,-0.8747,-0.8852,-0.9704,-0.9384,-0.8855,-0.9704,-1.0023,-1.0003,-0.9898,-1.0497,-1.1199,-1.1808,-1.1883,-1.2088,-1.271,-1.2812,-1.2812,-1.2812,-1.3346,-1.3579,-1.2775,-1.2988,-1.3313,-1.3313,-1.3197,-1.3301,-1.4082,-1.2915,-1.1945,-1.1945,-1.2134,-1.2425,-1.3006,-1.2619,-1.2716,-1.3782,-1.5045,-1.5832,-1.5832,-1.5337,-1.4459,-1.3108,-1.2334,-1.1658,-1.1072,-1.0092,-1.0096,-1.1072,-0.9608,-0.892,-0.9118,-0.8333,-0.7974,-1.4088,0.0,0.0,-1.4088,-1.4469,-1.4803,-1.4669,-1.503,-1.5418,-1.5504,-1.5518,-1.5578,-1.5792,-1.5832,-1.5832,-1.5832,-1.5832,-1.5832,-1.5832,-1.5832,-1.5832,-1.5832,-1.5905,-1.5952,-1.5952,-1.6146,-1.6306,-1.6386,-1.6667,-1.6921,-1.7141,-1.7228,-1.7368,-1.7575,-1.7582,-1.7582,-1.7582,-1.7582,-1.7582,-1.7582,-1.7582,-1.7582,-1.7582,-1.7582,-1.7582,-1.7582,-1.7582,-1.7582,-1.7582,-1.7582,-1.7582,-1.7582,-1.7582,-1.7364,-1.6717,-1.4663,-1.2295,-1.0021,-0.9699,-0.9482,-0.9699,-1.0781,-1.0672,-1.0347,-1.1428,-1.1755,-1.1724,-1.1576,-1.2278,-1.3193,-1.345,-1.3517,-1.362,-1.4034,-1.4138,-1.4138,-1.4138,-1.4806,-1.5167,-1.4242,-1.4548,-1.4943,-1.4869,-1.4698,-1.484,-1.5648,-1.4178,-1.3017,-1.3017,-1.3494,-1.3776,-1.3392,-1.3686,-1.3878,-1.3878,-1.5045,-1.5832,-1.5832,-1.5832,-1.5242,-1.3974,-1.2624,-1.1945,-1.1945,-0.9702,-0.9509,-1.1365,-0.9509,-0.8821,-0.941,-0.8432,-0.8038,0.0,0.0,-1.4088,-1.4088,-1.4309,-1.4603,-1.4883,-1.5177,-1.5478,-1.5758,-1.5812,-1.5818,-1.5832,-1.5832,-1.5832,-1.5832,-1.5832,-1.5832,-1.5832,-1.5832,-1.5832,-1.5832,-1.6086,-1.6259,0.0,-1.6266,-1.6386,-1.6667,-1.6967,-1.7141,-1.7148,-1.7415,-1.7569,-1.7582,-1.7582,-1.7582,-1.7582,-1.7582,-1.7582,-1.7582,-1.7582,-1.7582,-1.7582,-1.7582,-1.7582,-1.7582,-1.7582,-1.7582,-1.7582,-1.7582,-1.7582,-1.7582,-1.7582,-1.6717,-1.5417,-1.5417,-1.4449,-1.294,-1.1538,-1.1,-1.1,-1.1105,-1.2077,-1.3156,-1.3264,-1.3264,-1.3264,-1.3259,-1.3254,-1.3578,-1.4967,-1.5287,-1.5713,-1.7121,-1.7443,-1.7443,-1.7443,-1.7231,-1.7134,-1.7032,-1.6793,-1.65,-1.6319,-1.6259,-1.6159,-1.5872,-1.573,-1.5635,-1.5635,-1.4657,-1.3392,-1.2139,-1.3102,-1.3878,-1.3878,-1.5045,-1.5832,-1.5832,-1.5832,-1.5242,-1.3974,-1.2624,-1.1945,-1.1945,-1.0583,-0.9998,-1.0096,-0.9998,-0.9316,-0.8038,-0.8041,-0.8038,0.0,0.0,-1.4135,-1.4322,-1.4596,-1.489,-1.5184,-1.5478,-1.5712,-1.5805,-1.5832,-1.5832,-1.5832,-1.5832,-1.5832,-1.5832,-1.5832,-1.5832,-1.5832,-1.5832,-1.5905,-1.6099,-1.6213,0.0,0.0,0.0,0.0,-1.6994,-1.7268,-1.7442,-1.7442,-1.7528,-1.7582,-1.7582,-1.7582,-1.7582,-1.7582,-1.7582,-1.7582,-1.7582,-1.7582,-1.7582,-1.7582,-1.7582,-1.7582,-1.7582,-1.7582,-1.7582,-1.7582,-1.7582,-1.7582,-1.7582,-1.7582,-1.7259,-1.6823,-1.6823,-1.5962,-1.4341,-1.1973,-1.1755,-1.2512,-1.2512,-1.294,-1.348,-1.4449,-1.4663,-1.4663,-1.4663,-1.5417,-1.628,-1.6717,-1.6823,-1.6935,-1.747,-1.7582,-1.7582,-1.7582,-1.7508,-1.7442,-1.7442,-1.7201,-1.6907,-1.6607,-1.64,-1.6172,-1.5872,-1.5832,-1.5832,-1.5832,-1.4657,-1.407,-1.4465,-1.4172,-1.4262,-1.5051,-1.5534,-1.5832,-1.5832,-1.5832,-1.5242,-1.3974,-1.2624,-1.1458,-1.0681,-0.9312,-0.9118,-0.9998,-0.9118,-0.8924,-0.9312,-0.8432,-0.8038,0.0,-1.4088,-1.4155,-1.4449,-1.4743,-1.5037,-1.5331,-1.5618,-1.5832,-1.5832,-1.5832,-1.5832,-1.5832,-1.5832,-1.5832,-1.5832,-1.5832,-1.5832,-1.5832,-1.5832,-1.5939,-1.6239,-1.6359,-1.662,0.0,0.0,0.0,-1.7301,-1.7475,-1.7582,-1.7582,-1.7582,-1.7582,-1.7582,-1.7582,-1.7582,-1.7582,-1.7582,-1.7582,-1.7582,-1.7582,-1.7582,-1.7582,-1.7582,-1.7582,-1.7582,-1.7582,-1.7582,-1.7582,-1.7582,-1.7582,-1.7582,-1.7582,-1.7582,-1.7582,-1.7582,-1.7035,-1.5849,-1.3475,-1.3264,-1.4019,-1.4019,-1.4449,-1.499,-1.5956,-1.6174,-1.6174,-1.6174,-1.6823,-1.7582,-1.7582,-1.7582,-1.7582,-1.7582,-1.7582,-1.7582,-1.7582,-1.7582,-1.7582,-1.7582,-1.7428,-1.7174,-1.6774,-1.6373,-1.6052,-1.5858,-1.5832,-1.5832,-1.5832,-1.5051,-1.4854,-1.573,-1.5045,-1.4949,-1.573,-1.5832,-1.5832,-1.5832,-1.5337,-1.4752,-1.3974,-1.2134,-1.0877,-0.9998,-0.8726,-0.8432,-0.9316,-0.8432,-0.8432,-0.9312,-0.8432,-0.8038,-1.4088,-1.4088,-1.4162,-1.4469,-1.4756,-1.5044,-1.5351,-1.5631,-1.5832,-1.5832,-1.5832,-1.5832,0.0,0.0,-1.5832,-1.5832,-1.5832,-1.5832,-1.5832,-1.5832,-1.5945,0.0,0.0,0.0,0.0,0.0,0.0,-1.7582,0.0,-1.7582,-1.7582,-1.7582,-1.7582,-1.7582,-1.7582,-1.7582,-1.7582,-1.7582,-1.7582,-1.7582,-1.7582,-1.7582,-1.7582,-1.7582,-1.7582,-1.7582,-1.7582,-1.7582,-1.7582,-1.7582,-1.7582,-1.7582,-1.7582,-1.7582,-1.7582,-1.7582,-1.7582,-1.7364,-1.5962,-1.5524,-1.5524,-1.5417,-1.6393,-1.7582,-1.7582,-1.7582,-1.7582,-1.7582,-1.7582,-1.7582,-1.7582,-1.7582,-1.7582,-1.7582,-1.7582,-1.7582,-1.7582,-1.7582,-1.7582,-1.7582,-1.7555,-1.7355,-1.678,-1.6206,-1.5832,-1.5832,-1.5832,-1.5832,-1.5832,-1.5832,-1.5832,-1.5832,-1.5832,-1.5832,-1.5832,-1.5832,-1.5832,-1.5832,-1.4555,-1.3878,-1.3776,-1.1356,-0.9998,-0.9903,-0.8627,-0.8038,-0.8038,-0.8038,-0.8038,-0.8038,-0.8038,-0.8038,-1.4088,-1.4088,-1.4208,-1.4723,-1.491,-1.5097,-1.5605,-1.5772,-1.5832,-1.5832,-1.5832,-1.5832,0.0,0.0,0.0,-1.5832,-1.5832,0.0,-1.5832,-1.5832,0.0,0.0,0.0,-1.6907,-1.7422,-1.7542,0.0,0.0,-1.7582,-1.7582,-1.7582,-1.7582,-1.7582,-1.7582,-1.7582,-1.7582,-1.7582,-1.7582,-1.7582,-1.7582,-1.7582,-1.7582,-1.7582,-1.7582,-1.7582,-1.7582,-1.7582,-1.7582,-1.7582,-1.7582,-1.7582,-1.7582,-1.7582,-1.7582,-1.7582,-1.7582,-1.7582,-1.7582,-1.7147,-1.7041,-1.6823,-1.5743,-1.6393,-1.7582,-1.7582,-1.7582,-1.7582,-1.7582,-1.7582,-1.7582,-1.7582,-1.7582,-1.7582,-1.7582,-1.7582,-1.7582,-1.7582,-1.7582,-1.7582,-1.7582,-1.7228,-1.6814,-1.6446,-1.6079,-1.5832,-1.5832,-1.5832,-1.5832,-1.5832,-1.5832,-1.5832,-1.5832,-1.5832,-1.5832,-1.5832,-1.5832,-1.5832,-1.5832,-1.4555,-1.3488,-1.2425,-1.0877,-0.9509,-0.8531,-0.8137,-0.8038,-0.8038,-0.8038,-0.8038,-0.8038,-0.8038,-0.8038,-1.4088,-1.4088,-1.4229,-1.4816,-1.4963,-1.5117,-1.5698,-1.5832,-1.5832,-1.5832,-1.5832,0.0,0.0,0.0,0.0,0.0,0.0,0.0,-1.5832,-1.5832,-1.6046,0.0,-1.6707,0.0,-1.7522,-1.7582,-1.7582,0.0,-1.7582,-1.7582,-1.7582,-1.7582,-1.7582,-1.7582,-1.7582,-1.7582,-1.7582,-1.7582,-1.7582,-1.7582,-1.7582,-1.7582,-1.7582,-1.7582,-1.7582,-1.7582,0.0,-1.7582,-1.7582,-1.7582,-1.7582,-1.7582,-1.7582,-1.7582,-1.7582,-1.7582,-1.7582,-1.7582,-1.7582,-1.7582,-1.7477,-1.6605,-1.6929,-1.7582,-1.7582,-1.7582,-1.7582,-1.7582,-1.7582,-1.7582,-1.7582,-1.7582,-1.7582,-1.7582,-1.7582,-1.7582,-1.7582,-1.7582,-1.7549,-1.7415,-1.7021,-1.6613,-1.6326,-1.6025,-1.5832,-1.5832,-1.5832,-1.5832,-1.5832,-1.5832,-1.5832,-1.5832,-1.5832,-1.5832,-1.5832,-1.5832,-1.5832,-1.5832,-1.4076,-1.2716,-1.1945,-1.0092,-0.8726,-0.8041,-0.8038,-0.8038,-0.8038,-0.8038,-0.8038,-0.8038,-0.8038,-0.8038,-1.4088,-1.4088,-1.4215,-1.477,-1.4937,-1.5104,-1.5651,-1.5798,-1.5832,-1.5832,0.0,-1.5832,-1.5832,0.0,-1.5832,-1.5832,0.0,-1.5832,-1.5832,-1.5832,-1.6032,-1.658,-1.668,-1.6921,-1.7468,-1.7562,-1.7582,-1.7582,-1.7582,-1.7582,-1.7582,-1.7582,-1.7582,-1.7582,-1.7582,-1.7582,-1.7582,-1.7582,-1.7582,-1.7582,-1.7582,-1.7582,-1.7582,-1.7582,-1.7582,-1.7582,-1.7582,0.0,-1.7582,-1.7582,-1.7582,-1.7582,-1.7582,-1.7582,-1.7582,-1.7582,-1.7582,-1.7582,-1.7582,-1.7582,-1.7582,-1.7582,-1.7582,-1.7582,-1.7582,-1.7582,-1.7582,-1.7582,-1.7582,-1.7582,-1.7582,-1.7582,-1.7582,-1.7582,-1.7582,-1.7582,-1.7582,-1.7555,-1.7435,-1.7148,-1.6854,-1.656,-1.6266,-1.5999,-1.5832,-1.5832,-1.5832,-1.5832,-1.5832,-1.5832,-1.5832,-1.5832,-1.5832,-1.5832,-1.5832,-1.5832,-1.5832,-1.5832,-1.3307,-1.1945,-1.1945,-0.941,-0.8038,-0.8038,-0.8038,-0.8038,-0.8038,-0.8038,-0.8038,-0.8038,-0.8038,-0.8038,-1.4088,-1.4088,-1.4168,-1.4509,-1.4783,-1.5057,-1.5391,-1.5658,0.0,0.0,0.0,-1.5832,-1.5832,-1.5832,0.0,-1.5832,0.0,0.0,0.0,0.0,-1.5959,0.0,0.0,0.0,0.0,0.0,0.0,0.0,0.0,-1.7582,-1.7582,-1.7582,-1.7582,-1.7582,-1.7582,-1.7582,-1.7582,-1.7582,-1.7582,-1.7582,-1.7582,-1.7582,-1.7582,-1.7582,-1.7582,-1.7582,-1.7582,0.0,-1.7582,-1.7582,-1.7582,-1.7582,-1.7582,-1.7582,-1.7582,-1.7582,-1.7582,-1.7582,-1.7582,-1.7582,-1.7582,-1.7582,-1.7582,-1.7582,-1.7582,-1.7582,-1.7582,-1.7582,-1.7582,-1.7582,-1.7582,-1.7582,-1.7582,-1.7582,-1.7582,-1.7582,-1.7582,-1.7395,-1.7134,-1.684,-1.6547,-1.6253,-1.5959,-1.5865,-1.5832,-1.5832,-1.5832,-1.5832,-1.5832,-1.5832,-1.5832,-1.5832,-1.5832,-1.5832,-1.5832,-1.5832,-1.5832,-1.5832,-1.3307,-1.1945,-1.1945,-0.941,-0.8038,-0.8038,-0.8038,-0.8038,-0.8038,-0.8038,-0.8038,-0.8038,-0.8038,-0.8038,-1.4088,-1.4088,-1.4155,-1.4449,-1.4743,-1.5037,-1.5331,0.0,0.0,0.0,0.0,-1.5832,-1.5832,0.0,0.0,0.0,0.0,0.0,0.0,0.0,0.0,0.0,0.0,0.0,0.0,0.0,0.0,0.0,0.0,-1.7582,-1.7582,-1.7582,-1.7582,-1.7582,-1.7582,-1.7582,-1.7582,-1.7582,-1.7582,-1.7582,-1.7582,-1.7582,-1.7582,-1.7582,-1.7582,-1.7582,-1.7582,0.0,-1.7582,-1.7582,-1.7582,-1.7582,-1.7582,-1.7582,-1.7582,-1.7582,-1.7582,-1.7582,-1.7582,-1.7582,-1.7582,-1.7582,-1.7582,-1.7582,-1.7582,-1.7582,-1.7582,-1.7582,-1.7582,-1.7582,-1.7582,-1.7582,-1.7582,-1.7582,-1.7468,-1.7361,-1.7361,-1.7128,-1.6834,-1.654,-1.6366,-1.6179,-1.5879,-1.5832,-1.5832,-1.5832,-1.5832,-1.5832,-1.5832,-1.5832,-1.5832,-1.5832,-1.5832,-1.5832,-1.5832,-1.5832,-1.5534,-1.4854,-1.3011,-1.1556,-1.0974,-0.9019,-0.8038,-0.8038,-0.8038,-0.8038,-0.8038,-0.8038,-0.8038,-0.8038,-0.8038,-0.8038,-1.4088,-1.4088,-1.4142,-1.4369,-1.4649,-1.4943,-1.5237,-1.5531,0.0,0.0,-1.5832,-1.5832,-1.5832,0.0,0.0,0.0,0.0,0.0,0.0,0.0,0.0,0.0,0.0,0.0,0.0,0.0,0.0,0.0,0.0,0.0,-1.7582,-1.7582,-1.7582,-1.7582,-1.7582,-1.7582,-1.7582,-1.7582,-1.7582,-1.7582,-1.7582,-1.7582,-1.7582,-1.7582,-1.7582,-1.7582,-1.7582,0.0,0.0,-1.7582,-1.7582,-1.7582,-1.7582,-1.7582,-1.7582,-1.7582,-1.7582,-1.7582,-1.7582,-1.7582,-1.7582,-1.7582,-1.7582,-1.7582,-1.7582,-1.7582,-1.7582,-1.7582,-1.7582,-1.7582,-1.7582,-1.7582,-1.7569,-1.7502,-1.7315,-1.7134,-1.7068,-1.682,-1.6547,-1.6319,-1.6219,-1.6106,-1.5872,-1.5832,-1.5832,-1.5832,-1.5832,-1.5832,-1.5832,-1.5832,-1.5832,-1.5832,-1.5832,-1.5832,-1.5832,-1.5832,-1.5242,-1.3974,-1.2624,-1.1361,-1.0096,-0.8726,-0.8038,-0.8038,-0.8038,-0.8038,-0.8038,-0.8038,-0.8038,-0.8038,-0.8038,-0.8038,-1.4088,-1.4088,-1.4095,-1.4122,-1.4349,-1.4636,-1.4937,0.0,0.0,0.0,-1.5832,-1.5832,-1.5832,-1.5832,0.0,0.0,0.0,0.0,0.0,0.0,0.0,0.0,0.0,0.0,0.0,0.0,0.0,0.0,0.0,0.0,-1.7582,-1.7582,-1.7582,-1.7582,-1.7582,-1.7582,-1.7582,-1.7582,-1.7582,-1.7582,-1.7582,-1.7582,-1.7582,-1.7582,-1.7582,-1.7582,-1.7582,0.0,0.0,-1.7582,-1.7582,-1.7582,-1.7582,-1.7582,-1.7582,-1.7582,-1.7582,-1.7582,-1.7582,-1.7582,-1.7582,-1.7582,-1.7582,-1.7582,-1.7582,-1.7582,-1.7582,-1.7582,-1.7582,-1.7582,-1.7582,-1.7582,-1.7515,-1.7248,-1.7271,-1.7074,-1.6807,-1.652,-1.6306,-1.6279,-1.6052,-1.5865,-1.5832,-1.5832,-1.5832,-1.5832,-1.5832,-1.5832,-1.5832,-1.5832,-1.5832,-1.5832,-1.5832,-1.5832,-1.5832,-1.5832,-1.5242,-1.3974,-1.2624,-1.1361,-1.0096,-0.8726,-0.8038,-0.8038,-0.8038,-0.8038,-0.8038,-0.8038,-0.8038,-0.8038,-0.8038,-0.8038,-1.4088,-1.4088,-1.4088,-1.4088,-1.4302,-1.4596,-1.4897,0.0,0.0,-1.5765,-1.5832,-1.5832,-1.5832,-1.5832,-1.5832,0.0,0.0,0.0,0.0,0.0,0.0,0.0,0.0,0.0,0.0,0.0,0.0,0.0,0.0,0.0,-1.7582,-1.7582,-1.7582,-1.7582,-1.7582,-1.7582,-1.7582,-1.7582,-1.7582,-1.7582,-1.7582,-1.7582,-1.7582,-1.7582,-1.7582,-1.7582,-1.7582,0.0,0.0,-1.7582,-1.7582,-1.7582,-1.7582,-1.7582,-1.7582,-1.7582,-1.7582,-1.7582,-1.7582,-1.7582,-1.7582,-1.7582,-1.7582,-1.7582,-1.7582,-1.7582,-1.7582,-1.7582,-1.7582,-1.7582,-1.7582,-1.7455,-1.7295,-1.7181,-1.6881,-1.6593,-1.6473,-1.6213,-1.6005,-1.6005,-1.5912,-1.5832,-1.5832,-1.5832,-1.5832,-1.5832,-1.5832,-1.5832,-1.5832,-1.5832,-1.5832,-1.5832,-1.5832,-1.5832,-1.5832,-1.514,-1.4076,-1.2818,-1.1458,-1.0194,-0.8825,-0.8233,-0.8038,-0.8038,-0.8038,-0.8038,-0.8038,-0.8038,-0.8038,-0.8038,-0.8038,-0.8038,-1.4088,-1.4088,-1.4088,-1.4088,-1.4242,-1.4469,0.0,0.0,-1.5351,-1.5645,-1.5765,-1.5832,-1.5832,-1.5832,-1.5832,-1.5832,0.0,0.0,0.0,0.0,0.0,0.0,0.0,0.0,0.0,0.0,0.0,0.0,0.0,0.0,0.0,-1.7582,-1.7582,-1.7582,-1.7582,-1.7582,-1.7582,-1.7582,-1.7582,-1.7582,-1.7582,-1.7582,-1.7582,-1.7582,-1.7582,-1.7582,-1.7582,0.0,0.0,-1.7582,-1.7582,-1.7582,-1.7582,-1.7582,-1.7582,-1.7582,-1.7582,-1.7582,-1.7582,-1.7582,-1.7582,-1.7582,-1.7582,-1.7582,-1.7582,-1.7582,-1.7582,-1.7582,-1.7522,-1.7455,-1.7455,-1.7241,-1.7001,-1.6914,-1.6573,-1.6246,-1.6159,-1.5979,-1.5832,-1.5832,-1.5832,-1.5832,-1.5832,-1.5832,-1.5832,-1.5832,-1.5832,-1.5832,-1.5832,-1.5832,-1.5832,-1.5832,-1.5832,-1.5635,-1.5242,-1.4459,-1.3199,-1.1463,-1.0485,-0.941,-0.8038,-0.8038,-0.8038,-0.8038,-0.8038,-0.8038,-0.8038,-0.8038,-0.8038,-0.8038,-0.8038,-0.8038,-1.4088,-1.4088,-1.4088,-1.4088,-1.4088,-1.4168,0.0,0.0,-1.505,-1.5344,-1.5631,-1.5832,-1.5832,-1.5832,-1.5832,-1.5832,-1.5832,0.0,0.0,0.0,0.0,0.0,0.0,0.0,0.0,0.0,0.0,0.0,0.0,0.0,0.0,-1.7582,-1.7582,-1.7582,-1.7582,-1.7582,-1.7582,-1.7582,-1.7582,-1.7582,-1.7582,-1.7582,-1.7582,-1.7582,-1.7582,0.0,0.0,0.0,0.0,-1.7582,-1.7582,-1.7582,-1.7582,-1.7582,-1.7582,-1.7582,-1.7582,-1.7582,-1.7582,-1.7582,-1.7582,-1.7582,-1.7582,-1.7582,-1.7582,-1.7582,-1.7582,-1.7582,-1.7375,-1.7154,-1.7154,-1.6934,-1.664,-1.6346,-1.6279,-1.6192,-1.5899,-1.5832,-1.5832,-1.5832,-1.5832,-1.5832,-1.5832,-1.5832,-1.5832,-1.5832,-1.5832,-1.5832,-1.5832,-1.5832,-1.5832,-1.5832,-1.5832,-1.5337,-1.407,-1.3878,-1.2807,-1.0194,-0.9998,-0.941,-0.8038,-0.8038,-0.8038,-0.8038,-0.8038,-0.8038,-0.8038,-0.8038,-0.8038,-0.8038,-0.8038,-0.8038,-1.4088,-1.4088,-1.4088,-1.4088,-1.4088,-1.4162,-1.4456,0.0,-1.4796,-1.5297,-1.5471,-1.5591,-1.5792,-1.5832,-1.5832,-1.5832,-1.5832,0.0,0.0,0.0,0.0,0.0,0.0,0.0,0.0,0.0,0.0,0.0,0.0,0.0,0.0,-1.7582,-1.7582,-1.7582,-1.7582,-1.7582,-1.7582,-1.7582,-1.7582,-1.7582,-1.7582,-1.7582,-1.7582,-1.7582,-1.7582,0.0,0.0,0.0,0.0,-1.7582,-1.7582,-1.7582,-1.7582,-1.7582,-1.7582,-1.7582,-1.7582,-1.7582,-1.7582,-1.7582,-1.7582,-1.7582,-1.7582,-1.7549,-1.7348,-1.7422,-1.7542,-1.7341,-1.7074,-1.6847,-1.6847,-1.6627,-1.6386,-1.6293,-1.6119,-1.5945,-1.5845,-1.5832,-1.5832,-1.5832,-1.5832,-1.5832,-1.5832,-1.5832,-1.5832,-1.5832,-1.5832,-1.5832,-1.5832,-1.5832,-1.5832,-1.5832,-1.5045,-1.4364,-1.3974,-1.3102,-1.1848,-1.0096,-0.9118,-0.8432,-0.8041,-0.8038,-0.8038,-0.8038,-0.8038,-0.8038,-0.8038,-0.8038,-0.8038,-0.8038,-0.8038,-0.8038,0.0,-1.4088,-1.4088,-1.4088,-1.4088,0.0,0.0,0.0,-1.4656,-1.5137,-1.5317,-1.5484,-1.5772,-1.5832,-1.5832,-1.5832,-1.5832,0.0,0.0,0.0,0.0,0.0,0.0,0.0,0.0,0.0,0.0,0.0,0.0,0.0,0.0,-1.7522,-1.7582,-1.7582,-1.7582,-1.7582,-1.7582,-1.7582,-1.7582,-1.7582,-1.7582,-1.7582,-1.7582,-1.7582,-1.7582,0.0,0.0,0.0,0.0,-1.7582,-1.7582,-1.7582,-1.7582,-1.7582,-1.7582,-1.7582,-1.7582,-1.7582,-1.7582,-1.7508,-1.7422,-1.7422,-1.7341,-1.7215,-1.7034,-1.7108,-1.7215,-1.7034,-1.6774,-1.6547,-1.6547,-1.6326,-1.6106,-1.6106,-1.5965,-1.5832,-1.5832,-1.5832,-1.5832,-1.5832,-1.5832,-1.5832,-1.5832,-1.5832,-1.5832,-1.5832,-1.5832,-1.5832,-1.5832,-1.5832,-1.5635,-1.5146,-1.4364,-1.3488,-1.2517,-1.1648,-1.0583,-0.9316,-0.8432,-0.8038,-0.8038,-0.8038,-0.8038,-0.8038,-0.8038,-0.8038,-0.8038,-0.8038,-0.8038,-0.8038,-0.8038,-0.8038,0.0,0.0,0.0,0.0,0.0,0.0,0.0,0.0,0.0,0.0,-1.5164,-1.5451,-1.5745,-1.5812,-1.5832,-1.5832,-1.5832,0.0,0.0,0.0,0.0,0.0,0.0,0.0,0.0,0.0,0.0,0.0,0.0,0.0,0.0,-1.7375,-1.7528,-1.7549,-1.7549,-1.7562,-1.7582,-1.7582,-1.7582,-1.7582,-1.7582,-1.7582,-1.7582,-1.7582,-1.7582,0.0,0.0,0.0,0.0,-1.7582,-1.7582,-1.7582,-1.7582,-1.7569,-1.7549,-1.7549,-1.7542,-1.7522,-1.7522,-1.7341,-1.7114,-1.7114,-1.6914,-1.6673,-1.6673,-1.6673,-1.6673,-1.6673,-1.6466,-1.6239,-1.6239,-1.6039,-1.5832,-1.5832,-1.5832,-1.5832,-1.5832,-1.5832,-1.5832,-1.5832,-1.5832,-1.5832,-1.5832,-1.5832,-1.5832,-1.5832,-1.5832,-1.5737,-1.5635,-1.5635,-1.5242,-1.407,-1.3782,-1.2813,-1.0485,-1.0096,-0.941,-0.8038,-0.8038,-0.8038,-0.8038,-0.8038,-0.8038,-0.8038,-0.8038,-0.8038,-0.8038,-0.8038,-0.8038,-0.8038,-0.8038,-0.8038,-1.4088,0.0,-1.4088,-1.4088,0.0,0.0,0.0,0.0,0.0,0.0,0.0,0.0,0.0,0.0,-1.5832,-1.5832,-1.5832,0.0,0.0,0.0,0.0,0.0,0.0,0.0,0.0,0.0,0.0,0.0,0.0,0.0,0.0,-1.6874,-1.7014,-1.7241,-1.7248,-1.7361,-1.7582,-1.7582,-1.7582,-1.7582,-1.7582,-1.7582,-1.7582,-1.7582,-1.7582,0.0,0.0,0.0,-1.7582,-1.7582,-1.7582,-1.7582,-1.7582,-1.7442,-1.7248,-1.7248,-1.7108,-1.6907,-1.6907,-1.6867,-1.6807,-1.6807,-1.6613,-1.6373,-1.6373,-1.6373,-1.6373,-1.6373,-1.6159,-1.5932,-1.5932,-1.5879,-1.5832,-1.5832,-1.5832,-1.5832,-1.5832,-1.5832,-1.5832,-1.5832,-1.5832,-1.5832,-1.5832,-1.5832,-1.5832,-1.5832,-1.5832,-1.5439,-1.4459,-1.4364,-1.4262,-1.3974,-1.3011,-1.2522,-1.2909,-1.1165,-0.941,-0.8038,-0.8038,-0.8038,-0.8038,-0.8038,-0.8038,-0.8038,-0.8038,-0.8038,-0.8038,-0.8038,-0.8038,-0.8038,-0.8038,-0.8038,-1.4088,-1.4088,-1.4088,-1.4088,-1.4088,-1.4088,0.0,0.0,0.0,0.0,0.0,0.0,0.0,0.0,0.0,0.0,0.0,0.0,0.0,0.0,0.0,0.0,0.0,0.0,0.0,0.0,0.0,0.0,0.0,0.0,0.0,-1.6633,-1.678,-1.6941,-1.6947,-1.7148,-1.7582,-1.7582,-1.7582,-1.7582,-1.7582,-1.7582,-1.7582,-1.7582,-1.7582,0.0,0.0,0.0,-1.7382,-1.7382,-1.7301,-1.7181,-1.7181,-1.7081,-1.6947,-1.6947,-1.684,-1.6707,-1.6707,-1.662,-1.6486,-1.6346,-1.6199,-1.6072,-1.6072,-1.6072,-1.6072,-1.6072,-1.5952,-1.5832,-1.5832,-1.5832,-1.5832,-1.5832,-1.5832,-1.5832,-1.5832,-1.5832,-1.5832,-1.5832,-1.5832,-1.5832,-1.5832,-1.5832,-1.5832,-1.5832,-1.5832,-1.554,-1.4854,-1.4752,-1.4561,-1.3968,-1.3295,-1.2813,-1.3006,-1.1165,-0.9706,-0.892,-0.892,-0.8627,-0.8038,-0.8038,-0.8038,-0.8038,-0.8038,-0.8038,-0.8038,-0.8038,-0.8038,-0.8038,-0.8038,-0.8038,-1.4088,-1.4088,-1.4088,-1.4088,-1.4088,-1.4088,0.0,0.0,0.0,0.0,0.0,0.0,0.0,0.0,0.0,0.0,0.0,0.0,0.0,0.0,0.0,0.0,0.0,0.0,0.0,0.0,0.0,0.0,0.0,0.0,0.0,-1.644,-1.6593,-1.664,-1.664,-1.6901,-1.7442,-1.7448,-1.7448,-1.7448,-1.7448,-1.7448,-1.7448,-1.7448,-1.7448,-1.7448,0.0,0.0,-1.7081,-1.7081,-1.6934,-1.6707,-1.6707,-1.6673,-1.664,-1.664,-1.6613,-1.6573,-1.6573,-1.6413,-1.6166,-1.5912,-1.5832,-1.5832,-1.5832,-1.5832,-1.5832,-1.5832,-1.5832,-1.5832,-1.5832,-1.5832,-1.5832,-1.5832,-1.5832,-1.5832,-1.5832,-1.5832,-1.5832,-1.5832,-1.5832,-1.5832,-1.5832,-1.5832,-1.5832,-1.5832,-1.5832,-1.573,-1.5534,-1.5534,-1.5146,-1.3974,-1.3878,-1.3392,-1.2334,-1.1263,-1.0386,-0.9998,-0.9805,-0.9217,-0.8038,-0.8038,-0.8038,-0.8038,-0.8038,-0.8038,-0.8038,-0.8038,-0.8038,-0.8038,-0.8038,-0.8038,-1.4088,-1.4088,-1.4088,-1.4088,-1.4088,-1.4088,0.0,0.0,0.0,0.0,0.0,0.0,0.0,0.0,0.0,0.0,0.0,0.0,0.0,0.0,0.0,0.0,0.0,0.0,0.0,0.0,0.0,0.0,0.0,0.0,0.0,-1.5939,-1.6079,-1.6333,-1.6339,-1.65,-1.684,-1.684,-1.684,-1.684,-1.684,-1.684,-1.684,-1.684,-1.684,-1.684,0.0,-1.6814,-1.6774,-1.6774,-1.6747,-1.6707,-1.6707,-1.6553,-1.6339,-1.6339,-1.6179,-1.5965,-1.5965,-1.5932,-1.5885,-1.5845,-1.5832,-1.5832,-1.5832,-1.5832,-1.5832,-1.5832,-1.5832,-1.5832,-1.5832,-1.5832,-1.5832,-1.5832,-1.5832,-1.5832,-1.5832,-1.5832,-1.5832,-1.5832,-1.5832,-1.5832,-1.5832,-1.5832,-1.5832,-1.5832,-1.5832,-1.5439,-1.4364,-1.4166,-1.4166,-1.3872,-1.3878,-1.3782,-1.359,-1.3392,-1.2328,-1.0096,-0.8924,-0.8237,-0.8038,-0.8038,-0.8038,-0.8038,-0.8038,-0.8038,-0.8038,-0.8038,-0.8038,-0.8038,-0.8038,-0.8038,-1.4088,-1.4088,-1.4088,-1.4088,-1.4088,-1.4088,0.0,0.0,0.0,0.0,0.0,0.0,0.0,0.0,0.0,0.0,0.0,0.0,0.0,0.0,0.0,0.0,0.0,0.0,0.0,0.0,0.0,0.0,0.0,0.0,0.0,0.0,-1.5892,-1.6025,-1.6032,-1.6099,-1.6233,-1.6233,-1.6393,-1.6707,-1.6707,-1.6707,-1.6707,-1.6707,-1.6707,-1.6707,0.0,-1.6613,-1.6473,-1.6473,-1.638,-1.6233,-1.6233,-1.6152,-1.6032,-1.6032,-1.5945,-1.5832,-1.5832,-1.5832,-1.5832,-1.5832,-1.5832,-1.5832,-1.5832,-1.5832,-1.5832,-1.5832,-1.5832,-1.5832,-1.5832,-1.5832,-1.5832,-1.5832,-1.5832,-1.5832,-1.5832,-1.5832,-1.5832,-1.5832,-1.5832,-1.5832,-1.5832,-1.5832,-1.5832,-1.5832,-1.5832,-1.5635,-1.5045,-1.4949,-1.4949,-1.4949,-1.4949,-1.4657,-1.3968,-1.3199,-1.2037,-1.0096,-0.8726,-0.8038,-0.8038,-0.8038,-0.8038,-0.8038,-0.8038,-0.8038,-0.8038,-0.8038,-0.8038,-0.8038,-0.8038,-0.8038,-1.4088,-1.4088,-1.4088,-1.4088,0.0,0.0,-1.4088,0.0,0.0,0.0,0.0,0.0,0.0,0.0,0.0,0.0,0.0,0.0,0.0,0.0,0.0,0.0,0.0,0.0,0.0,0.0,0.0,0.0,0.0,0.0,0.0,0.0,-1.5832,-1.5832,-1.5832,-1.5832,-1.5832,-1.5832,-1.6052,-1.65,-1.65,-1.65,-1.65,-1.65,-1.65,-1.65,-1.65,-1.6373,-1.6166,-1.6166,-1.6039,-1.5832,-1.5832,-1.5832,-1.5832,-1.5832,-1.5832,-1.5832,-1.5832,-1.5832,-1.5832,-1.5832,-1.5832,-1.5832,-1.5832,-1.5832,-1.5832,-1.5832,-1.5832,-1.5832,-1.5832,-1.5832,-1.5832,-1.5832,-1.5832,-1.5832,-1.5832,-1.5832,-1.5832,-1.5832,-1.5832,-1.5832,-1.5832,-1.5832,-1.5832,-1.5832,-1.5832,-1.5832,-1.5832,-1.5832,-1.5832,-1.5832,-1.5534,-1.4752,-1.3102,-1.1745,-1.0583,-0.9608,-0.8531,-0.8038,-0.8038,-0.8038,-0.8038,-0.8038,-0.8038,-0.8038,-0.8038,-0.8038,-0.8038,-0.8038,-0.8038,-0.8038,-1.4088,-1.4088,-1.4088,-1.4088,0.0,0.0,-1.4088,0.0,0.0,0.0,0.0,0.0,0.0,0.0,0.0,0.0,0.0,0.0,0.0,0.0,0.0,0.0,0.0,0.0,0.0,0.0,0.0,0.0,0.0,0.0,0.0,-1.5832,-1.5832,-1.5832,-1.5832,-1.5832,-1.5832,-1.5832,-1.5852,-1.5892,-1.5892,-1.5892,-1.5892,-1.5892,-1.5892,-1.5892,-1.5892,-1.5879,-1.5865,-1.5865,-1.5845,-1.5832,-1.5832,-1.5832,-1.5832,-1.5832,-1.5832,-1.5832,-1.5832,-1.5832,-1.5832,-1.5832,-1.5832,-1.5832,-1.5832,-1.5832,-1.5832,-1.5832,-1.5832,-1.5832,-1.5832,-1.5832,-1.5832,-1.5832,-1.5832,-1.5832,-1.5832,-1.5832,-1.5832,-1.5832,-1.5832,-1.5832,-1.5832,-1.5832,-1.5832,-1.5832,-1.5832,-1.5832,-1.5832,-1.5832,-1.5832,-1.5832,-1.4752,-1.3006,-1.0485,-0.9019,-0.8237,-0.8137,-0.8038,-0.8038,-0.8038,-0.8038,-0.8038,-0.8038,-0.8038,-0.8038,-0.8038,-0.8038,-0.8038,-0.8038,-0.8038,-0.8038,-1.4088,-1.4088,-1.4088,-1.4088,0.0,0.0,0.0,0.0,0.0,0.0,0.0,0.0,0.0,0.0,0.0,0.0,0.0,0.0,0.0,0.0,0.0,0.0,0.0,0.0,0.0,0.0,0.0,0.0,0.0,0.0,0.0,-1.5832,-1.5832,-1.5832,-1.5832,-1.5832,-1.5832,-1.5832,-1.5832,-1.5832,-1.5832,-1.5832,-1.5832,-1.5832,-1.5832,-1.5832,-1.5832,-1.5832,-1.5832,-1.5832,-1.5832,-1.5832,-1.5832,-1.5832,-1.5832,-1.5832,-1.5832,-1.5832,-1.5832,-1.5832,-1.5832,-1.5832,-1.5832,-1.5832,-1.5832,-1.5832,-1.5832,-1.5832,-1.5832,-1.5832,-1.5832,-1.5832,-1.5832,-1.5832,-1.5832,-1.5832,-1.5832,-1.5832,-1.5832,-1.5832,-1.5832,-1.5832,-1.5832,-1.5832,-1.5832,-1.5832,-1.5832,-1.5832,-1.5832,-1.5832,-1.5534,-1.4657,-1.2711,-1.1068,-1.0096,-0.8726,-0.8038,-0.8038,-0.8038,-0.8038,-0.8038,-0.8038,-0.8038,-0.8038,-0.8038,-0.8038,-0.8038,-0.8038,-0.8038,-0.8038,-0.8038,-0.8038,-1.4088,-1.4088,-1.4088,0.0,0.0,0.0,0.0,0.0,0.0,0.0,0.0,0.0,0.0,0.0,0.0,0.0,0.0,0.0,0.0,0.0,0.0,0.0,0.0,0.0,0.0,0.0,0.0,0.0,0.0,0.0,0.0,-1.5832,-1.5832,-1.5832,-1.5832,-1.5832,-1.5832,-1.5832,-1.5832,-1.5832,-1.5832,-1.5832,-1.5832,-1.5832,-1.5832,-1.5832,-1.5832,-1.5832,-1.5832,-1.5832,-1.5832,-1.5832,-1.5832,-1.5832,-1.5832,-1.5832,-1.5832,-1.5832,-1.5832,-1.5832,-1.5832,-1.5832,-1.5832,-1.5832,-1.5832,-1.5832,-1.5832,-1.5832,-1.5832,-1.5832,-1.5832,-1.5832,-1.5832,-1.5832,-1.5832,-1.5832,-1.5832,-1.5832,-1.5832,-1.5832,-1.5832,-1.5832,-1.5832,-1.5832,-1.5832,-1.5832,-1.5832,-1.5832,-1.5832,-1.5832,-1.5146,-1.3494,-1.1263,-0.9801,-0.941,-0.8531,-0.8038,-0.8038,-0.8038,-0.8038,-0.8038,-0.8038,-0.8038,-0.8038,-0.8038,-0.8038,-0.8038,-0.8038,-0.8038,-0.8038,-0.8038,-0.8038,-1.4088,-1.4088,0.0,0.0,0.0,0.0,0.0,0.0,0.0,0.0,0.0,0.0,0.0,0.0,0.0,0.0,0.0,0.0,0.0,0.0,0.0,0.0,0.0,0.0,0.0,0.0,0.0,0.0,0.0,0.0,0.0,-1.5832,-1.5832,-1.5832,-1.5832,-1.5832,-1.5832,-1.5832,-1.5832,-1.5832,-1.5832,-1.5832,-1.5832,-1.5832,-1.5832,-1.5832,-1.5832,-1.5832,-1.5832,-1.5832,-1.5832,-1.5832,-1.5832,-1.5832,-1.5832,-1.5832,-1.5832,-1.5832,-1.5832,-1.5832,-1.5832,-1.5832,-1.5832,-1.5832,-1.5832,-1.5832,-1.5832,-1.5832,-1.5832,-1.5832,-1.5832,-1.5832,-1.5832,-1.5832,-1.5832,-1.5832,-1.5832,-1.5832,-1.5832,-1.5832,-1.5832,-1.5832,-1.5832,-1.5832,-1.5832,-1.5832,-1.5832,-1.5832,-1.5825,-1.573,-1.4758,-1.2139,-1.0779,-0.941,-0.8137,-0.8038,-0.8038,-0.8038,-0.8038,-0.8038,-0.8038,-0.8038,-0.8038,-0.8038,-0.8038,-0.8038,-0.8038,-0.8038,-0.8038,-0.8038,-0.8038,-0.8038,-1.4334,0.0,0.0,0.0,0.0,0.0,0.0,0.0,0.0,0.0,0.0,0.0,0.0,0.0,0.0,0.0,0.0,0.0,0.0,0.0,0.0,0.0,0.0,0.0,0.0,0.0,0.0,0.0,0.0,0.0,0.0,-1.5832,-1.5832,-1.5832,-1.5832,-1.5832,-1.5832,-1.5832,-1.5832,-1.5832,-1.5832,-1.5832,-1.5832,-1.5832,-1.5832,-1.5832,-1.5832,-1.5832,-1.5832,-1.5832,-1.5832,-1.5832,-1.5832,-1.5832,-1.5832,-1.5832,-1.5832,-1.5832,-1.5832,-1.5832,-1.5832,-1.5832,-1.5832,-1.5832,-1.5832,-1.5832,-1.5832,-1.5832,-1.5832,-1.5832,-1.5832,-1.5832,-1.5832,-1.5832,-1.5832,-1.5832,-1.5832,-1.5832,-1.5832,-1.5832,-1.5832,-1.5832,-1.5832,-1.5832,-1.5832,-1.5832,-1.5832,-1.5439,-1.4561,-1.2909,-1.1458,-1.0681,-0.941,-0.8432,-0.8038,-0.8038,-0.8038,-0.8038,-0.8038,-0.8038,-0.8038,-0.8038,-0.8038,-0.8038,-0.8038,-0.8038,-0.8038,-0.8038,-0.8038,-0.8038,-0.8038,-0.8038,-1.425,0.0,0.0,0.0,0.0,0.0,0.0,0.0,0.0,0.0,0.0,0.0,0.0,0.0,0.0,0.0,0.0,0.0,0.0,0.0,0.0,0.0,0.0,0.0,0.0,0.0,0.0,0.0,0.0,0.0,0.0,-1.5832,-1.5832,-1.5832,-1.5832,-1.5832,-1.5832,-1.5832,-1.5832,-1.5832,-1.5832,-1.5832,-1.5832,-1.5832,-1.5832,-1.5832,-1.5832,-1.5832,-1.5832,-1.5832,-1.5832,-1.5832,-1.5832,-1.5832,-1.5832,-1.5832,-1.5832,-1.5832,-1.5832,-1.5832,-1.5832,-1.5832,-1.5832,-1.5832,-1.5832,-1.5832,-1.5832,-1.5832,-1.5832,-1.5832,-1.5832,-1.5832,-1.5832,-1.5832,-1.5832,-1.5832,-1.5832,-1.5832,-1.5832,-1.5832,-1.5832,-1.5832,-1.5832,-1.5832,-1.5832,-1.5832,-1.5337,-1.4752,-1.3974,-1.1648,-0.9998,-0.9998,-0.8825,-0.8038,-0.8038,-0.8038,-0.8038,-0.8038,-0.8038,-0.8038,-0.8038,-0.8038,-0.8038,-0.8038,-0.8038,-0.8038,-0.8038,-0.8038,-0.8038,-0.8038,-0.8038,-0.8007,0.0,0.0,0.0,0.0,0.0,0.0,0.0,0.0,0.0,0.0,0.0,0.0,0.0,0.0,0.0,0.0,0.0,0.0,0.0,0.0,0.0,0.0,0.0,0.0,0.0,0.0,0.0,0.0,0.0,0.0,0.0,-1.5832,-1.5832,-1.5832,-1.5832,-1.5832,-1.5832,-1.5832,-1.5832,-1.5832,-1.5832,-1.5832,-1.5832,-1.5832,-1.5832,-1.5832,-1.5832,-1.5832,-1.5832,-1.5832,-1.5832,-1.5832,-1.5832,-1.5832,-1.5832,-1.5832,-1.5832,-1.5832,-1.5832,-1.5832,-1.5832,-1.5832,-1.5832,-1.5832,-1.5832,-1.5832,-1.5832,-1.5832,-1.5832,-1.5832,-1.5832,-1.5832,-1.5832,-1.5832,-1.5832,-1.5832,-1.5832,-1.5832,-1.5832,-1.5832,-1.5832,-1.5832,-1.5832,-1.5832,-1.5832,-1.5832,-1.4657,-1.368,-1.368,-1.1453,-0.9805,-0.9805,-0.8726,-0.8038,-0.8038,-0.8038,-0.8038,-0.8038,-0.8038,-0.8038,-0.8038,-0.8038,-0.8038,-0.8038,-0.8038,-0.8038,-0.8038,-0.8038,-0.8038,-0.8038,-0.8024,-0.7943,0.0,0.0,0.0,0.0,0.0,0.0,0.0,0.0,0.0,0.0,0.0,0.0,0.0,0.0,0.0,0.0,0.0,0.0,0.0,0.0,0.0,0.0,0.0,0.0,0.0,0.0,0.0,0.0,0.0,0.0,-1.5832,-1.5832,-1.5832,-1.5832,-1.5832,-1.5832,-1.5832,-1.5832,-1.5832,0.0,-1.5832,-1.5832,-1.5832,-1.5832,-1.5832,-1.5832,-1.5832,-1.5832,-1.5832,-1.5832,-1.5832,-1.5832,-1.5832,-1.5832,-1.5832,-1.5832,-1.5832,-1.5832,-1.5832,-1.5832,-1.5832,-1.5832,-1.5832,-1.5832,-1.5832,-1.5832,-1.5832,-1.5832,-1.5832,-1.5832,-1.5832,-1.5832,-1.5832,-1.5832,-1.5832,-1.5832,-1.5832,-1.5832,-1.5832,-1.5832,-1.5832,-1.5832,-1.5832,-1.5832,-1.5832,-1.5832,-1.3788,-1.2334,-1.2334,-1.0092,-0.8432,-0.8432,-0.8137,-0.8038,-0.8038,-0.8038,-0.8038,-0.8038,-0.8038,-0.8038,-0.8038,-0.8038,-0.8038,-0.8038,-0.8038,-0.8038,-0.8038,-0.8038,-0.8038,-0.8035,-0.7916,-0.7841,0.0,0.0,0.0,0.0,0.0,0.0,0.0,0.0,0.0,0.0,0.0,0.0,0.0,0.0,0.0,0.0,0.0,0.0,0.0,0.0,0.0,0.0,0.0,0.0,0.0,0.0,0.0,0.0,0.0,-1.5832,-1.5832,-1.5832,-1.5832,-1.5832,-1.5832,-1.5832,-1.5832,-1.5832,-1.5832,-1.5832,-1.5832,-1.5832,-1.5832,-1.5832,-1.5832,-1.5832,-1.5832,-1.5832,-1.5832,-1.5832,-1.5832,-1.5832,-1.5832,-1.5832,-1.5832,-1.5832,-1.5832,-1.5832,-1.5832,-1.5832,-1.5832,-1.5832,-1.5832,-1.5832,-1.5832,-1.5832,-1.5832,-1.5832,-1.5832,-1.5832,-1.5832,-1.5832,-1.5832,-1.5832,-1.5832,-1.5832,-1.5832,-1.5832,-1.5832,-1.5832,-1.5832,-1.5635,-1.5045,-1.4854,-1.4854,-1.4854,-1.3204,-1.1653,-1.1072,-0.9213,-0.8038,-0.8038,-0.8038,-0.8038,-0.8038,-0.8038,-0.8038,-0.8038,-0.8038,-0.8038,-0.8038,-0.8038,-0.8038,-0.8038,-0.8038,-0.8038,-0.8038,-0.7967,-0.7929,-0.7926,-0.778,-0.7672,0.0,0.0,0.0,0.0,0.0,0.0,0.0,0.0,0.0,0.0,0.0,0.0,0.0,0.0,0.0,0.0,0.0,0.0,0.0,0.0,0.0,0.0,0.0,0.0,0.0,0.0,0.0,0.0,0.0,-1.5832,-1.5832,-1.5832,-1.5832,-1.5832,-1.5832,-1.5832,-1.5832,-1.5832,-1.5832,-1.5832,-1.5832,-1.5832,-1.5832,-1.5832,-1.5832,-1.5832,-1.5832,-1.5832,-1.5832,-1.5832,-1.5832,-1.5832,-1.5832,-1.5832,-1.5832,-1.5832,-1.5832,-1.5832,-1.5832,-1.5832,-1.5832,-1.5832,-1.5832,-1.5832,-1.5832,-1.5832,-1.5832,-1.5832,-1.5832,-1.5832,-1.5832,-1.5832,-1.5832,-1.5832,-1.5832,-1.5832,-1.5832,-1.5832,-1.5832,-1.5832,-1.5635,-1.514,-1.407,-1.3686,-1.3584,-1.3584,-1.2431,-1.117,-1.0096,-0.8825,-0.8038,-0.8038,-0.8237,-0.8333,-0.8333,-0.8528,-0.8627,-0.8333,-0.8333,-0.8237,-0.8038,-0.8014,-0.8001,-0.8001,-0.8001,-0.8001,-0.7997,-0.7848,-0.7773,-0.777,-0.7628,-0.7492,0.0,0.0,0.0,0.0,0.0,0.0,0.0,0.0,0.0,0.0,0.0,0.0,0.0,0.0,0.0,0.0,0.0,0.0,0.0,0.0,0.0,0.0,0.0,0.0,0.0,0.0,0.0,0.0,-1.5832,-1.5832,-1.5832,-1.5832,-1.5832,-1.5832,-1.5832,-1.5832,-1.5832,-1.5832,-1.5832,-1.5832,-1.5832,-1.5832,-1.5832,-1.5832,-1.5832,-1.5832,-1.5832,-1.5832,-1.5832,-1.5832,-1.5832,-1.5832,-1.5832,-1.5832,-1.5832,-1.5832,-1.5832,-1.5832,-1.5832,-1.5832,-1.5832,-1.5832,-1.5832,-1.5832,-1.5832,-1.5832,-1.5832,-1.5832,-1.5832,-1.5832,-1.5832,-1.5832,-1.5832,-1.5832,-1.5832,-1.5832,-1.5832,-1.5832,-1.5832,-1.5832,-1.4949,-1.407,-1.3974,-1.2909,-1.2139,-1.2139,-1.1068,-1.0194,-0.9998,-0.8825,-0.8038,-0.8038,-0.9019,-0.9706,-0.9706,-1.0779,-1.0877,-0.9805,-0.9706,-0.9217,-0.8038,-0.7913,-0.7841,-0.7841,-0.7841,-0.7841,-0.7841,-0.7699,-0.7628,-0.7624,-0.7472,-0.739,0.0,0.0,0.0,0.0,0.0,0.0,0.0,0.0,0.0,0.0,0.0,0.0,0.0,0.0,0.0,0.0,0.0,0.0,0.0,0.0,0.0,0.0,0.0,0.0,0.0,0.0,0.0,0.0,-1.5832,-1.5832,-1.5832,-1.5832,-1.5832,-1.5832,-1.5832,-1.5832,-1.5832,-1.5832,-1.5832,-1.5832,-1.5832,-1.5832,-1.5832,-1.5832,-1.5832,-1.5832,-1.5832,-1.5832,-1.5832,-1.5832,-1.5832,-1.5832,-1.5832,-1.5832,-1.5832,-1.5832,-1.5832,-1.5832,-1.5832,-1.5832,-1.5832,-1.5832,-1.5832,-1.5832,-1.5832,-1.5832,-1.5832,-1.5832,-1.5832,-1.5832,-1.5832,-1.5832,-1.5832,-1.5832,-1.5832,-1.5832,-1.5832,-1.5832,-1.5635,-1.4848,-1.3686,-1.2818,-1.2818,-1.1653,-1.0877,-1.0877,-1.0974,-1.0779,-1.0096,-1.0092,-1.019,-1.019,-1.0681,-1.1072,-1.1072,-1.0877,-1.0583,-0.9998,-0.9221,-0.8492,-0.7913,-0.777,-0.7692,-0.7692,-0.7692,-0.7692,-0.7692,-0.7543,-0.7472,-0.7468,-0.7316,-0.7241,0.0,0.0,0.0,0.0,0.0,0.0,0.0,0.0,0.0,0.0,0.0,0.0,0.0,0.0,0.0,0.0,0.0,0.0,0.0,0.0,0.0,0.0,0.0,0.0,0.0,0.0,0.0,0.0,-1.5832,-1.5832,-1.5832,-1.5832,-1.5832,-1.5832,-1.5832,-1.5832,-1.5832,-1.5832,-1.5832,-1.5832,-1.5832,-1.5832,-1.5832,-1.5832,-1.5832,-1.5832,-1.5832,-1.5832,-1.5832,-1.5832,-1.5832,-1.5832,-1.5832,-1.5832,-1.5832,-1.5832,-1.5832,-1.5832,-1.5832,-1.5832,-1.5832,-1.5832,-1.5832,-1.5832,-1.5832,-1.5832,-1.5832,-1.5832,-1.5832,-1.5832,-1.5832,-1.5832,-1.5832,-1.5832,-1.5832,-1.5832,-1.5832,-1.5832,-1.5534,-1.4555,-1.3295,-1.2431,-1.2431,-1.1361,-1.0485,-1.0485,-1.1263,-1.1556,-1.0583,-1.1263,-1.1945,-1.1945,-1.2088,-1.2245,-1.2245,-1.1616,-1.1009,-1.0338,-0.9344,-0.842,-0.7756,-0.7617,-0.7543,-0.7543,-0.7502,-0.7502,-0.7543,-0.7387,-0.7312,-0.7309,-0.7193,-0.7139,0.0,0.0,0.0,0.0,0.0,0.0,0.0,0.0,0.0,0.0,0.0,0.0,0.0,0.0,0.0,0.0,0.0,0.0,0.0,0.0,0.0,0.0,0.0,0.0,0.0,0.0,0.0,0.0,-1.5832,-1.5832,-1.5832,-1.5832,-1.5832,-1.5832,-1.5832,-1.5832,-1.5832,-1.5832,-1.5832,-1.5832,-1.5832,-1.5832,-1.5832,-1.5832,-1.5832,-1.5832,-1.5832,-1.5832,-1.5832,-1.5832,-1.5832,-1.5832,-1.5832,-1.5832,-1.5832,-1.5832,-1.5832,-1.5832,-1.5832,-1.5832,-1.5832,-1.5832,-1.5832,-1.5832,-1.5832,-1.5832,-1.5832,-1.5832,-1.5832,-1.5832,-1.5832,-1.5832,-1.5832,-1.5832,-1.5832,-1.5832,-1.5832,-1.5832,-1.5737,-1.573,-1.4657,-1.3776,-1.3776,-1.2716,-1.1755,-1.1755,-1.1848,-1.1853,-1.1848,-1.1848,-1.1945,-1.1945,-1.2707,-1.3315,-1.3315,-1.4226,-1.3713,-1.141,-1.1119,-1.0102,-0.7705,-0.7465,-0.7383,-0.7383,-0.7241,-0.7238,-0.7383,-0.7227,-0.7153,-0.7153,-0.7143,-0.7139,0.0,0.0,0.0,0.0,0.0,0.0,0.0,0.0,0.0,0.0,0.0,0.0,0.0,0.0,0.0,0.0,0.0,0.0,0.0,0.0,0.0,0.0,0.0,0.0,0.0,0.0,0.0,0.0,0.0,-1.5832,-1.5832,-1.5832,-1.5832,-1.5832,-1.5832,-1.5832,-1.5832,-1.5832,-1.5832,-1.5832,-1.5832,-1.5832,-1.5832,-1.5832,-1.5832,-1.5832,-1.5832,-1.5832,-1.5832,-1.5832,-1.5832,-1.5832,-1.5832,-1.5832,-1.5832,-1.5832,-1.5832,-1.5832,-1.5832,-1.5832,-1.5832,-1.5832,-1.5705,-1.5551,-1.5551,-1.5424,-1.5277,-1.5277,-1.5277,-1.5277,-1.5277,-1.5277,-1.5277,-1.5277,-1.5277,-1.5277,-1.5277,-1.5565,-1.5481,-1.4427,-1.3914,-1.3285,-1.228,-1.1698,-1.1422,-1.1422,-1.2072,-1.2636,-1.2636,-1.3391,-1.3865,-1.3865,-1.4245,-1.4462,-1.4462,-1.3356,-1.229,-1.1375,-0.9692,-0.836,-0.7547,-0.7305,-0.7224,-0.7224,-0.717,-0.7166,-0.7221,-0.7166,-0.7139,-0.7139,-0.7139,-0.7139,0.0,0.0,0.0,0.0,0.0,0.0,0.0,0.0,0.0,0.0,0.0,0.0,0.0,0.0,0.0,0.0,0.0,0.0,0.0,0.0,0.0,0.0,0.0,0.0,0.0,0.0,0.0,0.0,0.0,0.0,-1.5832,-1.5832,-1.5832,-1.5832,-1.5832,-1.5832,-1.5832,-1.5832,-1.5832,-1.5832,-1.5832,-1.5832,-1.5832,-1.5832,-1.5832,-1.5818,-1.5725,-1.5738,-1.5832,-1.5832,-1.5832,-1.5832,-1.5832,-1.5765,-1.5685,-1.5685,-1.5625,-1.5538,-1.5538,-1.5538,-1.5538,-1.5538,-1.5404,-1.5251,-1.5251,-1.5117,-1.4963,-1.4963,-1.4963,-1.4963,-1.4963,-1.4963,-1.4963,-1.4963,-1.4963,-1.4963,-1.4963,-1.5264,-1.5192,-1.4149,-1.3927,-1.3591,-1.2586,-1.2376,-1.2376,-1.2376,-1.3109,-1.3664,-1.3664,-1.4405,-1.4963,-1.4963,-1.4877,-1.4816,-1.4816,-1.3272,-1.2048,-1.1684,-0.9669,-0.8271,-0.7919,-0.7371,-0.7139,-0.7139,-0.7139,-0.7139,-0.7139,-0.7139,-0.7139,-0.7139,-0.7139,-0.7139,0.0,0.0,0.0,0.0,0.0,0.0,0.0,0.0,0.0,0.0,0.0,0.0,0.0,0.0,0.0,0.0,0.0,0.0,0.0,0.0,0.0,0.0,0.0,0.0,0.0,0.0,0.0,0.0,-1.5832,-1.5832,-1.5832,-1.5832,-1.5832,-1.5832,-1.5832,-1.5832,-1.5832,-1.5832,-1.5832,-1.5832,-1.5818,-1.5812,-1.5812,-1.5805,-1.5805,-1.5792,-1.5504,-1.5545,-1.5805,-1.5805,-1.5805,-1.5805,-1.5805,-1.5631,-1.5384,-1.5384,-1.5204,-1.4963,-1.4963,-1.4963,-1.4963,-1.4963,-1.4957,-1.495,-1.495,-1.4943,-1.4937,-1.4937,-1.4937,-1.4937,-1.4937,-1.4937,-1.4937,-1.4937,-1.4937,-1.4937,-1.4937,-1.4937,-1.4943,-1.495,-1.495,-1.495,-1.4937,-1.4937,-1.4937,-1.4937,-1.4937,-1.4937,-1.4937,-1.4937,-1.4937,-1.4937,-1.4676,-1.4502,-1.4502,-1.4249,-1.3555,-1.2413,-1.1209,-1.0009,-0.8978,-0.7753,-0.7139,-0.7139,-0.7139,-0.7139,-0.7139,-0.7139,-0.7139,-0.7139,-0.7139,-0.7139,-2.0566,0.0,0.0,0.0,0.0,0.0,0.0,0.0,0.0,0.0,0.0,0.0,0.0,0.0,0.0,0.0,0.0,0.0,0.0,0.0,0.0,0.0,0.0,0.0,0.0,0.0,0.0,0.0,-1.5832,-1.5832,-1.5832,-1.5832,-1.5832,-1.5832,-1.5832,-1.5832,-1.5832,-1.5832,-1.5832,-1.5825,-1.5618,-1.5518,-1.5504,-1.5297,-1.5204,-1.5197,-1.5117,-1.513,-1.5204,-1.5204,-1.5204,-1.5204,-1.5204,-1.5157,-1.5084,-1.5084,-1.503,-1.4963,-1.4963,-1.4963,-1.4963,-1.4963,-1.4823,-1.4643,-1.4643,-1.4496,-1.4329,-1.4329,-1.4329,-1.4329,-1.4329,-1.4329,-1.4329,-1.4329,-1.4329,-1.4329,-1.4329,-1.4329,-1.4396,-1.4603,-1.4643,-1.4576,-1.4362,-1.4329,-1.4329,-1.4329,-1.4329,-1.4329,-1.4329,-1.4329,-1.4329,-1.4329,-1.4255,-1.4208,-1.4208,-1.3338,-1.2674,-1.2328,-1.0438,-0.9235,-0.889,-0.7753,-0.7139,-0.7139,-0.7139,-0.7139,-0.7139,-0.7139,-0.7139,-0.7139,-0.7139,-0.7139,0.0,0.0,0.0,0.0,0.0,0.0,-2.0566,-2.0566,0.0,0.0,0.0,0.0,0.0,0.0,0.0,0.0,0.0,0.0,0.0,0.0,0.0,0.0,0.0,0.0,0.0,-1.8411,-1.8133,-1.739,-1.7296,-1.7117,-1.6662,-1.6574,-1.6331,-1.5651,-1.5651,-1.5591,-1.5471,-1.5471,-1.5471,-1.5464,-1.5297,-1.5217,-1.5211,-1.5037,-1.4963,-1.4957,-1.4836,-1.4776,-1.477,-1.4649,-1.4743,-1.4963,-1.4963,-1.4883,-1.4776,-1.4776,-1.4703,-1.4596,-1.4596,-1.4596,-1.4596,-1.4596,-1.4482,-1.4342,-1.4342,-1.4222,-1.4088,-1.4088,-1.4088,-1.4088,-1.4088,-1.4088,-1.4088,-1.4088,-1.4088,-1.4088,-1.4088,-1.4088,-1.4135,-1.4309,-1.4342,-1.4282,-1.4115,-1.4088,-1.4088,-1.4088,-1.4088,-1.4088,-1.4088,-1.4088,-1.4088,-1.4088,-1.4088,-1.4088,-1.4088,-1.347,-1.2851,-1.2328,-1.0611,-0.9405,-0.889,-0.7753,-0.7139,-0.7139,-0.7139,-0.7312,-0.7841,-0.7316,-0.7404,-0.7841,-0.7316,-0.7404,0.0,0.0,0.0,0.0,0.0,0.0,-2.0566,-2.0566,-2.0566,0.0,0.0,0.0,0.0,0.0,0.0,0.0,0.0,0.0,0.0,0.0,0.0,0.0,0.0,0.0,-1.9554,-1.9554,-1.9463,-1.9373,-1.9373,-1.8835,-1.7665,-1.7579,-1.6892,-1.5357,-1.5351,-1.5224,-1.497,-1.4963,-1.4963,-1.4963,-1.493,-1.4917,-1.491,-1.4877,-1.4863,-1.485,-1.4589,-1.4476,-1.4449,-1.4195,-1.4396,-1.4863,-1.4863,-1.471,-1.4476,-1.4476,-1.4309,-1.4088,-1.4088,-1.4088,-1.4088,-1.4088,-1.4088,-1.4088,-1.4088,-1.4088,-1.4088,-1.4088,-1.4088,-1.4088,-1.4088,-1.4088,-1.4088,-1.4088,-1.4088,-1.4088,-1.4088,-1.4088,-1.4088,-1.4088,-1.4088,-1.4088,-1.4088,-1.4088,-1.4088,-1.4088,-1.4088,-1.4088,-1.4088,-1.4088,-1.4088,-1.4088,-1.4088,-1.4088,-1.4088,-1.4088,-1.3646,-1.2589,-1.1381,-1.0265,-0.9148,-0.7925,-0.7228,-0.7139,-0.7228,-0.7841,-0.889,-0.7925,-0.8013,-0.9061,-0.7841,-0.7841,0.0,0.0,0.0,0.0,0.0,0.0,-2.0566,-2.0566,-2.0566,0.0,0.0,0.0,0.0,0.0,0.0,0.0,0.0,0.0,0.0,0.0,0.0,0.0,0.0,0.0,-2.0004,-1.9909,-1.9488,-1.8543,-1.8455,-1.793,-1.6877,-1.6788,-1.6238,-1.514,-1.505,-1.5023,-1.4963,-1.4963,-1.4963,-1.4963,-1.4723,-1.4603,-1.4596,-1.4362,-1.4262,-1.4255,-1.4195,-1.4168,-1.4168,-1.4108,-1.4155,-1.4262,-1.4262,-1.4222,-1.4168,-1.4168,-1.4135,-1.4088,-1.4088,-1.4088,-1.4088,-1.4088,-1.4088,-1.4088,-1.4088,-1.4088,-1.4088,-1.4088,-1.4088,-1.4088,-1.4088,-1.4088,-1.4088,-1.4088,-1.4088,-1.4088,-1.4088,-1.4088,-1.4088,-1.4088,-1.4088,-1.4088,-1.4088,-1.4088,-1.4088,-1.4088,-1.4088,-1.4088,-1.4088,-1.4088,-1.4088,-1.4088,-1.4088,-1.4088,-1.4088,-1.4088,-1.3997,-1.373,-1.2595,-1.1466,-1.0351,-0.9148,-0.8105,-0.7139,-0.8017,-0.8627,-0.889,-0.9575,-1.0005,-1.0269,-0.9061,-0.8715,0.0,0.0,0.0,-2.0566,0.0,0.0,0.0,-2.0566,-2.0566,-2.0566,0.0,0.0,0.0,0.0,0.0,0.0,0.0,0.0,0.0,0.0,0.0,0.0,0.0,0.0,-2.0996,-2.0913,-2.0475,-1.9264,-1.9178,-1.8493,-1.6763,-1.6675,-1.6089,-1.475,-1.4743,-1.4676,-1.4529,-1.4522,-1.4522,-1.4522,-1.4376,-1.4302,-1.4302,-1.4155,-1.4088,-1.4088,-1.4088,-1.4088,-1.4088,-1.4088,-1.4088,-1.4088,-1.4088,-1.4088,-1.4088,-1.4088,-1.4088,-1.4088,-1.4088,-1.4088,-1.4088,-1.4088,-1.4088,-1.4088,-1.4088,-1.4088,-1.4088,-1.4088,-1.4088,-1.4088,-1.4088,-1.4088,-1.4088,-1.4088,-1.4088,-1.4088,-1.4088,-1.4088,-1.4088,-1.4088,-1.4088,-1.4088,-1.4088,-1.4088,-1.4088,-1.4088,-1.4088,-1.4088,-1.4088,-1.4088,-1.4088,-1.4088,-1.4088,-1.4088,-1.4088,-1.4088,-1.3822,-1.3203,-1.2589,-1.1809,-1.0611,-0.9492,-0.8627,-0.8017,-0.9744,-1.0611,-1.0611,-1.1735,-1.2083,-1.1381,-0.9666,-0.9235,0.0,0.0,0.0,0.0,0.0,-2.0566,0.0,0.0,0.0,-2.0566,0.0,0.0,0.0,0.0,0.0,0.0,0.0,0.0,0.0,0.0,0.0,0.0,0.0,0.0,0.0,-2.1631,-2.1274,-2.032,-2.0311,-1.9291,-1.7,-1.6914,-1.6117,-1.4442,-1.4436,-1.4322,-1.4088,-1.4088,-1.4088,-1.4088,-1.4088,-1.4088,-1.4088,-1.4088,-1.4088,-1.4088,-1.4088,-1.4088,-1.4088,-1.4088,-1.4088,-1.4088,-1.4088,-1.4088,-1.4088,-1.4088,-1.4088,-1.4088,-1.4088,-1.4088,-1.4088,-1.4088,-1.4088,-1.4088,-1.4088,-1.4088,-1.4088,-1.4088,-1.4088,-1.4088,-1.4088,-1.4088,-1.4088,-1.4088,-1.4088,-1.4088,-1.4088,-1.4088,-1.4088,-1.4088,-1.4088,-1.4088,-1.4088,-1.4088,-1.4088,-1.4088,-1.4088,-1.4088,-1.4088,-1.4088,-1.4088,-1.4088,-1.4088,-1.4088,-1.4088,-1.4088,-1.3646,-1.2681,-1.2674,-1.2157,-1.0956,-0.984,-0.9235,-0.9235,-1.1209,-1.2328,-1.2328,-1.347,-1.3561,-1.2589,-1.0269,-0.9753,0.0,0.0,0.0,0.0,-2.0566,0.0,0.0,0.0,-2.0566,-2.0566,0.0,0.0,0.0,0.0,0.0,0.0,0.0,0.0,0.0,0.0,0.0,0.0,0.0,0.0,0.0,-2.0713,-2.0713,-2.0546,-2.0546,-1.9571,-1.7376,-1.7212,-1.6299,-1.422,-1.4135,-1.4122,-1.4088,-1.4088,-1.4088,-1.4088,-1.4088,-1.4088,-1.4088,-1.4088,-1.4088,-1.4088,-1.4088,-1.4088,-1.4088,-1.4088,-1.4088,-1.4088,-1.4088,-1.4088,-1.4088,-1.4088,-1.4088,-1.4088,-1.4088,-1.4088,-1.4088,-1.4088,-1.4088,-1.4088,-1.4088,-1.4088,-1.4088,-1.4088,-1.4088,-1.4088,-1.4088,-1.4088,-1.4088,-1.4088,-1.4088,-1.4088,-1.4088,-1.4088,-1.4088,-1.4088,-1.4088,-1.4088,-1.4088,-1.4088,-1.4088,-1.4088,-1.4088,-1.4088,-1.4088,-1.4088,-1.4088,-1.4088,-1.4088,-1.4088,-1.4088,-1.4088,-1.3997,-1.3906,-1.3913,-1.3379,-1.2157,-1.1042,-1.0438,-1.0438,-1.1638,-1.2328,-1.2328,-1.347,-1.4004,-1.3822,-1.1477,-1.0438,0.0,0.0,0.0,0.0,0.0,0.0,-2.0566,0.0,-2.0566,0.0,0.0,0.0,0.0,0.0,0.0,0.0,-2.0449,0.0,0.0,0.0,0.0,0.0,0.0,0.0,0.0,0.0,0.0,0.0,-1.9678,-1.8957,-1.7415,-1.6683,-1.5951,-1.5054,-1.4412,-1.4088,-1.4088,-1.4088,-1.4088,-1.4088,-1.4088,-1.4088,-1.4088,-1.4088,-1.4088,-1.4088,-1.4088,-1.4088,-1.4088,-1.4088,-1.4088,-1.4088,-1.4088,-1.4088,-1.4088,-1.4088,-1.4088,-1.4088,-1.4088,-1.4088,-1.4088,-1.4088,-1.4088,-1.4088,-1.4088,-1.4088,-1.4088,-1.4088,-1.4088,-1.4088,-1.4088,-1.4088,-1.4088,-1.4088,-1.4088,-1.4088,-1.4088,-1.4088,-1.4088,-1.4088,-1.4088,-1.4088,-1.4088,-1.4088,-1.4088,-1.4088,-1.4088,-1.4088,-1.4088,-1.4088,-1.4088,-1.4088,-1.4088,-1.4088,-1.4088,-1.4088,-1.4088,-1.4088,-1.4088,-1.3555,-1.2328,-1.251,-1.2339,-1.1638,-1.2772,-1.3379,-1.3379,-1.3822,-1.4088,-1.4088,-1.2339,-1.1209,-2.0566,0.0,0.0,0.0,0.0,0.0,0.0,0.0,0.0,0.0,0.0,0.0,0.0,0.0,0.0,0.0,0.0,0.0,0.0,0.0,0.0,0.0,0.0,0.0,0.0,0.0,0.0,-1.952,-1.9441,-1.8957,-1.7827,-1.7001,-1.6437,-1.6191,-1.5144,-1.4573,-1.4573,-1.425,-1.4088,-1.4088,-1.4088,-1.4088,-1.4088,-1.4088,-1.4088,-1.4088,-1.4088,-1.4088,-1.4088,-1.4088,-1.4088,-1.4088,-1.4088,-1.4088,-1.4088,-1.4088,-1.4088,-1.4088,-1.4088,-1.4088,-1.4088,-1.4088,-1.4088,-1.4088,-1.4088,-1.4088,-1.4088,-1.4088,-1.4088,-1.4088,-1.4088,-1.4088,-1.4088,-1.4088,-1.4088,-1.4088,-1.4088,-1.4088,-1.4088,-1.4088,-1.4088,-1.4088,-1.4088,-1.4088,-1.4088,-1.4088,-1.4088,-1.4088,-1.4088,-1.4088,-1.4088,-1.4088,-1.4088,-1.4088,-1.4088,-1.4088,-1.4088,-1.4088,-1.4088,-1.373,-1.2851,-1.3646,-1.373,-1.2851,-1.3646,-1.4088,-1.4088,-1.4088,-1.4088,-1.4088,-1.251,-1.1381,0.0,0.0,0.0,-2.0566,0.0,0.0,0.0,0.0,-2.0566,0.0,0.0,0.0,0.0,0.0,0.0,0.0,0.0,0.0,0.0,0.0,0.0,0.0,0.0,0.0,0.0,0.0,0.0,-2.0557,-2.0566,-2.0079,-1.9036,-1.8877,-1.839,-1.7261,-1.6191,-1.5621,-1.5621,-1.4657,-1.4088,-1.4088,-1.4088,-1.4088,-1.4088,-1.4088,-1.4088,-1.4088,-1.4088,-1.4088,-1.4088,-1.4088,-1.4088,-1.4088,-1.4088,-1.4088,-1.4088,-1.4088,-1.4088,-1.4088,-1.4088,-1.4088,-1.4088,-1.4088,-1.4088,-1.4088,-1.4088,-1.4088,-1.4088,-1.4088,-1.4088,-1.4088,-1.4088,-1.4088,-1.4088,-1.4088,-1.4088,-1.4088,-1.4088,-1.4088,-1.4088,-1.4088,-1.4088,-1.4088,-1.4088,-1.4088,-1.4088,-1.4088,-1.4088,-1.4088,-1.4088,-1.4088,-1.4088,-1.4088,-1.4088,-1.4088,-1.4088,-1.4088,-1.4088,-1.4088,-1.4088,-1.4088,-1.3997,-1.4088,-1.4088,-1.3997,-1.4088,-1.4088,-1.4088,-1.4088,-1.4088,-1.3997,-1.1735,-1.0611,0.0,0.0,-2.0566,-2.0566,0.0,0.0,0.0,0.0,0.0,0.0,0.0,0.0,0.0,0.0,0.0,0.0,0.0,0.0,0.0,0.0,0.0,0.0,0.0,0.0,0.0,0.0,0.0,-2.0566,-2.0566,-2.0401,-2.0079,-1.9362,-1.8798,-1.847,-1.6675,-1.5696,-1.5696,-1.4657,-1.4088,-1.4088,-1.4088,-1.4088,-1.4088,-1.4088,-1.4088,-1.4088,-1.4088,-1.4088,-1.4088,-1.4088,-1.4088,-1.4088,-1.4088,-1.4088,-1.4088,-1.4088,-1.4088,-1.4088,-1.4088,-1.4088,-1.4088,-1.4088,-1.4088,-1.4088,-1.4088,-1.4088,-1.4088,-1.4088,-1.4088,-1.4088,-1.4088,-1.4088,-1.4088,-1.4088,-1.4088,-1.4088,-1.4088,-1.4088,-1.4088,-1.4088,-1.4088,-1.4088,-1.4088,-1.4088,-1.4088,-1.4088,-1.4088,-1.4088,-1.4088,-1.4088,-1.4088,-1.4088,-1.4088,-1.4088,-1.4088,-1.4088,-1.4088,-1.4088,-1.4088,-1.4088,-1.4088,-1.4088,-1.4088,-1.4088,-1.4088,-1.4088,-1.4088,-1.4088,-1.4088,-1.4088,-1.251,-1.1724,-2.0605,-2.0566,0.0,-2.0566,-2.0566,0.0,-2.0566,0.0,-2.0566,0.0,0.0,0.0,0.0,0.0,0.0,0.0,0.0,0.0,0.0,-2.0566,0.0,0.0,0.0,0.0,0.0,0.0,-2.0566,-2.0566,-2.0566,-2.0566,0.0,0.0,-1.9599,-1.9599,-1.7407,-1.6273,-1.6273,-1.4817,-1.4088,-1.4088,-1.4088,-1.4088,-1.4088,-1.4088,-1.4088,-1.4088,-1.4088,-1.4088,-1.4088,-1.4088,-1.4088,-1.4088,-1.4088,-1.4088,-1.4088,-1.4088,-1.4088,-1.4088,-1.4088,-1.4088,-1.4088,-1.4088,-1.4088,-1.4088,-1.4088,-1.4088,-1.4088,-1.4088,-1.4088,-1.4088,-1.4088,-1.4088,-1.4088,-1.4088,-1.4088,-1.4088,-1.4088,-1.4088,-1.4088,-1.4088,-1.4088,-1.4088,-1.4088,-1.4088,-1.4088,-1.4088,-1.4088,-1.4088,-1.4088,-1.4088,-1.4088,-1.4088,-1.4088,-1.4088,-1.4088,-1.4088,-1.4088,-1.4088,-1.4088,-1.4088,-1.4088,-1.4088,-1.4088,-1.4088,-1.4088,-1.4088,-1.4088,-1.4088,-1.4088,-1.4088,-1.3294,-1.2942]},{"header":{"parameterUnit":"m.s-1","parameterCategory":1,"la1":30.6,"la2":29.2853,"lo1":-89.7004,"lo2":-87.6739,"dy":0.0162,"dx":0.0183,"nx":112,"ny":82,"refTime":"2023-07-31T00:00:00:Z","depth":0,"parameterNumber":3,"parameterNumberName":"V-component_of_WINDS"},"data":[0.0,0.0,0.0,0.0,0.0,0.0,0.0,0.0,0.0,0.0,0.0,0.0,0.0,0.0,0.0,0.0,0.0,0.0,0.0,0.0,0.0,0.0,0.0,0.0,0.0,0.0,0.0,0.0,0.0,0.0,0.0,0.0,0.0,0.0,0.0,0.0,0.0,0.0,0.0,0.0,0.0,0.0,0.0,0.0,0.0,0.0,0.0,0.0,0.0,0.0,0.0,0.0,0.0,0.0,0.0,0.0,0.0,0.0,0.0,0.0,0.0,0.0,0.0,0.0,0.0,0.0,0.0,0.0,0.0,0.0,0.0,0.0,0.0,0.0,0.0,0.0,0.0,0.0,0.0,0.0,0.0,0.0,0.0,0.0,0.0,0.0,0.0,0.0,0.0,0.0,-3.3353,-3.3489,-3.3436,-3.3451,-3.3604,-3.3481,-3.3427,-3.3492,0.0,0.0,0.0,0.0,0.0,0.0,0.0,0.0,0.0,0.0,0.0,0.0,0.0,0.0,0.0,0.0,0.0,0.0,0.0,0.0,0.0,0.0,0.0,0.0,0.0,0.0,0.0,0.0,0.0,0.0,0.0,0.0,0.0,0.0,0.0,0.0,0.0,0.0,0.0,0.0,0.0,0.0,0.0,0.0,0.0,0.0,0.0,0.0,0.0,0.0,0.0,0.0,0.0,0.0,0.0,0.0,0.0,0.0,0.0,0.0,0.0,0.0,0.0,0.0,0.0,0.0,0.0,0.0,0.0,0.0,0.0,0.0,0.0,0.0,0.0,0.0,0.0,0.0,0.0,0.0,0.0,0.0,0.0,0.0,0.0,0.0,0.0,0.0,0.0,0.0,0.0,0.0,0.0,0.0,0.0,0.0,0.0,0.0,0.0,0.0,0.0,0.0,0.0,0.0,-3.3574,-3.4318,-3.4345,-3.4638,-3.5415,-3.4753,-3.4323,-3.4391,0.0,0.0,0.0,0.0,0.0,0.0,0.0,0.0,0.0,0.0,0.0,0.0,0.0,0.0,0.0,0.0,0.0,0.0,0.0,0.0,0.0,0.0,0.0,0.0,0.0,0.0,0.0,0.0,0.0,0.0,0.0,0.0,0.0,0.0,0.0,0.0,0.0,0.0,0.0,0.0,0.0,0.0,0.0,0.0,0.0,0.0,0.0,0.0,0.0,0.0,0.0,0.0,0.0,0.0,0.0,0.0,0.0,0.0,0.0,0.0,0.0,0.0,0.0,0.0,0.0,0.0,0.0,0.0,0.0,0.0,0.0,0.0,0.0,0.0,0.0,0.0,0.0,0.0,0.0,0.0,0.0,0.0,0.0,0.0,0.0,0.0,0.0,0.0,0.0,0.0,0.0,0.0,0.0,0.0,0.0,0.0,0.0,0.0,0.0,0.0,0.0,0.0,0.0,-3.4785,-3.4916,-3.5315,-3.533,-3.5496,-3.5918,-3.5552,-3.5338,-3.5366,-3.4988,0.0,0.0,0.0,0.0,0.0,0.0,0.0,0.0,0.0,0.0,0.0,0.0,0.0,0.0,0.0,0.0,0.0,0.0,0.0,0.0,0.0,0.0,0.0,0.0,0.0,0.0,0.0,0.0,0.0,0.0,0.0,0.0,0.0,0.0,0.0,0.0,0.0,0.0,0.0,0.0,0.0,0.0,0.0,0.0,0.0,0.0,0.0,0.0,0.0,0.0,0.0,0.0,0.0,0.0,0.0,0.0,0.0,0.0,0.0,0.0,0.0,0.0,0.0,0.0,0.0,0.0,0.0,0.0,0.0,0.0,0.0,0.0,0.0,0.0,0.0,0.0,0.0,0.0,0.0,0.0,0.0,0.0,0.0,0.0,0.0,0.0,0.0,0.0,0.0,0.0,0.0,0.0,0.0,0.0,0.0,0.0,0.0,0.0,0.0,0.0,0.0,0.0,-3.5996,-3.5996,-3.5996,-3.5996,-3.5996,-3.5996,-3.6004,-3.6002,-3.5998,-3.5999,0.0,0.0,0.0,0.0,0.0,0.0,0.0,0.0,0.0,0.0,0.0,0.0,0.0,0.0,0.0,0.0,0.0,0.0,0.0,0.0,0.0,0.0,0.0,0.0,0.0,0.0,0.0,0.0,0.0,0.0,0.0,0.0,0.0,0.0,0.0,0.0,0.0,0.0,0.0,0.0,0.0,0.0,0.0,0.0,0.0,0.0,0.0,0.0,0.0,0.0,0.0,0.0,0.0,0.0,0.0,0.0,0.0,0.0,0.0,0.0,0.0,0.0,0.0,0.0,0.0,0.0,0.0,0.0,0.0,0.0,0.0,0.0,0.0,0.0,0.0,0.0,0.0,0.0,0.0,0.0,0.0,0.0,0.0,0.0,0.0,0.0,0.0,0.0,0.0,0.0,0.0,0.0,0.0,0.0,0.0,0.0,0.0,0.0,0.0,0.0,0.0,0.0,-3.5996,-3.5996,-3.5996,-3.5996,-3.5996,-3.5996,-3.5996,-3.5995,-3.5993,-3.5994,0.0,0.0,0.0,0.0,0.0,0.0,0.0,0.0,0.0,0.0,0.0,0.0,0.0,0.0,0.0,0.0,0.0,0.0,0.0,0.0,0.0,0.0,0.0,0.0,0.0,0.0,0.0,0.0,0.0,0.0,0.0,0.0,0.0,0.0,0.0,0.0,0.0,0.0,0.0,0.0,0.0,0.0,0.0,0.0,0.0,0.0,0.0,0.0,0.0,0.0,0.0,0.0,0.0,0.0,0.0,0.0,0.0,0.0,0.0,0.0,0.0,0.0,0.0,0.0,0.0,0.0,0.0,0.0,0.0,0.0,0.0,0.0,0.0,0.0,0.0,0.0,0.0,0.0,0.0,0.0,0.0,0.0,0.0,0.0,0.0,0.0,0.0,0.0,0.0,0.0,0.0,0.0,0.0,0.0,0.0,0.0,0.0,0.0,0.0,0.0,0.0,0.0,-3.5996,-3.5996,0.0,-3.5996,-3.5996,-3.5996,-3.5996,-3.5996,-3.5996,0.0,0.0,0.0,0.0,0.0,0.0,0.0,0.0,0.0,0.0,0.0,0.0,0.0,0.0,0.0,0.0,0.0,0.0,0.0,0.0,0.0,0.0,0.0,0.0,0.0,0.0,0.0,0.0,0.0,0.0,0.0,0.0,0.0,0.0,0.0,0.0,0.0,0.0,0.0,0.0,0.0,0.0,0.0,0.0,0.0,0.0,0.0,0.0,0.0,0.0,0.0,0.0,0.0,0.0,0.0,0.0,0.0,0.0,0.0,0.0,0.0,0.0,0.0,0.0,0.0,0.0,0.0,0.0,0.0,0.0,0.0,0.0,0.0,0.0,0.0,0.0,0.0,0.0,0.0,0.0,0.0,0.0,0.0,0.0,0.0,0.0,0.0,0.0,0.0,0.0,0.0,0.0,0.0,0.0,0.0,0.0,0.0,0.0,0.0,0.0,0.0,0.0,-3.5996,-3.5996,-3.5996,0.0,-3.5996,-3.5996,-3.5996,-3.5996,-3.5996,-3.5996,0.0,0.0,0.0,0.0,0.0,0.0,0.0,0.0,0.0,0.0,0.0,0.0,0.0,0.0,0.0,0.0,0.0,0.0,0.0,0.0,0.0,0.0,0.0,0.0,0.0,0.0,0.0,0.0,0.0,0.0,0.0,0.0,0.0,0.0,0.0,0.0,0.0,0.0,0.0,0.0,0.0,0.0,0.0,0.0,0.0,0.0,0.0,0.0,0.0,0.0,0.0,0.0,0.0,0.0,0.0,0.0,0.0,0.0,0.0,0.0,0.0,0.0,0.0,0.0,0.0,0.0,0.0,0.0,0.0,0.0,0.0,0.0,0.0,0.0,0.0,0.0,0.0,0.0,0.0,0.0,0.0,0.0,0.0,0.0,0.0,0.0,0.0,0.0,0.0,0.0,0.0,0.0,0.0,0.0,0.0,0.0,0.0,0.0,0.0,0.0,0.0,0.0,-3.5996,-3.5996,-3.5996,-3.5996,-3.5996,-3.5996,-3.5996,-3.5996,-3.5996,0.0,0.0,0.0,0.0,0.0,0.0,0.0,0.0,0.0,0.0,0.0,0.0,0.0,0.0,0.0,0.0,0.0,0.0,0.0,0.0,0.0,0.0,0.0,0.0,0.0,0.0,0.0,0.0,0.0,0.0,0.0,0.0,0.0,0.0,0.0,0.0,0.0,0.0,0.0,0.0,0.0,0.0,0.0,0.0,0.0,0.0,0.0,0.0,0.0,0.0,0.0,0.0,0.0,0.0,0.0,0.0,0.0,0.0,0.0,0.0,0.0,0.0,0.0,0.0,0.0,0.0,0.0,0.0,0.0,0.0,0.0,0.0,0.0,0.0,0.0,0.0,0.0,0.0,0.0,0.0,0.0,0.0,0.0,0.0,0.0,0.0,0.0,0.0,0.0,0.0,0.0,0.0,0.0,0.0,0.0,0.0,0.0,0.0,0.0,0.0,0.0,0.0,0.0,-3.5941,-3.584,-3.5792,-3.5792,-3.5792,-3.5792,-3.5792,-3.5792,-3.5825,-3.5918,0.0,0.0,0.0,0.0,0.0,0.0,0.0,0.0,0.0,0.0,0.0,0.0,0.0,0.0,0.0,0.0,0.0,0.0,0.0,0.0,0.0,0.0,0.0,0.0,0.0,0.0,0.0,0.0,0.0,0.0,0.0,0.0,0.0,0.0,0.0,0.0,0.0,0.0,0.0,0.0,0.0,0.0,0.0,0.0,0.0,0.0,0.0,0.0,0.0,0.0,0.0,0.0,0.0,0.0,0.0,0.0,0.0,0.0,0.0,0.0,0.0,0.0,0.0,0.0,0.0,0.0,0.0,0.0,0.0,0.0,0.0,0.0,0.0,0.0,0.0,0.0,0.0,0.0,0.0,0.0,0.0,0.0,0.0,0.0,0.0,0.0,0.0,0.0,0.0,0.0,0.0,0.0,0.0,0.0,0.0,0.0,0.0,0.0,0.0,0.0,0.0,0.0,-3.6344,-3.6296,-3.6358,-3.6697,-3.6736,-3.6736,-3.6736,-3.6736,-3.6626,-3.6351,0.0,0.0,0.0,0.0,0.0,0.0,0.0,0.0,0.0,0.0,0.0,0.0,0.0,0.0,0.0,0.0,0.0,0.0,0.0,0.0,0.0,0.0,0.0,0.0,0.0,0.0,0.0,0.0,0.0,0.0,0.0,0.0,0.0,0.0,0.0,0.0,0.0,0.0,0.0,0.0,0.0,0.0,0.0,0.0,0.0,0.0,0.0,0.0,0.0,0.0,0.0,0.0,0.0,0.0,0.0,0.0,0.0,0.0,0.0,0.0,0.0,0.0,0.0,0.0,0.0,0.0,0.0,0.0,0.0,0.0,0.0,0.0,0.0,0.0,0.0,0.0,0.0,0.0,0.0,0.0,0.0,0.0,0.0,0.0,0.0,0.0,0.0,0.0,0.0,0.0,0.0,0.0,0.0,0.0,0.0,0.0,0.0,0.0,0.0,0.0,0.0,0.0,-3.7107,-3.7122,-3.7397,-3.818,-3.8272,-3.8272,-3.8272,-3.8272,-3.7945,-3.7151,0.0,0.0,0.0,0.0,0.0,0.0,0.0,0.0,0.0,0.0,0.0,0.0,0.0,0.0,0.0,0.0,0.0,0.0,0.0,0.0,0.0,0.0,0.0,0.0,0.0,0.0,0.0,0.0,0.0,0.0,0.0,0.0,0.0,0.0,0.0,0.0,0.0,0.0,0.0,0.0,0.0,0.0,0.0,0.0,0.0,0.0,0.0,0.0,0.0,0.0,0.0,0.0,0.0,0.0,0.0,0.0,0.0,0.0,0.0,0.0,-3.5493,0.0,0.0,0.0,0.0,0.0,0.0,0.0,0.0,0.0,0.0,0.0,0.0,0.0,0.0,0.0,0.0,0.0,0.0,0.0,0.0,0.0,0.0,0.0,0.0,0.0,0.0,0.0,0.0,0.0,0.0,0.0,0.0,0.0,0.0,0.0,0.0,0.0,0.0,0.0,0.0,0.0,-3.7887,-3.7839,-3.7873,-3.8046,-3.8065,-3.8065,-3.8065,-3.8065,-3.8007,-3.7873,-3.8053,0.0,0.0,0.0,0.0,0.0,0.0,0.0,0.0,0.0,0.0,0.0,0.0,0.0,0.0,0.0,0.0,0.0,0.0,0.0,0.0,0.0,0.0,0.0,0.0,0.0,0.0,0.0,0.0,0.0,0.0,0.0,0.0,0.0,0.0,0.0,0.0,0.0,0.0,0.0,0.0,0.0,0.0,0.0,0.0,0.0,0.0,0.0,0.0,0.0,0.0,0.0,0.0,0.0,0.0,0.0,0.0,0.0,0.0,0.0,0.0,-3.5493,0.0,0.0,0.0,0.0,0.0,0.0,0.0,0.0,0.0,0.0,0.0,0.0,0.0,0.0,0.0,0.0,0.0,0.0,0.0,0.0,0.0,0.0,0.0,0.0,0.0,0.0,0.0,0.0,0.0,0.0,0.0,0.0,0.0,0.0,0.0,0.0,0.0,0.0,0.0,0.0,-3.8681,-3.8681,-3.8777,-3.9161,-3.92,-3.92,-3.92,-3.92,-3.9046,-3.87,-3.9027,0.0,0.0,0.0,0.0,0.0,0.0,0.0,0.0,0.0,0.0,0.0,0.0,0.0,0.0,0.0,0.0,0.0,0.0,0.0,0.0,0.0,0.0,0.0,0.0,0.0,0.0,0.0,0.0,0.0,0.0,0.0,0.0,0.0,0.0,0.0,0.0,0.0,0.0,0.0,0.0,0.0,0.0,0.0,0.0,0.0,0.0,0.0,0.0,0.0,0.0,0.0,0.0,0.0,-3.8007,-3.8007,-3.8007,-3.8007,-3.8007,-3.7911,-3.6546,-3.5949,-3.5949,0.0,0.0,0.0,0.0,0.0,0.0,0.0,0.0,0.0,0.0,0.0,0.0,0.0,0.0,0.0,0.0,0.0,0.0,0.0,0.0,0.0,0.0,0.0,0.0,0.0,-3.7642,-3.772,0.0,0.0,0.0,0.0,0.0,0.0,0.0,0.0,0.0,0.0,0.0,0.0,-3.9512,-3.9546,-3.9758,-4.0431,-4.0489,-4.0489,-4.0489,-4.0489,-4.0219,-3.9546,-4.0123,-3.9892,0.0,0.0,0.0,0.0,0.0,0.0,0.0,0.0,0.0,0.0,0.0,0.0,0.0,0.0,0.0,0.0,0.0,0.0,0.0,0.0,0.0,0.0,0.0,0.0,0.0,0.0,0.0,0.0,0.0,0.0,0.0,0.0,-3.5138,-3.5138,0.0,0.0,0.0,0.0,0.0,0.0,0.0,0.0,0.0,0.0,0.0,0.0,0.0,-3.7719,-3.7834,-3.7834,-3.7892,-3.8007,-3.8007,-3.8007,-3.8007,-3.8007,-3.8007,-3.7988,-3.7777,0.0,-3.7661,-3.7661,0.0,0.0,0.0,0.0,0.0,0.0,0.0,0.0,0.0,0.0,0.0,0.0,0.0,0.0,0.0,0.0,0.0,0.0,0.0,0.0,0.0,0.0,-3.7853,-3.7873,-3.795,-3.7964,0.0,-3.7924,-3.8122,-3.8132,-3.8214,0.0,0.0,0.0,0.0,0.0,0.0,0.0,-4.0354,-4.0354,-4.0373,-4.0489,-4.0489,-4.0489,-4.0489,-4.0489,-4.045,-4.0335,-4.0431,-4.0392,-4.0181,-4.0277,0.0,0.0,0.0,0.0,0.0,0.0,0.0,0.0,0.0,0.0,0.0,0.0,0.0,0.0,0.0,0.0,0.0,0.0,0.0,0.0,0.0,0.0,0.0,0.0,0.0,0.0,0.0,0.0,0.0,-3.5035,-3.5174,-3.5304,-3.5289,-3.5511,0.0,0.0,0.0,0.0,0.0,0.0,0.0,0.0,0.0,-3.8007,-3.8007,-3.8238,-3.8719,-3.8719,-3.895,-3.9411,-3.9411,-3.9411,-3.9411,-3.9411,-3.9411,-3.9411,-3.9411,-3.9411,-3.9335,-3.8392,-3.8007,-3.8007,0.0,0.0,0.0,0.0,-3.8007,-3.8007,-3.8007,-3.8007,0.0,0.0,0.0,0.0,0.0,0.0,0.0,0.0,0.0,0.0,0.0,0.0,0.0,-3.8719,-3.9084,-3.9411,-3.9411,-3.9469,-3.9392,0.0,-3.9242,-3.9665,-4.0046,0.0,0.0,0.0,0.0,-4.0581,-4.0508,-4.0489,-4.0489,-4.0489,-4.0489,-4.0489,-4.0489,-4.0489,-4.0489,-4.0489,-4.0489,-4.0489,-4.0489,-4.0489,-4.0315,0.0,0.0,0.0,0.0,0.0,0.0,0.0,0.0,0.0,0.0,0.0,0.0,0.0,0.0,0.0,0.0,0.0,0.0,0.0,0.0,0.0,0.0,0.0,0.0,0.0,0.0,0.0,0.0,-3.5242,-3.5463,-3.558,-3.5736,-3.6135,0.0,0.0,0.0,0.0,0.0,0.0,-3.8334,-3.8462,-3.8562,-3.8642,-3.8577,-3.8984,-3.9931,-3.9931,-4.0354,-4.1162,-4.1162,-4.1162,-4.1162,-4.1162,-4.1162,-4.1162,-4.1162,-4.1162,-4.1027,-3.9335,-3.8642,-3.8642,-3.8642,-3.8642,-3.8642,-3.8642,-3.8642,-3.8642,-3.8642,-3.8642,-3.8642,-3.8642,0.0,-3.8642,-3.8642,0.0,0.0,0.0,0.0,-3.8642,-3.8642,-3.9296,-3.9931,-3.9931,-4.0566,-4.1162,-4.1162,-4.1162,-4.0854,0.0,-4.0085,-4.0566,-4.0777,0.0,0.0,0.0,0.0,-4.1162,-4.1162,-4.1162,-4.1162,-4.1162,-4.1162,-4.1162,-4.1162,-4.1162,-4.1162,-4.1162,-4.095,-4.0835,-4.0835,-4.0623,-4.0489,-4.0489,0.0,0.0,0.0,0.0,0.0,0.0,0.0,0.0,0.0,0.0,0.0,0.0,0.0,0.0,0.0,0.0,0.0,0.0,0.0,0.0,0.0,0.0,0.0,0.0,0.0,0.0,0.0,0.0,0.0,-3.5926,-3.7043,0.0,0.0,0.0,0.0,-3.8007,-3.8757,-3.9219,-3.9219,-3.9714,-4.0117,-4.0373,-4.0135,-4.0538,-4.1662,-4.1681,-4.2104,-4.297,-4.297,-4.297,-4.297,-4.297,-4.297,-4.297,-4.297,-4.297,-4.2835,-4.1085,-4.0354,-4.0354,-4.0354,-4.0354,-4.0354,-4.0354,-4.0354,-4.0354,-4.0354,-4.0354,-4.0354,-4.0354,-4.0354,-4.0354,-4.0354,-4.0354,0.0,0.0,-4.0354,-4.0354,-4.0354,-4.1027,-4.1681,-4.1681,-4.2335,-4.297,-4.297,-4.297,-4.247,0.0,-4.0469,-4.0758,-4.1585,0.0,-4.2027,-4.2835,-4.297,-4.297,-4.297,-4.297,-4.297,-4.297,-4.297,-4.297,-4.297,-4.297,-4.297,-4.297,-4.22,-4.1739,-4.1739,-4.0931,-4.0489,-4.0489,-4.045,0.0,0.0,0.0,0.0,0.0,0.0,0.0,0.0,0.0,0.0,0.0,0.0,0.0,0.0,0.0,0.0,0.0,0.0,0.0,0.0,0.0,0.0,0.0,0.0,0.0,0.0,0.0,0.0,-3.6977,-3.7568,0.0,-3.8308,-3.8439,-3.8741,-3.9313,-3.9639,-4.004,-4.0557,-4.0973,-4.1375,-4.1781,-4.1685,-4.1736,-4.1914,-4.1933,-4.2193,-4.2719,-4.2719,-4.2851,-4.3104,-4.3104,-4.3104,-4.3104,-4.3104,-4.3104,-4.3047,-4.2431,-4.2162,-4.2162,-4.2162,-4.2162,-4.2162,-4.2162,-4.2162,-4.2162,-4.2162,-4.2162,-4.2162,-4.2162,-4.2162,-4.2162,-4.2162,-4.2162,-4.2162,-4.2162,-4.2162,-4.2162,-4.2162,-4.2393,-4.2643,-4.2643,-4.2874,-4.3104,-4.3104,-4.3104,-4.2912,-4.2297,-4.2162,-4.2277,-4.2585,-4.2643,-4.2739,-4.3047,-4.3104,-4.3104,-4.3104,-4.3104,-4.3104,-4.3104,-4.3104,-4.3104,-4.3104,-4.3104,-4.3104,-4.3104,-4.2816,-4.2643,-4.2643,-4.1797,-4.1335,-4.1335,-4.0777,-4.0489,0.0,0.0,0.0,0.0,0.0,0.0,0.0,0.0,0.0,0.0,0.0,0.0,0.0,0.0,0.0,0.0,0.0,0.0,0.0,0.0,0.0,0.0,0.0,0.0,0.0,0.0,-3.8002,-3.7673,-3.8156,-3.8651,-3.8885,-3.925,-3.9753,-4.0463,-4.0768,-4.1149,-4.1683,-4.1839,-4.2087,-4.2482,-4.2417,-4.2439,-4.2607,-4.2607,-4.2829,-4.3209,-4.3209,-4.3335,-4.3598,-4.3598,-4.3598,-4.3598,-4.3598,-4.3598,-4.3618,-4.3733,-4.377,-4.3712,-4.3282,-4.3104,-4.3104,-4.3104,-4.3104,-4.3104,-4.3104,-4.3104,-4.3104,-4.3104,-4.3104,-4.3104,-4.3104,-4.3104,-4.3104,-4.3104,-4.3104,-4.3104,-4.3104,-4.3297,-4.3508,-4.3508,-4.372,-4.3932,-4.3932,-4.3932,-4.3932,-4.3932,-4.3489,-4.3181,-4.3451,-4.3508,-4.3605,-4.3893,-4.3932,-4.3932,-4.3932,-4.3932,-4.3932,-4.3932,-4.3932,-4.3932,-4.3932,-4.3843,-4.3825,-4.3951,-4.3574,-4.3384,-4.3508,-4.2701,-4.2239,-4.2239,-4.1373,-4.0777,-4.0489,0.0,0.0,0.0,0.0,0.0,0.0,0.0,0.0,0.0,0.0,0.0,0.0,0.0,0.0,0.0,0.0,0.0,0.0,0.0,0.0,0.0,0.0,0.0,-3.7243,-3.7857,-3.823,-3.7962,-3.8933,-3.9519,-3.9163,-4.0171,-4.0976,-4.1281,-4.2023,-4.2481,-4.2519,-4.2252,-4.2248,-4.2557,-4.229,-4.2683,-4.3773,-4.3814,-4.4079,-4.458,-4.4606,-4.4624,-4.4624,-4.4624,-4.4606,-4.458,-4.458,-4.4624,-4.4631,-4.4985,-4.5096,-4.4987,-4.3691,-4.3181,-4.3181,-4.3181,-4.3181,-4.3181,-4.3181,-4.3181,-4.3181,-4.3181,-4.3181,-4.3181,-4.3181,-4.3181,-4.3181,-4.3181,-4.3181,-4.3181,-4.3181,-4.3758,-4.4335,-4.4335,-4.4989,-4.5586,-4.5586,-4.5586,-4.5586,-4.5586,-4.4278,-4.3431,-4.4201,-4.4335,-4.4624,-4.547,-4.5586,0.0,-4.5586,-4.5586,-4.5586,-4.5586,-4.5586,-4.5586,-4.5586,-4.5302,-4.5243,-4.5586,-4.4518,-4.4,-4.4318,-4.3566,-4.3124,-4.3104,-4.2239,-4.1373,-4.0527,0.0,0.0,0.0,0.0,0.0,0.0,0.0,0.0,0.0,0.0,0.0,0.0,0.0,0.0,0.0,0.0,0.0,0.0,0.0,0.0,0.0,0.0,-3.8506,-3.8544,-3.8944,-3.9142,-3.8809,-3.9777,-4.034,-4.0001,-4.0812,-4.1426,-4.1515,-4.1721,-4.2096,-4.2685,-4.2874,-4.3156,-4.3558,-4.3531,-4.3498,-4.3578,-4.3839,-4.4175,-4.4606,-4.4849,-4.4966,-4.4966,-4.4966,-4.4825,-4.458,-4.458,-4.4751,-4.4966,-4.5074,-4.5243,-4.5419,-4.5068,-4.4913,-4.4913,-4.4913,-4.4913,-4.4913,-4.4913,-4.4913,-4.4913,-4.4913,-4.4913,-4.4913,-4.4913,-4.4913,-4.4913,-4.4913,-4.4913,-4.4913,-4.4913,-4.5066,-4.524,-4.524,-4.5432,-4.5586,-4.5586,-4.5586,-4.5586,-4.5586,-4.522,-4.497,-4.5201,-4.524,-4.5316,-4.5547,-4.5586,0.0,-4.5586,-4.5586,-4.5586,-4.5586,-4.5586,-4.5586,-4.5586,-4.5513,-4.5495,-4.5586,-4.5302,-4.5036,-4.4898,-4.4286,-4.3701,-4.3104,-4.2239,-4.1681,0.0,0.0,0.0,0.0,0.0,0.0,0.0,0.0,0.0,0.0,0.0,0.0,0.0,0.0,0.0,0.0,0.0,0.0,0.0,0.0,0.0,0.0,-3.9203,-3.9387,-3.9856,-3.9826,-3.9769,-3.9915,-4.0504,-4.0859,-4.0644,-4.1403,-4.1946,-4.2087,-4.2414,-4.2824,-4.3271,-4.3493,-4.3699,-4.3998,-4.4016,-4.3912,-4.3693,-4.4246,-4.455,-4.4647,-4.52,-4.5435,-4.5435,-4.5435,-4.5321,0.0,-4.5133,-4.5252,-4.5435,-4.5598,-4.5761,0.0,0.0,0.0,0.0,0.0,-4.5586,-4.5586,-4.5586,-4.5586,-4.5586,-4.5586,-4.5586,-4.5586,-4.5586,-4.5586,-4.5586,-4.5586,-4.5586,-4.5586,-4.5586,-4.5586,-4.5586,-4.5586,-4.5586,-4.5586,-4.5586,-4.5586,-4.5586,-4.5586,-4.5586,0.0,-4.5586,-4.5586,-4.5586,-4.5586,-4.5495,-4.5438,-4.5586,-4.5362,-4.5283,-4.5568,-4.5457,-4.5438,-4.5586,-4.5476,0.0,0.0,0.0,-4.5302,-4.5096,-4.4785,0.0,0.0,0.0,-4.2681,-4.2335,0.0,0.0,0.0,-4.045,-4.0239,0.0,0.0,0.0,0.0,0.0,0.0,0.0,0.0,0.0,0.0,0.0,0.0,0.0,0.0,0.0,0.0,-4.0029,-4.0322,-4.113,-4.0616,-4.0396,-4.1038,-4.1185,-4.1258,-4.1258,-4.1974,-4.2562,-4.2876,-4.3546,-4.3955,-4.3955,0.0,0.0,0.0,0.0,-4.411,-4.4203,-4.4972,-4.5203,-4.4908,-4.5678,-4.6009,-4.5956,-4.5956,-4.592,-4.5902,-4.5902,-4.592,-4.5973,-4.6279,-4.6392,-4.632,-4.5545,-4.5416,-4.5666,-4.5624,-4.5586,-4.5586,-4.5586,0.0,0.0,-4.5586,-4.5586,-4.5586,-4.5586,-4.5586,-4.5586,-4.5586,-4.5586,-4.5586,-4.5586,-4.5586,-4.5586,-4.5586,-4.5586,-4.5586,-4.5586,-4.5586,-4.5586,-4.5586,-4.5586,-4.5586,-4.5586,-4.5586,-4.5586,-4.5586,-4.5342,-4.5263,-4.5568,-4.5096,-4.4943,-4.5475,0.0,0.0,-4.5476,-4.5222,-4.518,-4.5476,-4.5222,-4.5052,-4.5096,-4.5074,-4.4712,-4.4033,-4.4154,-4.3897,-4.3239,-4.2374,-4.195,-4.1931,-4.095,-4.0489,0.0,0.0,0.0,0.0,0.0,0.0,0.0,0.0,0.0,0.0,0.0,0.0,0.0,0.0,0.0,-4.0744,-4.0873,-4.1148,-4.1956,-4.1937,-4.1662,-4.1167,-4.168,-4.2066,-4.2066,-4.28,-4.3275,-4.3358,-4.3505,-4.3597,-4.3597,-4.3597,0.0,-4.452,-4.4538,-4.4886,-4.5549,-4.5964,-4.6118,-4.6071,0.0,0.0,-4.6312,-4.6312,-4.6147,-4.5902,-4.5902,-4.6061,-4.6312,-4.6359,-4.6392,-4.6376,-4.6146,-4.611,-4.6118,-4.5744,-4.5586,-4.5586,-4.5586,-4.5586,-4.5586,-4.5586,-4.5586,-4.5586,-4.5586,-4.5586,0.0,-4.5586,-4.5586,-4.5586,-4.5586,-4.5586,-4.5586,-4.5586,-4.5586,-4.5586,-4.5586,-4.5586,-4.5586,-4.5586,-4.5586,-4.5586,-4.5586,-4.5586,-4.5586,-4.5586,-4.5531,-4.5513,-4.5586,-4.5495,-4.5342,-4.5222,-4.514,-4.503,-4.4806,-4.4732,-4.4707,-4.4781,-4.4732,-4.4825,-4.5096,-4.4849,-4.4867,-4.5245,-4.4364,-4.3963,-4.4066,-4.3258,-4.2854,-4.2816,-4.1219,-4.0489,0.0,0.0,0.0,0.0,0.0,0.0,0.0,0.0,0.0,0.0,0.0,-3.9551,0.0,0.0,-4.0763,-4.157,-4.1699,-4.1992,-4.2782,-4.2892,-4.2745,-4.2359,-4.2653,-4.2892,-4.2892,-4.3259,-4.3497,-4.3497,-4.3497,-4.3663,-4.4085,-4.4103,-4.447,-4.5278,-4.5296,-4.5498,-4.5902,-4.6467,-4.6757,-4.6757,-4.7352,-4.7537,-4.7348,-4.7348,-4.7278,-4.7095,-4.7095,-4.7187,-4.7348,-4.7348,-4.7348,-4.7344,-4.7084,-4.6868,-4.6638,-4.6577,-4.6685,-4.6855,-4.6855,-4.6855,-4.6855,-4.6855,-4.6855,-4.6855,-4.6855,-4.6855,-4.6759,-4.6355,-4.624,-4.6144,-4.5701,-4.5586,-4.5586,-4.5586,-4.5586,-4.5586,-4.5586,-4.5476,-4.54,-4.5568,-4.5457,-4.5342,-4.5342,-4.5342,-4.5419,-4.5568,-4.5476,-4.5419,-4.5586,-4.5142,-4.4881,-4.5074,-4.4943,-4.4781,-4.4606,-4.458,-4.458,-4.458,-4.4419,-4.4455,-4.483,-4.4682,-4.4757,-4.5077,-4.4842,-4.471,-4.471,-4.4034,-4.3701,-4.3662,-4.2393,-4.1566,0.0,0.0,0.0,0.0,0.0,0.0,0.0,0.0,-3.9937,-4.0102,-4.012,-4.0377,-4.1185,-4.135,-4.1607,-4.2396,-4.2525,-4.2763,-4.3406,-4.3497,-4.3497,-4.3497,-4.3497,-4.3497,-4.3497,-4.3497,-4.3497,-4.3497,-4.3626,-4.4011,-4.4672,-4.4856,-4.5314,-4.6104,-4.614,-4.6214,-4.6361,-4.7021,-4.7352,-4.7352,-4.7994,-4.8306,-4.8306,-4.8306,-4.8306,-4.8306,-4.8306,-4.8306,-4.8306,-4.8306,-4.8306,-4.8271,-4.7937,-4.7679,-4.7475,-4.7509,-4.7709,-4.7991,-4.8068,-4.8105,-4.8105,-4.8105,-4.8105,-4.8105,-4.8105,-4.8105,-4.7971,-4.7317,-4.7144,-4.6952,-4.6185,-4.5975,-4.5937,-4.5899,-4.5879,-4.5879,-4.5879,-4.5524,-4.5322,-4.5591,-4.5297,-4.4988,-4.4988,-4.4988,-4.5096,-4.5362,-4.518,-4.5096,-4.5362,-4.4694,-4.4428,-4.4943,-4.4825,-4.4631,-4.4501,-4.4419,-4.4392,-4.4392,-4.4146,-4.4175,-4.458,-4.458,-4.4631,-4.4701,-4.5161,-4.5283,-4.5096,-4.4672,-4.4493,-4.4528,-4.3893,-4.3028,-3.8707,-3.8707,-3.8707,-3.8707,-3.8781,-3.9001,0.0,0.0,-4.0102,-4.0836,-4.0983,-4.1222,-4.2029,-4.2176,-4.2433,-4.3222,-4.3369,-4.3387,-4.3479,-4.3497,-4.3497,-4.3497,-4.3497,-4.3497,-4.3497,-4.3497,-4.3497,-4.3497,-4.4158,-4.4617,-4.4709,-4.5388,-4.614,-4.6948,-4.6985,-4.7315,-4.8031,-4.8122,-4.8177,-4.8177,-4.8269,-4.8306,-4.8306,-4.8306,-4.8306,-4.8306,-4.8306,-4.8306,-4.8306,-4.8306,-4.8306,-4.8306,-4.8234,-4.8627,-4.9079,-4.7946,-4.7514,-4.7624,-4.7972,-4.8105,-4.8105,-4.8105,-4.8105,-4.8105,-4.8105,-4.8105,-4.8086,-4.799,-4.7971,-4.7857,-4.7398,-4.7293,-4.7224,-4.6902,-4.6849,-4.6849,-4.6849,-4.6256,-4.5746,-4.5772,-4.5167,-4.4676,-4.4676,-4.4676,-4.4657,-4.4726,-4.4682,-4.4657,-4.4707,-4.4872,-4.4877,-4.4682,-4.4896,-4.4781,-4.4117,-4.3772,-4.3631,-4.3631,-4.3849,-4.4175,-4.458,-4.458,-4.4751,-4.5052,-4.4825,-4.4849,-4.5096,-4.5023,-4.5149,-4.5451,-4.5355,-4.447,-3.8707,-3.8707,0.0,0.0,-3.9405,-4.0065,-3.9918,-4.0616,-4.1387,-4.1735,-4.1809,-4.2047,-4.2837,-4.3002,-4.3112,0.0,-4.3497,-4.3497,-4.3497,-4.3497,-4.3497,-4.3497,-4.3497,-4.3497,-4.3497,-4.392,-4.4195,-4.4195,-4.4947,-4.5608,-4.6085,-4.6434,-4.6985,-4.7774,-4.781,-4.7976,-4.8306,-4.8306,-4.8306,-4.8306,-4.8306,-4.8306,-4.8306,-4.8306,-4.8306,-4.8306,-4.8306,-4.8306,-4.8306,-4.8306,-4.8306,-4.8306,-4.8306,-4.8513,-4.8788,-4.8711,-4.8977,-4.9388,-4.9548,-4.9606,-4.9567,-4.9348,-4.9429,-4.9587,-4.9348,-4.9264,-4.9168,-4.8652,-4.8346,-4.8028,-4.7359,-4.7219,-4.7167,-4.7023,-4.6996,-4.6996,-4.6996,-4.6542,-4.621,-4.6459,-4.5669,-4.4945,-4.4945,-4.4551,-4.4194,-4.3992,-4.4308,-4.458,-4.458,-4.4508,-4.4428,-4.4261,-4.4373,-4.4346,-4.4046,-4.3693,-4.3497,-4.3497,-4.3612,-4.3849,-4.4252,-4.4474,-4.4676,-4.4825,-4.5055,-4.5074,-4.4825,-4.5201,-4.5362,-4.5322,-4.5513,-4.522,-3.8707,0.0,0.0,-3.8707,-3.9753,-4.0671,-4.0304,-4.1295,-4.2359,-4.2598,-4.2635,-4.28,-4.3387,-4.3497,-4.3497,-4.3497,-4.3497,-4.3497,-4.3497,-4.3497,-4.3497,-4.3497,-4.3699,-4.3828,-4.3828,-4.436,-4.48,-4.5021,-4.5792,-4.6489,-4.7095,-4.7333,-4.7719,-4.8288,-4.8306,-4.8306,-4.8306,-4.8306,-4.8306,-4.8306,-4.8306,-4.8306,-4.8306,-4.8306,-4.8306,-4.8306,-4.8306,-4.8306,-4.8306,-4.8306,-4.8306,-4.8306,-4.8306,-4.8364,-4.855,-4.9108,-4.9773,-5.038,-5.0483,-5.0544,-5.0483,-5.0183,-5.0206,-5.0294,-4.9999,-4.9924,-4.9791,-4.9163,-4.8791,-4.839,-4.769,-4.7529,-4.75,-4.7379,-4.7348,-4.7348,-4.7348,-4.6959,-4.668,-4.695,-4.614,-4.5315,-4.5092,-4.4573,-4.4031,-4.3584,-4.3962,-4.4299,-4.4299,-4.4136,-4.4028,-4.4146,-4.4076,-4.4016,-4.4016,-4.3693,-4.3497,-4.3497,-4.3497,-4.3646,-4.3986,-4.4392,-4.458,-4.458,-4.5161,-4.5222,-4.4751,-4.5222,-4.5381,-4.5243,-4.5495,-4.5586,0.0,0.0,-3.8707,-3.8707,-3.9313,-4.012,-4.0891,-4.1699,-4.2525,-4.3296,-4.3442,-4.3461,-4.3497,-4.3497,-4.3497,-4.3497,-4.3497,-4.3497,-4.3497,-4.3497,-4.3497,-4.3497,-4.4195,-4.4672,0.0,-4.469,-4.5021,-4.5792,-4.6617,-4.7095,-4.7113,-4.7847,-4.8269,-4.8306,-4.8306,-4.8306,-4.8306,-4.8306,-4.8306,-4.8306,-4.8306,-4.8306,-4.8306,-4.8306,-4.8306,-4.8306,-4.8306,-4.8306,-4.8306,-4.8306,-4.8306,-4.8306,-4.8306,-4.855,-4.8897,-4.8897,-4.9171,-4.9589,-4.9974,-5.0135,-5.0135,-5.0092,-4.9827,-4.9532,-4.9504,-4.9504,-4.9504,-4.9485,-4.9466,-4.9378,-4.8954,-4.8855,-4.872,-4.8347,-4.8252,-4.8252,-4.8252,-4.7665,-4.7076,-4.7114,-4.6452,-4.5644,-4.4837,-4.4672,-4.4397,-4.3608,-4.3513,-4.3548,-4.3548,-4.3804,-4.4146,-4.4527,-4.4233,-4.4016,-4.4016,-4.3693,-4.3497,-4.3497,-4.3497,-4.3646,-4.3986,-4.4392,-4.458,-4.458,-4.4943,-4.5096,-4.5074,-4.5096,-4.5282,-4.5586,-4.5605,-4.5586,0.0,0.0,-3.8836,-3.935,-4.0102,-4.091,-4.1717,-4.2525,-4.3167,-4.3424,-4.3497,-4.3497,-4.3497,-4.3497,-4.3497,-4.3497,-4.3497,-4.3497,-4.3497,-4.3497,-4.3699,-4.4232,-4.4544,0.0,0.0,0.0,0.0,-4.6691,-4.7443,-4.7921,-4.7921,-4.8159,-4.8306,-4.8306,-4.8306,-4.8306,-4.8306,-4.8306,-4.8306,-4.8306,-4.8306,-4.8306,-4.8306,-4.8306,-4.8306,-4.8306,-4.8306,-4.8306,-4.8306,-4.8306,-4.8306,-4.8306,-4.8306,-4.8402,-4.8513,-4.8513,-4.8763,-4.9202,-4.9872,-4.9924,-4.9719,-4.9719,-4.9589,-4.9445,-4.9171,-4.9108,-4.9108,-4.9108,-4.8897,-4.8657,-4.855,-4.8513,-4.8495,-4.8326,-4.8306,-4.8306,-4.8306,-4.8104,-4.7921,-4.7921,-4.726,-4.6452,-4.5626,-4.5057,-4.4433,-4.3608,-4.3497,-4.3497,-4.3497,-4.3804,-4.3955,-4.3868,-4.3943,-4.3893,-4.3712,-4.3563,-4.3497,-4.3497,-4.3497,-4.3646,-4.3986,-4.4392,-4.4707,-4.4919,-4.5263,-4.5322,-4.5096,-4.5322,-4.5381,-4.5263,-4.5495,-4.5586,0.0,-3.8707,-3.8891,-3.9698,-4.0506,-4.1313,-4.2121,-4.291,-4.3497,-4.3497,-4.3497,-4.3497,-4.3497,-4.3497,-4.3497,-4.3497,-4.3497,-4.3497,-4.3497,-4.3497,-4.3791,-4.4617,-4.4947,-4.5663,0.0,0.0,0.0,-4.7535,-4.8012,-4.8306,-4.8306,-4.8306,-4.8306,-4.8306,-4.8306,-4.8306,-4.8306,-4.8306,-4.8306,-4.8306,-4.8306,-4.8306,-4.8306,-4.8306,-4.8306,-4.8306,-4.8306,-4.8306,-4.8306,-4.8306,-4.8306,-4.8306,-4.8306,-4.8306,-4.8306,-4.8306,-4.844,-4.8779,-4.9426,-4.9504,-4.9295,-4.9295,-4.9171,-4.9029,-4.8744,-4.8692,-4.8692,-4.8692,-4.8513,-4.8306,-4.8306,-4.8306,-4.8306,-4.8306,-4.8306,-4.8306,-4.8306,-4.8306,-4.8306,-4.8306,-4.7884,-4.7186,-4.6085,-4.4984,-4.4103,-4.3571,-4.3497,-4.3497,-4.3497,-4.3712,-4.3758,-4.3513,-4.3693,-4.3726,-4.3513,-4.3497,-4.3497,-4.3497,-4.3612,-4.3772,-4.3986,-4.4508,-4.4872,-4.5096,-4.5419,-4.5495,-4.5282,-4.5495,-4.5495,-4.5263,-4.5495,-4.5586,-3.8707,-3.8707,-3.8909,-3.9753,-4.0543,-4.1332,-4.2176,-4.2947,-4.3497,-4.3497,-4.3497,-4.3497,0.0,0.0,-4.3497,-4.3497,-4.3497,-4.3497,-4.3497,-4.3497,-4.3809,0.0,0.0,0.0,0.0,0.0,0.0,-4.8306,0.0,-4.8306,-4.8306,-4.8306,-4.8306,-4.8306,-4.8306,-4.8306,-4.8306,-4.8306,-4.8306,-4.8306,-4.8306,-4.8306,-4.8306,-4.8306,-4.8306,-4.8306,-4.8306,-4.8306,-4.8306,-4.8306,-4.8306,-4.8306,-4.8306,-4.8306,-4.8306,-4.8306,-4.8306,-4.8364,-4.8763,-4.8863,-4.8863,-4.8897,-4.864,-4.8306,-4.8306,-4.8306,-4.8306,-4.8306,-4.8306,-4.8306,-4.8306,-4.8306,-4.8306,-4.8306,-4.8306,-4.8306,-4.8306,-4.8306,-4.8306,-4.8306,-4.8233,-4.7682,-4.6104,-4.4525,-4.3497,-4.3497,-4.3497,-4.3497,-4.3497,-4.3497,-4.3497,-4.3497,-4.3497,-4.3497,-4.3497,-4.3497,-4.3497,-4.3497,-4.3818,-4.4016,-4.4028,-4.4713,-4.5096,-4.5137,-4.5438,-4.5586,-4.5586,-4.5586,-4.5586,-4.5586,-4.5586,-4.5586,-3.8707,-3.8707,-3.9038,-4.0451,-4.0965,-4.1479,-4.2873,-4.3332,-4.3497,-4.3497,-4.3497,-4.3497,0.0,0.0,0.0,-4.3497,-4.3497,0.0,-4.3497,-4.3497,0.0,0.0,0.0,-4.6452,-4.7865,-4.8196,0.0,0.0,-4.8306,-4.8306,-4.8306,-4.8306,-4.8306,-4.8306,-4.8306,-4.8306,-4.8306,-4.8306,-4.8306,-4.8306,-4.8306,-4.8306,-4.8306,-4.8306,-4.8306,-4.8306,-4.8306,-4.8306,-4.8306,-4.8306,-4.8306,-4.8306,-4.8306,-4.8306,-4.8306,-4.8306,-4.8306,-4.8306,-4.8421,-4.8458,-4.8513,-4.8813,-4.864,-4.8306,-4.8306,-4.8306,-4.8306,-4.8306,-4.8306,-4.8306,-4.8306,-4.8306,-4.8306,-4.8306,-4.8306,-4.8306,-4.8306,-4.8306,-4.8306,-4.8306,-4.7333,-4.6195,-4.5186,-4.4176,-4.3497,-4.3497,-4.3497,-4.3497,-4.3497,-4.3497,-4.3497,-4.3497,-4.3497,-4.3497,-4.3497,-4.3497,-4.3497,-4.3497,-4.3818,-4.4117,-4.4428,-4.4872,-4.5222,-4.5476,-4.5568,-4.5586,-4.5586,-4.5586,-4.5586,-4.5586,-4.5586,-4.5586,-3.8707,-3.8707,-3.9093,-4.0708,-4.1111,-4.1534,-4.313,-4.3497,-4.3497,-4.3497,-4.3497,0.0,0.0,0.0,0.0,0.0,0.0,0.0,-4.3497,-4.3497,-4.4085,0.0,-4.5902,0.0,-4.8141,-4.8306,-4.8306,0.0,-4.8306,-4.8306,-4.8306,-4.8306,-4.8306,-4.8306,-4.8306,-4.8306,-4.8306,-4.8306,-4.8306,-4.8306,-4.8306,-4.8306,-4.8306,-4.8306,-4.8306,-4.8306,0.0,-4.8306,-4.8306,-4.8306,-4.8306,-4.8306,-4.8306,-4.8306,-4.8306,-4.8306,-4.8306,-4.8306,-4.8306,-4.8306,-4.8344,-4.8568,-4.8477,-4.8306,-4.8306,-4.8306,-4.8306,-4.8306,-4.8306,-4.8306,-4.8306,-4.8306,-4.8306,-4.8306,-4.8306,-4.8306,-4.8306,-4.8306,-4.8214,-4.7847,-4.6764,-4.5645,-4.4856,-4.403,-4.3497,-4.3497,-4.3497,-4.3497,-4.3497,-4.3497,-4.3497,-4.3497,-4.3497,-4.3497,-4.3497,-4.3497,-4.3497,-4.3497,-4.3974,-4.4346,-4.458,-4.5055,-4.5419,-4.5605,-4.5586,-4.5586,-4.5586,-4.5586,-4.5586,-4.5586,-4.5586,-4.5586,-3.8707,-3.8707,-3.9056,-4.0579,-4.1038,-4.1497,-4.3002,-4.3406,-4.3497,-4.3497,0.0,-4.3497,-4.3497,0.0,-4.3497,-4.3497,0.0,-4.3497,-4.3497,-4.3497,-4.4048,-4.5553,-4.5828,-4.6489,-4.7994,-4.8251,-4.8306,-4.8306,-4.8306,-4.8306,-4.8306,-4.8306,-4.8306,-4.8306,-4.8306,-4.8306,-4.8306,-4.8306,-4.8306,-4.8306,-4.8306,-4.8306,-4.8306,-4.8306,-4.8306,-4.8306,-4.8306,0.0,-4.8306,-4.8306,-4.8306,-4.8306,-4.8306,-4.8306,-4.8306,-4.8306,-4.8306,-4.8306,-4.8306,-4.8306,-4.8306,-4.8306,-4.8306,-4.8306,-4.8306,-4.8306,-4.8306,-4.8306,-4.8306,-4.8306,-4.8306,-4.8306,-4.8306,-4.8306,-4.8306,-4.8306,-4.8306,-4.8233,-4.7902,-4.7113,-4.6305,-4.5498,-4.469,-4.3956,-4.3497,-4.3497,-4.3497,-4.3497,-4.3497,-4.3497,-4.3497,-4.3497,-4.3497,-4.3497,-4.3497,-4.3497,-4.3497,-4.3497,-4.4213,-4.458,-4.458,-4.5243,-4.5586,-4.5586,-4.5586,-4.5586,-4.5586,-4.5586,-4.5586,-4.5586,-4.5586,-4.5586,-3.8707,-3.8707,-3.8927,-3.9863,-4.0616,-4.1368,-4.2286,-4.302,0.0,0.0,0.0,-4.3497,-4.3497,-4.3497,0.0,-4.3497,0.0,0.0,0.0,0.0,-4.3846,0.0,0.0,0.0,0.0,0.0,0.0,0.0,0.0,-4.8306,-4.8306,-4.8306,-4.8306,-4.8306,-4.8306,-4.8306,-4.8306,-4.8306,-4.8306,-4.8306,-4.8306,-4.8306,-4.8306,-4.8306,-4.8306,-4.8306,-4.8306,0.0,-4.8306,-4.8306,-4.8306,-4.8306,-4.8306,-4.8306,-4.8306,-4.8306,-4.8306,-4.8306,-4.8306,-4.8306,-4.8306,-4.8306,-4.8306,-4.8306,-4.8306,-4.8306,-4.8306,-4.8306,-4.8306,-4.8306,-4.8306,-4.8306,-4.8306,-4.8306,-4.8306,-4.8306,-4.8306,-4.7792,-4.7076,-4.6269,-4.5461,-4.4654,-4.3846,-4.3589,-4.3497,-4.3497,-4.3497,-4.3497,-4.3497,-4.3497,-4.3497,-4.3497,-4.3497,-4.3497,-4.3497,-4.3497,-4.3497,-4.3497,-4.4213,-4.458,-4.458,-4.5243,-4.5586,-4.5586,-4.5586,-4.5586,-4.5586,-4.5586,-4.5586,-4.5586,-4.5586,-4.5586,-3.8707,-3.8707,-3.8891,-3.9698,-4.0506,-4.1313,-4.2121,0.0,0.0,0.0,0.0,-4.3497,-4.3497,0.0,0.0,0.0,0.0,0.0,0.0,0.0,0.0,0.0,0.0,0.0,0.0,0.0,0.0,0.0,0.0,-4.8306,-4.8306,-4.8306,-4.8306,-4.8306,-4.8306,-4.8306,-4.8306,-4.8306,-4.8306,-4.8306,-4.8306,-4.8306,-4.8306,-4.8306,-4.8306,-4.8306,-4.8306,0.0,-4.8306,-4.8306,-4.8306,-4.8306,-4.8306,-4.8306,-4.8306,-4.8306,-4.8306,-4.8306,-4.8306,-4.8306,-4.8306,-4.8306,-4.8306,-4.8306,-4.8306,-4.8306,-4.8306,-4.8306,-4.8306,-4.8306,-4.8306,-4.8306,-4.8306,-4.8306,-4.7994,-4.77,-4.77,-4.7058,-4.625,-4.5443,-4.4966,-4.4452,-4.3626,-4.3497,-4.3497,-4.3497,-4.3497,-4.3497,-4.3497,-4.3497,-4.3497,-4.3497,-4.3497,-4.3497,-4.3497,-4.3497,-4.3563,-4.3758,-4.428,-4.4682,-4.4849,-4.5342,-4.5586,-4.5586,-4.5586,-4.5586,-4.5586,-4.5586,-4.5586,-4.5586,-4.5586,-4.5586,-3.8707,-3.8707,-3.8854,-3.9478,-4.0249,-4.1056,-4.1864,-4.2671,0.0,0.0,-4.3497,-4.3497,-4.3497,0.0,0.0,0.0,0.0,0.0,0.0,0.0,0.0,0.0,0.0,0.0,0.0,0.0,0.0,0.0,0.0,0.0,-4.8306,-4.8306,-4.8306,-4.8306,-4.8306,-4.8306,-4.8306,-4.8306,-4.8306,-4.8306,-4.8306,-4.8306,-4.8306,-4.8306,-4.8306,-4.8306,-4.8306,0.0,0.0,-4.8306,-4.8306,-4.8306,-4.8306,-4.8306,-4.8306,-4.8306,-4.8306,-4.8306,-4.8306,-4.8306,-4.8306,-4.8306,-4.8306,-4.8306,-4.8306,-4.8306,-4.8306,-4.8306,-4.8306,-4.8306,-4.8306,-4.8306,-4.8269,-4.8086,-4.7572,-4.7076,-4.6893,-4.6214,-4.5461,-4.4837,-4.4562,-4.425,-4.3608,-4.3497,-4.3497,-4.3497,-4.3497,-4.3497,-4.3497,-4.3497,-4.3497,-4.3497,-4.3497,-4.3497,-4.3497,-4.3497,-4.3646,-4.3986,-4.4392,-4.4732,-4.5074,-4.5419,-4.5586,-4.5586,-4.5586,-4.5586,-4.5586,-4.5586,-4.5586,-4.5586,-4.5586,-4.5586,-3.8707,-3.8707,-3.8726,-3.8799,-3.9423,-4.0212,-4.1038,0.0,0.0,0.0,-4.3497,-4.3497,-4.3497,-4.3497,0.0,0.0,0.0,0.0,0.0,0.0,0.0,0.0,0.0,0.0,0.0,0.0,0.0,0.0,0.0,0.0,-4.8306,-4.8306,-4.8306,-4.8306,-4.8306,-4.8306,-4.8306,-4.8306,-4.8306,-4.8306,-4.8306,-4.8306,-4.8306,-4.8306,-4.8306,-4.8306,-4.8306,0.0,0.0,-4.8306,-4.8306,-4.8306,-4.8306,-4.8306,-4.8306,-4.8306,-4.8306,-4.8306,-4.8306,-4.8306,-4.8306,-4.8306,-4.8306,-4.8306,-4.8306,-4.8306,-4.8306,-4.8306,-4.8306,-4.8306,-4.8306,-4.8306,-4.8122,-4.7388,-4.713,-4.6911,-4.6177,-4.5388,-4.48,-4.4727,-4.4103,-4.3589,-4.3497,-4.3497,-4.3497,-4.3497,-4.3497,-4.3497,-4.3497,-4.3497,-4.3497,-4.3497,-4.3497,-4.3497,-4.3497,-4.3497,-4.3646,-4.3986,-4.4392,-4.4732,-4.5074,-4.5419,-4.5586,-4.5586,-4.5586,-4.5586,-4.5586,-4.5586,-4.5586,-4.5586,-4.5586,-4.5586,-3.8707,-3.8707,-3.8707,-3.8707,-3.9294,-4.0102,-4.0928,0.0,0.0,-4.3314,-4.3497,-4.3497,-4.3497,-4.3497,-4.3497,0.0,0.0,0.0,0.0,0.0,0.0,0.0,0.0,0.0,0.0,0.0,0.0,0.0,0.0,0.0,-4.8306,-4.8306,-4.8306,-4.8306,-4.8306,-4.8306,-4.8306,-4.8306,-4.8306,-4.8306,-4.8306,-4.8306,-4.8306,-4.8306,-4.8306,-4.8306,-4.8306,0.0,0.0,-4.8306,-4.8306,-4.8306,-4.8306,-4.8306,-4.8306,-4.8306,-4.8306,-4.8306,-4.8306,-4.8306,-4.8306,-4.8306,-4.8306,-4.8306,-4.8306,-4.8306,-4.8306,-4.8306,-4.8306,-4.8306,-4.8306,-4.7957,-4.7517,-4.7205,-4.6379,-4.559,-4.5259,-4.4544,-4.3975,-4.3975,-4.3718,-4.3497,-4.3497,-4.3497,-4.3497,-4.3497,-4.3497,-4.3497,-4.3497,-4.3497,-4.3497,-4.3497,-4.3497,-4.3497,-4.3497,-4.366,-4.3974,-4.4337,-4.4707,-4.5052,-4.54,-4.5531,-4.5586,-4.5586,-4.5586,-4.5586,-4.5586,-4.5586,-4.5586,-4.5586,-4.5586,-4.5586,-3.8707,-3.8707,-3.8707,-3.8707,-3.9129,-3.9753,0.0,0.0,-4.2176,-4.2983,-4.3314,-4.3497,-4.3497,-4.3497,-4.3497,-4.3497,0.0,0.0,0.0,0.0,0.0,0.0,0.0,0.0,0.0,0.0,0.0,0.0,0.0,0.0,0.0,-4.8306,-4.8306,-4.8306,-4.8306,-4.8306,-4.8306,-4.8306,-4.8306,-4.8306,-4.8306,-4.8306,-4.8306,-4.8306,-4.8306,-4.8306,-4.8306,0.0,0.0,-4.8306,-4.8306,-4.8306,-4.8306,-4.8306,-4.8306,-4.8306,-4.8306,-4.8306,-4.8306,-4.8306,-4.8306,-4.8306,-4.8306,-4.8306,-4.8306,-4.8306,-4.8306,-4.8306,-4.8141,-4.7957,-4.7957,-4.737,-4.6709,-4.6471,-4.5535,-4.4635,-4.4397,-4.3901,-4.3497,-4.3497,-4.3497,-4.3497,-4.3497,-4.3497,-4.3497,-4.3497,-4.3497,-4.3497,-4.3497,-4.3497,-4.3497,-4.3497,-4.3497,-4.3548,-4.3646,-4.3849,-4.4204,-4.4726,-4.4966,-4.5243,-4.5586,-4.5586,-4.5586,-4.5586,-4.5586,-4.5586,-4.5586,-4.5586,-4.5586,-4.5586,-4.5586,-4.5586,-3.8707,-3.8707,-3.8707,-3.8707,-3.8707,-3.8927,0.0,0.0,-4.135,-4.2158,-4.2947,-4.3497,-4.3497,-4.3497,-4.3497,-4.3497,-4.3497,0.0,0.0,0.0,0.0,0.0,0.0,0.0,0.0,0.0,0.0,0.0,0.0,0.0,0.0,-4.8306,-4.8306,-4.8306,-4.8306,-4.8306,-4.8306,-4.8306,-4.8306,-4.8306,-4.8306,-4.8306,-4.8306,-4.8306,-4.8306,0.0,0.0,0.0,0.0,-4.8306,-4.8306,-4.8306,-4.8306,-4.8306,-4.8306,-4.8306,-4.8306,-4.8306,-4.8306,-4.8306,-4.8306,-4.8306,-4.8306,-4.8306,-4.8306,-4.8306,-4.8306,-4.8306,-4.7737,-4.7131,-4.7131,-4.6526,-4.5718,-4.4911,-4.4727,-4.4488,-4.3681,-4.3497,-4.3497,-4.3497,-4.3497,-4.3497,-4.3497,-4.3497,-4.3497,-4.3497,-4.3497,-4.3497,-4.3497,-4.3497,-4.3497,-4.3497,-4.3497,-4.3612,-4.3955,-4.4016,-4.4299,-4.5052,-4.5096,-4.5243,-4.5586,-4.5586,-4.5586,-4.5586,-4.5586,-4.5586,-4.5586,-4.5586,-4.5586,-4.5586,-4.5586,-4.5586,-3.8707,-3.8707,-3.8707,-3.8707,-3.8707,-3.8909,-3.9717,0.0,-4.0653,-4.2029,-4.2506,-4.2837,-4.3387,-4.3497,-4.3497,-4.3497,-4.3497,0.0,0.0,0.0,0.0,0.0,0.0,0.0,0.0,0.0,0.0,0.0,0.0,0.0,0.0,-4.8306,-4.8306,-4.8306,-4.8306,-4.8306,-4.8306,-4.8306,-4.8306,-4.8306,-4.8306,-4.8306,-4.8306,-4.8306,-4.8306,0.0,0.0,0.0,0.0,-4.8306,-4.8306,-4.8306,-4.8306,-4.8306,-4.8306,-4.8306,-4.8306,-4.8306,-4.8306,-4.8306,-4.8306,-4.8306,-4.8306,-4.8214,-4.7664,-4.7865,-4.8196,-4.7645,-4.6911,-4.6287,-4.6287,-4.5681,-4.5021,-4.4764,-4.4287,-4.3809,-4.3534,-4.3497,-4.3497,-4.3497,-4.3497,-4.3497,-4.3497,-4.3497,-4.3497,-4.3497,-4.3497,-4.3497,-4.3497,-4.3497,-4.3497,-4.3497,-4.3693,-4.3881,-4.3986,-4.4233,-4.4606,-4.5074,-4.5322,-4.5495,-4.5605,-4.5586,-4.5586,-4.5586,-4.5586,-4.5586,-4.5586,-4.5586,-4.5586,-4.5586,-4.5586,-4.5586,0.0,-3.8707,-3.8707,-3.8707,-3.8707,0.0,0.0,0.0,-4.0267,-4.1589,-4.2084,-4.2543,-4.3332,-4.3497,-4.3497,-4.3497,-4.3497,0.0,0.0,0.0,0.0,0.0,0.0,0.0,0.0,0.0,0.0,0.0,0.0,0.0,0.0,-4.8141,-4.8306,-4.8306,-4.8306,-4.8306,-4.8306,-4.8306,-4.8306,-4.8306,-4.8306,-4.8306,-4.8306,-4.8306,-4.8306,0.0,0.0,0.0,0.0,-4.8306,-4.8306,-4.8306,-4.8306,-4.8306,-4.8306,-4.8306,-4.8306,-4.8306,-4.8306,-4.8104,-4.7865,-4.7865,-4.7645,-4.7297,-4.6801,-4.7003,-4.7297,-4.6801,-4.6085,-4.5461,-4.5461,-4.4856,-4.425,-4.425,-4.3864,-4.3497,-4.3497,-4.3497,-4.3497,-4.3497,-4.3497,-4.3497,-4.3497,-4.3497,-4.3497,-4.3497,-4.3497,-4.3497,-4.3497,-4.3497,-4.3548,-4.3679,-4.3881,-4.4117,-4.4382,-4.4638,-4.4943,-4.5282,-4.5495,-4.5586,-4.5586,-4.5586,-4.5586,-4.5586,-4.5586,-4.5586,-4.5586,-4.5586,-4.5586,-4.5586,-4.5586,-4.5586,0.0,0.0,0.0,0.0,0.0,0.0,0.0,0.0,0.0,0.0,-4.1662,-4.2451,-4.3259,-4.3442,-4.3497,-4.3497,-4.3497,0.0,0.0,0.0,0.0,0.0,0.0,0.0,0.0,0.0,0.0,0.0,0.0,0.0,0.0,-4.7737,-4.8159,-4.8214,-4.8214,-4.8251,-4.8306,-4.8306,-4.8306,-4.8306,-4.8306,-4.8306,-4.8306,-4.8306,-4.8306,0.0,0.0,0.0,0.0,-4.8306,-4.8306,-4.8306,-4.8306,-4.8269,-4.8214,-4.8214,-4.8196,-4.8141,-4.8141,-4.7645,-4.7021,-4.7021,-4.6471,-4.581,-4.581,-4.581,-4.581,-4.581,-4.5241,-4.4617,-4.4617,-4.4066,-4.3497,-4.3497,-4.3497,-4.3497,-4.3497,-4.3497,-4.3497,-4.3497,-4.3497,-4.3497,-4.3497,-4.3497,-4.3497,-4.3497,-4.3497,-4.3532,-4.3548,-4.3548,-4.3646,-4.3955,-4.4046,-4.4318,-4.4966,-4.5074,-4.5243,-4.5586,-4.5586,-4.5586,-4.5586,-4.5586,-4.5586,-4.5586,-4.5586,-4.5586,-4.5586,-4.5586,-4.5586,-4.5586,-4.5586,-4.5586,-3.8707,0.0,-3.8707,-3.8707,0.0,0.0,0.0,0.0,0.0,0.0,0.0,0.0,0.0,0.0,-4.3497,-4.3497,-4.3497,0.0,0.0,0.0,0.0,0.0,0.0,0.0,0.0,0.0,0.0,0.0,0.0,0.0,0.0,-4.6361,-4.6746,-4.737,-4.7388,-4.77,-4.8306,-4.8306,-4.8306,-4.8306,-4.8306,-4.8306,-4.8306,-4.8306,-4.8306,0.0,0.0,0.0,-4.8306,-4.8306,-4.8306,-4.8306,-4.8306,-4.7921,-4.7388,-4.7388,-4.7003,-4.6452,-4.6452,-4.6342,-4.6177,-4.6177,-4.5645,-4.4984,-4.4984,-4.4984,-4.4984,-4.4984,-4.4397,-4.3773,-4.3773,-4.3626,-4.3497,-4.3497,-4.3497,-4.3497,-4.3497,-4.3497,-4.3497,-4.3497,-4.3497,-4.3497,-4.3497,-4.3497,-4.3497,-4.3497,-4.3497,-4.3597,-4.3849,-4.3881,-4.3893,-4.3986,-4.428,-4.4401,-4.429,-4.4781,-4.5243,-4.5586,-4.5586,-4.5586,-4.5586,-4.5586,-4.5586,-4.5586,-4.5586,-4.5586,-4.5586,-4.5586,-4.5586,-4.5586,-4.5586,-4.5586,-3.8707,-3.8707,-3.8707,-3.8707,-3.8707,-3.8707,0.0,0.0,0.0,0.0,0.0,0.0,0.0,0.0,0.0,0.0,0.0,0.0,0.0,0.0,0.0,0.0,0.0,0.0,0.0,0.0,0.0,0.0,0.0,0.0,0.0,-4.57,-4.6104,-4.6544,-4.6562,-4.7113,-4.8306,-4.8306,-4.8306,-4.8306,-4.8306,-4.8306,-4.8306,-4.8306,-4.8306,0.0,0.0,0.0,-4.7755,-4.7755,-4.7535,-4.7205,-4.7205,-4.6929,-4.6562,-4.6562,-4.6269,-4.5902,-4.5902,-4.5663,-4.5296,-4.4911,-4.4507,-4.4158,-4.4158,-4.4158,-4.4158,-4.4158,-4.3828,-4.3497,-4.3497,-4.3497,-4.3497,-4.3497,-4.3497,-4.3497,-4.3497,-4.3497,-4.3497,-4.3497,-4.3497,-4.3497,-4.3497,-4.3497,-4.3497,-4.3497,-4.3497,-4.3582,-4.3758,-4.3772,-4.3836,-4.3967,-4.4175,-4.4318,-4.4261,-4.4781,-4.518,-4.5362,-4.5362,-4.5438,-4.5586,-4.5586,-4.5586,-4.5586,-4.5586,-4.5586,-4.5586,-4.5586,-4.5586,-4.5586,-4.5586,-4.5586,-3.8707,-3.8707,-3.8707,-3.8707,-3.8707,-3.8707,0.0,0.0,0.0,0.0,0.0,0.0,0.0,0.0,0.0,0.0,0.0,0.0,0.0,0.0,0.0,0.0,0.0,0.0,0.0,0.0,0.0,0.0,0.0,0.0,0.0,-4.5168,-4.559,-4.5718,-4.5718,-4.6434,-4.7921,-4.7939,-4.7939,-4.7939,-4.7939,-4.7939,-4.7939,-4.7939,-4.7939,-4.7939,0.0,0.0,-4.6929,-4.6929,-4.6526,-4.5902,-4.5902,-4.581,-4.5718,-4.5718,-4.5645,-4.5535,-4.5535,-4.5094,-4.4415,-4.3718,-4.3497,-4.3497,-4.3497,-4.3497,-4.3497,-4.3497,-4.3497,-4.3497,-4.3497,-4.3497,-4.3497,-4.3497,-4.3497,-4.3497,-4.3497,-4.3497,-4.3497,-4.3497,-4.3497,-4.3497,-4.3497,-4.3497,-4.3497,-4.3497,-4.3497,-4.3513,-4.3563,-4.3563,-4.3679,-4.3986,-4.4016,-4.4146,-4.4474,-4.4757,-4.4988,-4.5096,-4.5159,-4.5302,-4.5586,-4.5586,-4.5586,-4.5586,-4.5586,-4.5586,-4.5586,-4.5586,-4.5586,-4.5586,-4.5586,-4.5586,-3.8707,-3.8707,-3.8707,-3.8707,-3.8707,-3.8707,0.0,0.0,0.0,0.0,0.0,0.0,0.0,0.0,0.0,0.0,0.0,0.0,0.0,0.0,0.0,0.0,0.0,0.0,0.0,0.0,0.0,0.0,0.0,0.0,0.0,-4.3791,-4.4176,-4.4874,-4.4892,-4.5333,-4.6269,-4.6269,-4.6269,-4.6269,-4.6269,-4.6269,-4.6269,-4.6269,-4.6269,-4.6269,0.0,-4.6195,-4.6085,-4.6085,-4.6012,-4.5902,-4.5902,-4.548,-4.4892,-4.4892,-4.4452,-4.3864,-4.3864,-4.3773,-4.3644,-4.3534,-4.3497,-4.3497,-4.3497,-4.3497,-4.3497,-4.3497,-4.3497,-4.3497,-4.3497,-4.3497,-4.3497,-4.3497,-4.3497,-4.3497,-4.3497,-4.3497,-4.3497,-4.3497,-4.3497,-4.3497,-4.3497,-4.3497,-4.3497,-4.3497,-4.3497,-4.3597,-4.3881,-4.3924,-4.3924,-4.3998,-4.4016,-4.4046,-4.4106,-4.4146,-4.4455,-4.5074,-4.5381,-4.555,-4.5586,-4.5586,-4.5586,-4.5586,-4.5586,-4.5586,-4.5586,-4.5586,-4.5586,-4.5586,-4.5586,-4.5586,-3.8707,-3.8707,-3.8707,-3.8707,-3.8707,-3.8707,0.0,0.0,0.0,0.0,0.0,0.0,0.0,0.0,0.0,0.0,0.0,0.0,0.0,0.0,0.0,0.0,0.0,0.0,0.0,0.0,0.0,0.0,0.0,0.0,0.0,0.0,-4.3663,-4.403,-4.4048,-4.4232,-4.4599,-4.4599,-4.5039,-4.5902,-4.5902,-4.5902,-4.5902,-4.5902,-4.5902,-4.5902,0.0,-4.5645,-4.5259,-4.5259,-4.5002,-4.4599,-4.4599,-4.4378,-4.4048,-4.4048,-4.3809,-4.3497,-4.3497,-4.3497,-4.3497,-4.3497,-4.3497,-4.3497,-4.3497,-4.3497,-4.3497,-4.3497,-4.3497,-4.3497,-4.3497,-4.3497,-4.3497,-4.3497,-4.3497,-4.3497,-4.3497,-4.3497,-4.3497,-4.3497,-4.3497,-4.3497,-4.3497,-4.3497,-4.3497,-4.3497,-4.3497,-4.3548,-4.3693,-4.3726,-4.3726,-4.3726,-4.3726,-4.3804,-4.3967,-4.4204,-4.4535,-4.5074,-4.5419,-4.5586,-4.5586,-4.5586,-4.5586,-4.5586,-4.5586,-4.5586,-4.5586,-4.5586,-4.5586,-4.5586,-4.5586,-4.5586,-3.8707,-3.8707,-3.8707,-3.8707,0.0,0.0,-3.8707,0.0,0.0,0.0,0.0,0.0,0.0,0.0,0.0,0.0,0.0,0.0,0.0,0.0,0.0,0.0,0.0,0.0,0.0,0.0,0.0,0.0,0.0,0.0,0.0,0.0,-4.3497,-4.3497,-4.3497,-4.3497,-4.3497,-4.3497,-4.4103,-4.5333,-4.5333,-4.5333,-4.5333,-4.5333,-4.5333,-4.5333,-4.5333,-4.4984,-4.4415,-4.4415,-4.4066,-4.3497,-4.3497,-4.3497,-4.3497,-4.3497,-4.3497,-4.3497,-4.3497,-4.3497,-4.3497,-4.3497,-4.3497,-4.3497,-4.3497,-4.3497,-4.3497,-4.3497,-4.3497,-4.3497,-4.3497,-4.3497,-4.3497,-4.3497,-4.3497,-4.3497,-4.3497,-4.3497,-4.3497,-4.3497,-4.3497,-4.3497,-4.3497,-4.3497,-4.3497,-4.3497,-4.3497,-4.3497,-4.3497,-4.3497,-4.3497,-4.3497,-4.3563,-4.3772,-4.4233,-4.4612,-4.4943,-4.5201,-4.5476,-4.5586,-4.5586,-4.5586,-4.5586,-4.5586,-4.5586,-4.5586,-4.5586,-4.5586,-4.5586,-4.5586,-4.5586,-4.5586,-3.8707,-3.8707,-3.8707,-3.8707,0.0,0.0,-3.8707,0.0,0.0,0.0,0.0,0.0,0.0,0.0,0.0,0.0,0.0,0.0,0.0,0.0,0.0,0.0,0.0,0.0,0.0,0.0,0.0,0.0,0.0,0.0,0.0,-4.3497,-4.3497,-4.3497,-4.3497,-4.3497,-4.3497,-4.3497,-4.3552,-4.3663,-4.3663,-4.3663,-4.3663,-4.3663,-4.3663,-4.3663,-4.3663,-4.3626,-4.3589,-4.3589,-4.3534,-4.3497,-4.3497,-4.3497,-4.3497,-4.3497,-4.3497,-4.3497,-4.3497,-4.3497,-4.3497,-4.3497,-4.3497,-4.3497,-4.3497,-4.3497,-4.3497,-4.3497,-4.3497,-4.3497,-4.3497,-4.3497,-4.3497,-4.3497,-4.3497,-4.3497,-4.3497,-4.3497,-4.3497,-4.3497,-4.3497,-4.3497,-4.3497,-4.3497,-4.3497,-4.3497,-4.3497,-4.3497,-4.3497,-4.3497,-4.3497,-4.3497,-4.3772,-4.4261,-4.4966,-4.5342,-4.555,-4.5568,-4.5586,-4.5586,-4.5586,-4.5586,-4.5586,-4.5586,-4.5586,-4.5586,-4.5586,-4.5586,-4.5586,-4.5586,-4.5586,-4.5586,-3.8707,-3.8707,-3.8707,-3.8707,0.0,0.0,0.0,0.0,0.0,0.0,0.0,0.0,0.0,0.0,0.0,0.0,0.0,0.0,0.0,0.0,0.0,0.0,0.0,0.0,0.0,0.0,0.0,0.0,0.0,0.0,0.0,-4.3497,-4.3497,-4.3497,-4.3497,-4.3497,-4.3497,-4.3497,-4.3497,-4.3497,-4.3497,-4.3497,-4.3497,-4.3497,-4.3497,-4.3497,-4.3497,-4.3497,-4.3497,-4.3497,-4.3497,-4.3497,-4.3497,-4.3497,-4.3497,-4.3497,-4.3497,-4.3497,-4.3497,-4.3497,-4.3497,-4.3497,-4.3497,-4.3497,-4.3497,-4.3497,-4.3497,-4.3497,-4.3497,-4.3497,-4.3497,-4.3497,-4.3497,-4.3497,-4.3497,-4.3497,-4.3497,-4.3497,-4.3497,-4.3497,-4.3497,-4.3497,-4.3497,-4.3497,-4.3497,-4.3497,-4.3497,-4.3497,-4.3497,-4.3497,-4.3563,-4.3804,-4.4327,-4.4806,-4.5074,-4.5419,-4.5586,-4.5586,-4.5586,-4.5586,-4.5586,-4.5586,-4.5586,-4.5586,-4.5586,-4.5586,-4.5586,-4.5586,-4.5586,-4.5586,-4.5586,-4.5586,-3.8707,-3.8707,-3.8707,0.0,0.0,0.0,0.0,0.0,0.0,0.0,0.0,0.0,0.0,0.0,0.0,0.0,0.0,0.0,0.0,0.0,0.0,0.0,0.0,0.0,0.0,0.0,0.0,0.0,0.0,0.0,0.0,-4.3497,-4.3497,-4.3497,-4.3497,-4.3497,-4.3497,-4.3497,-4.3497,-4.3497,-4.3497,-4.3497,-4.3497,-4.3497,-4.3497,-4.3497,-4.3497,-4.3497,-4.3497,-4.3497,-4.3497,-4.3497,-4.3497,-4.3497,-4.3497,-4.3497,-4.3497,-4.3497,-4.3497,-4.3497,-4.3497,-4.3497,-4.3497,-4.3497,-4.3497,-4.3497,-4.3497,-4.3497,-4.3497,-4.3497,-4.3497,-4.3497,-4.3497,-4.3497,-4.3497,-4.3497,-4.3497,-4.3497,-4.3497,-4.3497,-4.3497,-4.3497,-4.3497,-4.3497,-4.3497,-4.3497,-4.3497,-4.3497,-4.3497,-4.3497,-4.3679,-4.4136,-4.4757,-4.514,-4.5243,-4.5476,-4.5586,-4.5586,-4.5586,-4.5586,-4.5586,-4.5586,-4.5586,-4.5586,-4.5586,-4.5586,-4.5586,-4.5586,-4.5586,-4.5586,-4.5586,-4.5586,-3.8707,-3.8707,0.0,0.0,0.0,0.0,0.0,0.0,0.0,0.0,0.0,0.0,0.0,0.0,0.0,0.0,0.0,0.0,0.0,0.0,0.0,0.0,0.0,0.0,0.0,0.0,0.0,0.0,0.0,0.0,0.0,-4.3497,-4.3497,-4.3497,-4.3497,-4.3497,-4.3497,-4.3497,-4.3497,-4.3497,-4.3497,-4.3497,-4.3497,-4.3497,-4.3497,-4.3497,-4.3497,-4.3497,-4.3497,-4.3497,-4.3497,-4.3497,-4.3497,-4.3497,-4.3497,-4.3497,-4.3497,-4.3497,-4.3497,-4.3497,-4.3497,-4.3497,-4.3497,-4.3497,-4.3497,-4.3497,-4.3497,-4.3497,-4.3497,-4.3497,-4.3497,-4.3497,-4.3497,-4.3497,-4.3497,-4.3497,-4.3497,-4.3497,-4.3497,-4.3497,-4.3497,-4.3497,-4.3497,-4.3497,-4.3497,-4.3497,-4.3497,-4.3497,-4.3479,-4.3513,-4.3791,-4.4527,-4.4896,-4.5243,-4.5568,-4.5586,-4.5586,-4.5586,-4.5586,-4.5586,-4.5586,-4.5586,-4.5586,-4.5586,-4.5586,-4.5586,-4.5586,-4.5586,-4.5586,-4.5586,-4.5586,-4.5586,-3.8596,0.0,0.0,0.0,0.0,0.0,0.0,0.0,0.0,0.0,0.0,0.0,0.0,0.0,0.0,0.0,0.0,0.0,0.0,0.0,0.0,0.0,0.0,0.0,0.0,0.0,0.0,0.0,0.0,0.0,0.0,-4.3497,-4.3497,-4.3497,-4.3497,-4.3497,-4.3497,-4.3497,-4.3497,-4.3497,-4.3497,-4.3497,-4.3497,-4.3497,-4.3497,-4.3497,-4.3497,-4.3497,-4.3497,-4.3497,-4.3497,-4.3497,-4.3497,-4.3497,-4.3497,-4.3497,-4.3497,-4.3497,-4.3497,-4.3497,-4.3497,-4.3497,-4.3497,-4.3497,-4.3497,-4.3497,-4.3497,-4.3497,-4.3497,-4.3497,-4.3497,-4.3497,-4.3497,-4.3497,-4.3497,-4.3497,-4.3497,-4.3497,-4.3497,-4.3497,-4.3497,-4.3497,-4.3497,-4.3497,-4.3497,-4.3497,-4.3497,-4.3597,-4.3836,-4.429,-4.4707,-4.4919,-4.5243,-4.5495,-4.5586,-4.5586,-4.5586,-4.5586,-4.5586,-4.5586,-4.5586,-4.5586,-4.5586,-4.5586,-4.5586,-4.5586,-4.5586,-4.5586,-4.5586,-4.5586,-4.5586,-4.5586,-3.8627,0.0,0.0,0.0,0.0,0.0,0.0,0.0,0.0,0.0,0.0,0.0,0.0,0.0,0.0,0.0,0.0,0.0,0.0,0.0,0.0,0.0,0.0,0.0,0.0,0.0,0.0,0.0,0.0,0.0,0.0,-4.3497,-4.3497,-4.3497,-4.3497,-4.3497,-4.3497,-4.3497,-4.3497,-4.3497,-4.3497,-4.3497,-4.3497,-4.3497,-4.3497,-4.3497,-4.3497,-4.3497,-4.3497,-4.3497,-4.3497,-4.3497,-4.3497,-4.3497,-4.3497,-4.3497,-4.3497,-4.3497,-4.3497,-4.3497,-4.3497,-4.3497,-4.3497,-4.3497,-4.3497,-4.3497,-4.3497,-4.3497,-4.3497,-4.3497,-4.3497,-4.3497,-4.3497,-4.3497,-4.3497,-4.3497,-4.3497,-4.3497,-4.3497,-4.3497,-4.3497,-4.3497,-4.3497,-4.3497,-4.3497,-4.3497,-4.3612,-4.3772,-4.3986,-4.4638,-4.5096,-4.5096,-4.54,-4.5586,-4.5586,-4.5586,-4.5586,-4.5586,-4.5586,-4.5586,-4.5586,-4.5586,-4.5586,-4.5586,-4.5586,-4.5586,-4.5586,-4.5586,-4.5586,-4.5586,-4.5586,-4.5413,0.0,0.0,0.0,0.0,0.0,0.0,0.0,0.0,0.0,0.0,0.0,0.0,0.0,0.0,0.0,0.0,0.0,0.0,0.0,0.0,0.0,0.0,0.0,0.0,0.0,0.0,0.0,0.0,0.0,0.0,0.0,-4.3497,-4.3497,-4.3497,-4.3497,-4.3497,-4.3497,-4.3497,-4.3497,-4.3497,-4.3497,-4.3497,-4.3497,-4.3497,-4.3497,-4.3497,-4.3497,-4.3497,-4.3497,-4.3497,-4.3497,-4.3497,-4.3497,-4.3497,-4.3497,-4.3497,-4.3497,-4.3497,-4.3497,-4.3497,-4.3497,-4.3497,-4.3497,-4.3497,-4.3497,-4.3497,-4.3497,-4.3497,-4.3497,-4.3497,-4.3497,-4.3497,-4.3497,-4.3497,-4.3497,-4.3497,-4.3497,-4.3497,-4.3497,-4.3497,-4.3497,-4.3497,-4.3497,-4.3497,-4.3497,-4.3497,-4.3804,-4.4058,-4.4058,-4.4688,-4.5159,-4.5159,-4.5419,-4.5586,-4.5586,-4.5586,-4.5586,-4.5586,-4.5586,-4.5586,-4.5586,-4.5586,-4.5586,-4.5586,-4.5586,-4.5586,-4.5586,-4.5586,-4.5586,-4.5586,-4.5509,-4.5047,0.0,0.0,0.0,0.0,0.0,0.0,0.0,0.0,0.0,0.0,0.0,0.0,0.0,0.0,0.0,0.0,0.0,0.0,0.0,0.0,0.0,0.0,0.0,0.0,0.0,0.0,0.0,0.0,0.0,0.0,-4.3497,-4.3497,-4.3497,-4.3497,-4.3497,-4.3497,-4.3497,-4.3497,-4.3497,0.0,-4.3497,-4.3497,-4.3497,-4.3497,-4.3497,-4.3497,-4.3497,-4.3497,-4.3497,-4.3497,-4.3497,-4.3497,-4.3497,-4.3497,-4.3497,-4.3497,-4.3497,-4.3497,-4.3497,-4.3497,-4.3497,-4.3497,-4.3497,-4.3497,-4.3497,-4.3497,-4.3497,-4.3497,-4.3497,-4.3497,-4.3497,-4.3497,-4.3497,-4.3497,-4.3497,-4.3497,-4.3497,-4.3497,-4.3497,-4.3497,-4.3497,-4.3497,-4.3497,-4.3497,-4.3497,-4.3497,-4.4065,-4.4474,-4.4474,-4.5055,-4.5495,-4.5495,-4.5568,-4.5586,-4.5586,-4.5586,-4.5586,-4.5586,-4.5586,-4.5586,-4.5586,-4.5586,-4.5586,-4.5586,-4.5586,-4.5586,-4.5586,-4.5586,-4.5586,-4.5566,-4.4893,-4.447,0.0,0.0,0.0,0.0,0.0,0.0,0.0,0.0,0.0,0.0,0.0,0.0,0.0,0.0,0.0,0.0,0.0,0.0,0.0,0.0,0.0,0.0,0.0,0.0,0.0,0.0,0.0,0.0,0.0,-4.3497,-4.3497,-4.3497,-4.3497,-4.3497,-4.3497,-4.3497,-4.3497,-4.3497,-4.3497,-4.3497,-4.3497,-4.3497,-4.3497,-4.3497,-4.3497,-4.3497,-4.3497,-4.3497,-4.3497,-4.3497,-4.3497,-4.3497,-4.3497,-4.3497,-4.3497,-4.3497,-4.3497,-4.3497,-4.3497,-4.3497,-4.3497,-4.3497,-4.3497,-4.3497,-4.3497,-4.3497,-4.3497,-4.3497,-4.3497,-4.3497,-4.3497,-4.3497,-4.3497,-4.3497,-4.3497,-4.3497,-4.3497,-4.3497,-4.3497,-4.3497,-4.3497,-4.3548,-4.3693,-4.3758,-4.3758,-4.3758,-4.4223,-4.4657,-4.4825,-4.5283,-4.5586,-4.5586,-4.5586,-4.5586,-4.5586,-4.5586,-4.5586,-4.5586,-4.5586,-4.5586,-4.5586,-4.5586,-4.5586,-4.5586,-4.5586,-4.5586,-4.5586,-4.5182,-4.497,-4.4951,-4.4124,-4.3508,0.0,0.0,0.0,0.0,0.0,0.0,0.0,0.0,0.0,0.0,0.0,0.0,0.0,0.0,0.0,0.0,0.0,0.0,0.0,0.0,0.0,0.0,0.0,0.0,0.0,0.0,0.0,0.0,0.0,-4.3497,-4.3497,-4.3497,-4.3497,-4.3497,-4.3497,-4.3497,-4.3497,-4.3497,-4.3497,-4.3497,-4.3497,-4.3497,-4.3497,-4.3497,-4.3497,-4.3497,-4.3497,-4.3497,-4.3497,-4.3497,-4.3497,-4.3497,-4.3497,-4.3497,-4.3497,-4.3497,-4.3497,-4.3497,-4.3497,-4.3497,-4.3497,-4.3497,-4.3497,-4.3497,-4.3497,-4.3497,-4.3497,-4.3497,-4.3497,-4.3497,-4.3497,-4.3497,-4.3497,-4.3497,-4.3497,-4.3497,-4.3497,-4.3497,-4.3497,-4.3497,-4.3548,-4.366,-4.3955,-4.4076,-4.4087,-4.4087,-4.4447,-4.48,-4.5074,-4.54,-4.5586,-4.5586,-4.555,-4.5513,-4.5513,-4.5457,-4.5438,-4.5513,-4.5513,-4.555,-4.5586,-4.5451,-4.5374,-4.5374,-4.5374,-4.5374,-4.5355,-4.4509,-4.4085,-4.4066,-4.3258,-4.2489,0.0,0.0,0.0,0.0,0.0,0.0,0.0,0.0,0.0,0.0,0.0,0.0,0.0,0.0,0.0,0.0,0.0,0.0,0.0,0.0,0.0,0.0,0.0,0.0,0.0,0.0,0.0,0.0,-4.3497,-4.3497,-4.3497,-4.3497,-4.3497,-4.3497,-4.3497,-4.3497,-4.3497,-4.3497,-4.3497,-4.3497,-4.3497,-4.3497,-4.3497,-4.3497,-4.3497,-4.3497,-4.3497,-4.3497,-4.3497,-4.3497,-4.3497,-4.3497,-4.3497,-4.3497,-4.3497,-4.3497,-4.3497,-4.3497,-4.3497,-4.3497,-4.3497,-4.3497,-4.3497,-4.3497,-4.3497,-4.3497,-4.3497,-4.3497,-4.3497,-4.3497,-4.3497,-4.3497,-4.3497,-4.3497,-4.3497,-4.3497,-4.3497,-4.3497,-4.3497,-4.3497,-4.3726,-4.3955,-4.3986,-4.429,-4.4527,-4.4527,-4.4806,-4.5052,-4.5096,-4.54,-4.5586,-4.5586,-4.5342,-4.518,-4.518,-4.4896,-4.4872,-4.5159,-4.518,-4.5302,-4.5586,-4.4874,-4.447,-4.447,-4.447,-4.447,-4.447,-4.3662,-4.3258,-4.3239,-4.2374,-4.1912,0.0,0.0,0.0,0.0,0.0,0.0,0.0,0.0,0.0,0.0,0.0,0.0,0.0,0.0,0.0,0.0,0.0,0.0,0.0,0.0,0.0,0.0,0.0,0.0,0.0,0.0,0.0,0.0,-4.3497,-4.3497,-4.3497,-4.3497,-4.3497,-4.3497,-4.3497,-4.3497,-4.3497,-4.3497,-4.3497,-4.3497,-4.3497,-4.3497,-4.3497,-4.3497,-4.3497,-4.3497,-4.3497,-4.3497,-4.3497,-4.3497,-4.3497,-4.3497,-4.3497,-4.3497,-4.3497,-4.3497,-4.3497,-4.3497,-4.3497,-4.3497,-4.3497,-4.3497,-4.3497,-4.3497,-4.3497,-4.3497,-4.3497,-4.3497,-4.3497,-4.3497,-4.3497,-4.3497,-4.3497,-4.3497,-4.3497,-4.3497,-4.3497,-4.3497,-4.3548,-4.374,-4.4076,-4.4337,-4.4337,-4.4657,-4.4872,-4.4872,-4.4849,-4.4896,-4.5074,-4.5055,-4.5033,-4.5033,-4.4919,-4.4825,-4.4825,-4.4872,-4.4943,-4.5096,-4.4823,-4.4728,-4.4874,-4.4066,-4.3624,-4.3624,-4.3624,-4.3624,-4.3624,-4.2777,-4.2374,-4.2354,-4.1489,-4.1066,0.0,0.0,0.0,0.0,0.0,0.0,0.0,0.0,0.0,0.0,0.0,0.0,0.0,0.0,0.0,0.0,0.0,0.0,0.0,0.0,0.0,0.0,0.0,0.0,0.0,0.0,0.0,0.0,-4.3497,-4.3497,-4.3497,-4.3497,-4.3497,-4.3497,-4.3497,-4.3497,-4.3497,-4.3497,-4.3497,-4.3497,-4.3497,-4.3497,-4.3497,-4.3497,-4.3497,-4.3497,-4.3497,-4.3497,-4.3497,-4.3497,-4.3497,-4.3497,-4.3497,-4.3497,-4.3497,-4.3497,-4.3497,-4.3497,-4.3497,-4.3497,-4.3497,-4.3497,-4.3497,-4.3497,-4.3497,-4.3497,-4.3497,-4.3497,-4.3497,-4.3497,-4.3497,-4.3497,-4.3497,-4.3497,-4.3497,-4.3497,-4.3497,-4.3497,-4.3563,-4.3818,-4.4175,-4.4447,-4.4447,-4.4732,-4.4966,-4.4966,-4.4757,-4.4682,-4.4943,-4.4757,-4.458,-4.458,-4.4339,-4.4154,-4.4154,-4.4121,-4.4156,-4.4338,-4.3959,-4.3827,-4.3989,-4.3201,-4.2777,-4.2777,-4.2547,-4.2547,-4.2777,-4.1893,-4.147,-4.145,-4.0796,-4.0489,0.0,0.0,0.0,0.0,0.0,0.0,0.0,0.0,0.0,0.0,0.0,0.0,0.0,0.0,0.0,0.0,0.0,0.0,0.0,0.0,0.0,0.0,0.0,0.0,0.0,0.0,0.0,0.0,-4.3497,-4.3497,-4.3497,-4.3497,-4.3497,-4.3497,-4.3497,-4.3497,-4.3497,-4.3497,-4.3497,-4.3497,-4.3497,-4.3497,-4.3497,-4.3497,-4.3497,-4.3497,-4.3497,-4.3497,-4.3497,-4.3497,-4.3497,-4.3497,-4.3497,-4.3497,-4.3497,-4.3497,-4.3497,-4.3497,-4.3497,-4.3497,-4.3497,-4.3497,-4.3497,-4.3497,-4.3497,-4.3497,-4.3497,-4.3497,-4.3497,-4.3497,-4.3497,-4.3497,-4.3497,-4.3497,-4.3497,-4.3497,-4.3497,-4.3497,-4.3532,-4.3513,-4.3804,-4.4028,-4.4028,-4.4346,-4.465,-4.465,-4.4606,-4.4624,-4.4606,-4.4606,-4.458,-4.458,-4.3596,-4.2883,-4.2883,-4.1909,-4.1586,-4.2215,-4.2233,-4.2487,-4.3145,-4.2335,-4.1873,-4.1873,-4.1066,-4.1046,-4.1873,-4.0989,-4.0566,-4.0566,-4.0508,-4.0489,0.0,0.0,0.0,0.0,0.0,0.0,0.0,0.0,0.0,0.0,0.0,0.0,0.0,0.0,0.0,0.0,0.0,0.0,0.0,0.0,0.0,0.0,0.0,0.0,0.0,0.0,0.0,0.0,0.0,-4.3497,-4.3497,-4.3497,-4.3497,-4.3497,-4.3497,-4.3497,-4.3497,-4.3497,-4.3497,-4.3497,-4.3497,-4.3497,-4.3497,-4.3497,-4.3497,-4.3497,-4.3497,-4.3497,-4.3497,-4.3497,-4.3497,-4.3497,-4.3497,-4.3497,-4.3497,-4.3497,-4.3497,-4.3497,-4.3497,-4.3497,-4.3497,-4.3497,-4.3149,-4.2727,-4.2727,-4.2378,-4.1974,-4.1974,-4.1974,-4.1974,-4.1974,-4.1974,-4.1974,-4.1974,-4.1974,-4.1974,-4.1974,-4.2763,-4.3416,-4.3119,-4.3144,-4.3117,-4.2825,-4.2907,-4.3001,-4.3001,-4.2803,-4.266,-4.266,-4.247,-4.2359,-4.2359,-4.1964,-4.1704,-4.1704,-4.1723,-4.1825,-4.2084,-4.1982,-4.2028,-4.2261,-4.1431,-4.0969,-4.0969,-4.0662,-4.0642,-4.095,-4.0642,-4.0489,-4.0489,-4.0489,-4.0489,0.0,0.0,0.0,0.0,0.0,0.0,0.0,0.0,0.0,0.0,0.0,0.0,0.0,0.0,0.0,0.0,0.0,0.0,0.0,0.0,0.0,0.0,0.0,0.0,0.0,0.0,0.0,0.0,0.0,0.0,-4.3497,-4.3497,-4.3497,-4.3497,-4.3497,-4.3497,-4.3497,-4.3497,-4.3497,-4.3497,-4.3497,-4.3497,-4.3497,-4.3497,-4.3497,-4.3461,-4.3204,-4.324,-4.3497,-4.3497,-4.3497,-4.3497,-4.3497,-4.3314,-4.3094,-4.3094,-4.2928,-4.269,-4.269,-4.269,-4.269,-4.269,-4.2323,-4.1901,-4.1901,-4.1534,-4.1111,-4.1111,-4.1111,-4.1111,-4.1111,-4.1111,-4.1111,-4.1111,-4.1111,-4.1111,-4.1111,-4.1937,-4.2607,-4.2286,-4.2236,-4.214,-4.1819,-4.178,-4.178,-4.178,-4.1576,-4.1438,-4.1438,-4.1248,-4.1111,-4.1111,-4.0873,-4.0708,-4.0708,-4.0847,-4.1001,-4.1086,-4.1064,-4.111,-4.1219,-4.0765,-4.0489,-4.0489,-4.0489,-4.0489,-4.0489,-4.0489,-4.0489,-4.0489,-4.0489,-4.0489,0.0,0.0,0.0,0.0,0.0,0.0,0.0,0.0,0.0,0.0,0.0,0.0,0.0,0.0,0.0,0.0,0.0,0.0,0.0,0.0,0.0,0.0,0.0,0.0,0.0,0.0,0.0,0.0,-4.3497,-4.3497,-4.3497,-4.3497,-4.3497,-4.3497,-4.3497,-4.3497,-4.3497,-4.3497,-4.3497,-4.3497,-4.3461,-4.3442,-4.3442,-4.3424,-4.3424,-4.3387,-4.2598,-4.2708,-4.3424,-4.3424,-4.3424,-4.3424,-4.3424,-4.2947,-4.2268,-4.2268,-4.1772,-4.1111,-4.1111,-4.1111,-4.1111,-4.1111,-4.1093,-4.1075,-4.1075,-4.1056,-4.1038,-4.1038,-4.1038,-4.1038,-4.1038,-4.1038,-4.1038,-4.1038,-4.1038,-4.1038,-4.1038,-4.1038,-4.1056,-4.1075,-4.1075,-4.1075,-4.1038,-4.1038,-4.1038,-4.1038,-4.1038,-4.1038,-4.1038,-4.1038,-4.1038,-4.1038,-4.0322,-3.9845,-3.9845,-3.9148,-3.8815,-3.9072,-3.9414,-3.9775,-4.0081,-4.0356,-4.0489,-4.0489,-4.0489,-4.0489,-4.0489,-4.0489,-4.0489,-4.0489,-4.0489,-4.0489,-3.5622,0.0,0.0,0.0,0.0,0.0,0.0,0.0,0.0,0.0,0.0,0.0,0.0,0.0,0.0,0.0,0.0,0.0,0.0,0.0,0.0,0.0,0.0,0.0,0.0,0.0,0.0,0.0,-4.3497,-4.3497,-4.3497,-4.3497,-4.3497,-4.3497,-4.3497,-4.3497,-4.3497,-4.3497,-4.3497,-4.3479,-4.291,-4.2635,-4.2598,-4.2029,-4.1772,-4.1754,-4.1534,-4.157,-4.1772,-4.1772,-4.1772,-4.1772,-4.1772,-4.1644,-4.1442,-4.1442,-4.1295,-4.1111,-4.1111,-4.1111,-4.1111,-4.1111,-4.0726,-4.023,-4.023,-3.9827,-3.9368,-3.9368,-3.9368,-3.9368,-3.9368,-3.9368,-3.9368,-3.9368,-3.9368,-3.9368,-3.9368,-3.9368,-3.9551,-4.012,-4.023,-4.0047,-3.946,-3.9368,-3.9368,-3.9368,-3.9368,-3.9368,-3.9368,-3.9368,-3.9368,-3.9368,-3.9166,-3.9038,-3.9038,-3.9013,-3.9008,-3.9099,-3.9645,-4.0002,-4.0101,-4.0356,-4.0489,-4.0489,-4.0489,-4.0489,-4.0489,-4.0489,-4.0489,-4.0489,-4.0489,-4.0489,0.0,0.0,0.0,0.0,0.0,0.0,-3.5622,-3.5622,0.0,0.0,0.0,0.0,0.0,0.0,0.0,0.0,0.0,0.0,0.0,0.0,0.0,0.0,0.0,0.0,0.0,-4.2342,-4.2462,-4.2772,-4.281,-4.2903,-4.3124,-4.3178,-4.3104,-4.3002,-4.3002,-4.2837,-4.2506,-4.2506,-4.2506,-4.2488,-4.2029,-4.1809,-4.1791,-4.1313,-4.1111,-4.1093,-4.0763,-4.0598,-4.0579,-4.0249,-4.0506,-4.1111,-4.1111,-4.0891,-4.0598,-4.0598,-4.0396,-4.0102,-4.0102,-4.0102,-4.0102,-4.0102,-3.979,-3.9405,-3.9405,-3.9074,-3.8707,-3.8707,-3.8707,-3.8707,-3.8707,-3.8707,-3.8707,-3.8707,-3.8707,-3.8707,-3.8707,-3.8707,-3.8836,-3.9313,-3.9405,-3.9239,-3.8781,-3.8707,-3.8707,-3.8707,-3.8707,-3.8707,-3.8707,-3.8707,-3.8707,-3.8707,-3.8707,-3.8707,-3.8707,-3.8844,-3.8971,-3.9099,-3.9599,-3.9943,-4.0101,-4.0356,-4.0489,-4.0489,-4.0489,-4.0438,-4.0339,-4.0457,-4.0441,-4.0339,-4.0457,-4.0441,0.0,0.0,0.0,0.0,0.0,0.0,-3.5622,-3.5622,-3.5622,0.0,0.0,0.0,0.0,0.0,0.0,0.0,0.0,0.0,0.0,0.0,0.0,0.0,0.0,0.0,-4.146,-4.146,-4.1503,-4.1545,-4.1545,-4.1813,-4.2384,-4.2441,-4.2341,-4.2194,-4.2176,-4.1827,-4.113,-4.1111,-4.1111,-4.1111,-4.102,-4.0983,-4.0965,-4.0873,-4.0836,-4.0799,-4.0084,-3.9772,-3.9698,-3.9001,-3.9551,-4.0836,-4.0836,-4.0414,-3.9772,-3.9772,-3.9313,-3.8707,-3.8707,-3.8707,-3.8707,-3.8707,-3.8707,-3.8707,-3.8707,-3.8707,-3.8707,-3.8707,-3.8707,-3.8707,-3.8707,-3.8707,-3.8707,-3.8707,-3.8707,-3.8707,-3.8707,-3.8707,-3.8707,-3.8707,-3.8707,-3.8707,-3.8707,-3.8707,-3.8707,-3.8707,-3.8707,-3.8707,-3.8707,-3.8707,-3.8707,-3.8707,-3.8707,-3.8707,-3.8707,-3.8707,-3.8803,-3.9036,-3.9364,-3.969,-4.0022,-4.0302,-4.0473,-4.0489,-4.0473,-4.0339,-4.0101,-4.0302,-4.0285,-4.0042,-4.0339,-4.0339,0.0,0.0,0.0,0.0,0.0,0.0,-3.5622,-3.5622,-3.5622,0.0,0.0,0.0,0.0,0.0,0.0,0.0,0.0,0.0,0.0,0.0,0.0,0.0,0.0,0.0,-3.926,-3.9286,-3.9518,-3.9992,-4.0033,-4.0271,-4.0744,-4.0781,-4.0961,-4.1317,-4.135,-4.1277,-4.1111,-4.1111,-4.1111,-4.1111,-4.0451,-4.012,-4.0102,-3.946,-3.9184,-3.9166,-3.9001,-3.8927,-3.8927,-3.8762,-3.8891,-3.9184,-3.9184,-3.9074,-3.8927,-3.8927,-3.8836,-3.8707,-3.8707,-3.8707,-3.8707,-3.8707,-3.8707,-3.8707,-3.8707,-3.8707,-3.8707,-3.8707,-3.8707,-3.8707,-3.8707,-3.8707,-3.8707,-3.8707,-3.8707,-3.8707,-3.8707,-3.8707,-3.8707,-3.8707,-3.8707,-3.8707,-3.8707,-3.8707,-3.8707,-3.8707,-3.8707,-3.8707,-3.8707,-3.8707,-3.8707,-3.8707,-3.8707,-3.8707,-3.8707,-3.8707,-3.8719,-3.8773,-3.9054,-3.9339,-3.9668,-4.0022,-4.0286,-4.0489,-4.0304,-4.0158,-4.0101,-3.9882,-3.9757,-3.9709,-4.0042,-4.0139,0.0,0.0,0.0,-3.5622,0.0,0.0,0.0,-3.5622,-3.5622,-3.5622,0.0,0.0,0.0,0.0,0.0,0.0,0.0,0.0,0.0,0.0,0.0,0.0,0.0,0.0,-3.8271,-3.8317,-3.8508,-3.9063,-3.9105,-3.9434,-4.0221,-4.0257,-4.0327,-4.0524,-4.0506,-4.0322,-3.9918,-3.99,-3.99,-3.99,-3.9496,-3.9294,-3.9294,-3.8891,-3.8707,-3.8707,-3.8707,-3.8707,-3.8707,-3.8707,-3.8707,-3.8707,-3.8707,-3.8707,-3.8707,-3.8707,-3.8707,-3.8707,-3.8707,-3.8707,-3.8707,-3.8707,-3.8707,-3.8707,-3.8707,-3.8707,-3.8707,-3.8707,-3.8707,-3.8707,-3.8707,-3.8707,-3.8707,-3.8707,-3.8707,-3.8707,-3.8707,-3.8707,-3.8707,-3.8707,-3.8707,-3.8707,-3.8707,-3.8707,-3.8707,-3.8707,-3.8707,-3.8707,-3.8707,-3.8707,-3.8707,-3.8707,-3.8707,-3.8707,-3.8707,-3.8707,-3.8762,-3.8894,-3.9036,-3.9238,-3.9599,-3.9922,-4.0158,-4.0304,-3.9821,-3.9599,-3.9599,-3.9301,-3.9216,-3.9364,-3.988,-4.0002,0.0,0.0,0.0,0.0,0.0,-3.5622,0.0,0.0,0.0,-3.5622,0.0,0.0,0.0,0.0,0.0,0.0,0.0,0.0,0.0,0.0,0.0,0.0,0.0,0.0,0.0,-3.7466,-3.7602,-3.8016,-3.7998,-3.8482,-3.9569,-3.9606,-3.9642,-3.968,-3.9662,-3.935,-3.8707,-3.8707,-3.8707,-3.8707,-3.8707,-3.8707,-3.8707,-3.8707,-3.8707,-3.8707,-3.8707,-3.8707,-3.8707,-3.8707,-3.8707,-3.8707,-3.8707,-3.8707,-3.8707,-3.8707,-3.8707,-3.8707,-3.8707,-3.8707,-3.8707,-3.8707,-3.8707,-3.8707,-3.8707,-3.8707,-3.8707,-3.8707,-3.8707,-3.8707,-3.8707,-3.8707,-3.8707,-3.8707,-3.8707,-3.8707,-3.8707,-3.8707,-3.8707,-3.8707,-3.8707,-3.8707,-3.8707,-3.8707,-3.8707,-3.8707,-3.8707,-3.8707,-3.8707,-3.8707,-3.8707,-3.8707,-3.8707,-3.8707,-3.8707,-3.8707,-3.8803,-3.9027,-3.9008,-3.9152,-3.9505,-3.9838,-4.0002,-4.0002,-3.9414,-3.9099,-3.9099,-3.8844,-3.8833,-3.9036,-3.9709,-3.9859,0.0,0.0,0.0,0.0,-3.5622,0.0,0.0,0.0,-3.5622,-3.5622,0.0,0.0,0.0,0.0,0.0,0.0,0.0,0.0,0.0,0.0,0.0,0.0,0.0,0.0,0.0,-3.5876,-3.5876,-3.5949,-3.5949,-3.6423,-3.7476,-3.7552,-3.7936,-3.8805,-3.8836,-3.8799,-3.8707,-3.8707,-3.8707,-3.8707,-3.8707,-3.8707,-3.8707,-3.8707,-3.8707,-3.8707,-3.8707,-3.8707,-3.8707,-3.8707,-3.8707,-3.8707,-3.8707,-3.8707,-3.8707,-3.8707,-3.8707,-3.8707,-3.8707,-3.8707,-3.8707,-3.8707,-3.8707,-3.8707,-3.8707,-3.8707,-3.8707,-3.8707,-3.8707,-3.8707,-3.8707,-3.8707,-3.8707,-3.8707,-3.8707,-3.8707,-3.8707,-3.8707,-3.8707,-3.8707,-3.8707,-3.8707,-3.8707,-3.8707,-3.8707,-3.8707,-3.8707,-3.8707,-3.8707,-3.8707,-3.8707,-3.8707,-3.8707,-3.8707,-3.8707,-3.8707,-3.8719,-3.8732,-3.875,-3.8855,-3.9152,-3.9481,-3.9645,-3.9645,-3.9289,-3.9099,-3.9099,-3.8844,-3.8738,-3.8762,-3.9377,-3.9645,0.0,0.0,0.0,0.0,0.0,0.0,-3.5622,0.0,-3.5622,0.0,0.0,0.0,0.0,0.0,0.0,0.0,-3.5419,0.0,0.0,0.0,0.0,0.0,0.0,0.0,0.0,0.0,0.0,0.0,-3.6054,-3.6416,-3.7135,-3.747,-3.7808,-3.8216,-3.8546,-3.8707,-3.8707,-3.8707,-3.8707,-3.8707,-3.8707,-3.8707,-3.8707,-3.8707,-3.8707,-3.8707,-3.8707,-3.8707,-3.8707,-3.8707,-3.8707,-3.8707,-3.8707,-3.8707,-3.8707,-3.8707,-3.8707,-3.8707,-3.8707,-3.8707,-3.8707,-3.8707,-3.8707,-3.8707,-3.8707,-3.8707,-3.8707,-3.8707,-3.8707,-3.8707,-3.8707,-3.8707,-3.8707,-3.8707,-3.8707,-3.8707,-3.8707,-3.8707,-3.8707,-3.8707,-3.8707,-3.8707,-3.8707,-3.8707,-3.8707,-3.8707,-3.8707,-3.8707,-3.8707,-3.8707,-3.8707,-3.8707,-3.8707,-3.8707,-3.8707,-3.8707,-3.8707,-3.8707,-3.8707,-3.8815,-3.9099,-3.9082,-3.9136,-3.9289,-3.9017,-3.8855,-3.8855,-3.8762,-3.8707,-3.8707,-3.9136,-3.9414,-3.5622,0.0,0.0,0.0,0.0,0.0,0.0,0.0,0.0,0.0,0.0,0.0,0.0,0.0,0.0,0.0,0.0,0.0,0.0,0.0,0.0,0.0,0.0,0.0,0.0,0.0,0.0,-3.6139,-3.6182,-3.6416,-3.696,-3.7305,-3.7578,-3.7685,-3.8201,-3.8465,-3.8465,-3.8627,-3.8707,-3.8707,-3.8707,-3.8707,-3.8707,-3.8707,-3.8707,-3.8707,-3.8707,-3.8707,-3.8707,-3.8707,-3.8707,-3.8707,-3.8707,-3.8707,-3.8707,-3.8707,-3.8707,-3.8707,-3.8707,-3.8707,-3.8707,-3.8707,-3.8707,-3.8707,-3.8707,-3.8707,-3.8707,-3.8707,-3.8707,-3.8707,-3.8707,-3.8707,-3.8707,-3.8707,-3.8707,-3.8707,-3.8707,-3.8707,-3.8707,-3.8707,-3.8707,-3.8707,-3.8707,-3.8707,-3.8707,-3.8707,-3.8707,-3.8707,-3.8707,-3.8707,-3.8707,-3.8707,-3.8707,-3.8707,-3.8707,-3.8707,-3.8707,-3.8707,-3.8707,-3.8773,-3.8971,-3.8803,-3.8773,-3.8971,-3.8803,-3.8707,-3.8707,-3.8707,-3.8707,-3.8707,-3.9082,-3.9364,0.0,0.0,0.0,-3.5622,0.0,0.0,0.0,0.0,-3.5622,0.0,0.0,0.0,0.0,0.0,0.0,0.0,0.0,0.0,0.0,0.0,0.0,0.0,0.0,0.0,0.0,0.0,0.0,-3.5605,-3.5622,-3.5854,-3.6374,-3.6457,-3.6684,-3.7228,-3.7685,-3.7946,-3.7946,-3.8433,-3.8707,-3.8707,-3.8707,-3.8707,-3.8707,-3.8707,-3.8707,-3.8707,-3.8707,-3.8707,-3.8707,-3.8707,-3.8707,-3.8707,-3.8707,-3.8707,-3.8707,-3.8707,-3.8707,-3.8707,-3.8707,-3.8707,-3.8707,-3.8707,-3.8707,-3.8707,-3.8707,-3.8707,-3.8707,-3.8707,-3.8707,-3.8707,-3.8707,-3.8707,-3.8707,-3.8707,-3.8707,-3.8707,-3.8707,-3.8707,-3.8707,-3.8707,-3.8707,-3.8707,-3.8707,-3.8707,-3.8707,-3.8707,-3.8707,-3.8707,-3.8707,-3.8707,-3.8707,-3.8707,-3.8707,-3.8707,-3.8707,-3.8707,-3.8707,-3.8707,-3.8707,-3.8707,-3.8719,-3.8707,-3.8707,-3.8719,-3.8707,-3.8707,-3.8707,-3.8707,-3.8707,-3.8719,-3.9301,-3.9599,0.0,0.0,-3.5622,-3.5622,0.0,0.0,0.0,0.0,0.0,0.0,0.0,0.0,0.0,0.0,0.0,0.0,0.0,0.0,0.0,0.0,0.0,0.0,0.0,0.0,0.0,0.0,0.0,-3.5622,-3.5622,-3.5694,-3.5854,-3.6224,-3.6498,-3.6643,-3.7452,-3.7893,-3.7893,-3.8433,-3.8707,-3.8707,-3.8707,-3.8707,-3.8707,-3.8707,-3.8707,-3.8707,-3.8707,-3.8707,-3.8707,-3.8707,-3.8707,-3.8707,-3.8707,-3.8707,-3.8707,-3.8707,-3.8707,-3.8707,-3.8707,-3.8707,-3.8707,-3.8707,-3.8707,-3.8707,-3.8707,-3.8707,-3.8707,-3.8707,-3.8707,-3.8707,-3.8707,-3.8707,-3.8707,-3.8707,-3.8707,-3.8707,-3.8707,-3.8707,-3.8707,-3.8707,-3.8707,-3.8707,-3.8707,-3.8707,-3.8707,-3.8707,-3.8707,-3.8707,-3.8707,-3.8707,-3.8707,-3.8707,-3.8707,-3.8707,-3.8707,-3.8707,-3.8707,-3.8707,-3.8707,-3.8707,-3.8707,-3.8707,-3.8707,-3.8707,-3.8707,-3.8707,-3.8707,-3.8707,-3.8707,-3.8707,-3.9082,-3.9264,-3.569,-3.5622,0.0,-3.5622,-3.5622,0.0,-3.5622,0.0,-3.5622,0.0,0.0,0.0,0.0,0.0,0.0,0.0,0.0,0.0,0.0,-3.5622,0.0,0.0,0.0,0.0,0.0,0.0,-3.5622,-3.5622,-3.5622,-3.5622,0.0,0.0,-3.6097,-3.6097,-3.7117,-3.7649,-3.7649,-3.835,-3.8707,-3.8707,-3.8707,-3.8707,-3.8707,-3.8707,-3.8707,-3.8707,-3.8707,-3.8707,-3.8707,-3.8707,-3.8707,-3.8707,-3.8707,-3.8707,-3.8707,-3.8707,-3.8707,-3.8707,-3.8707,-3.8707,-3.8707,-3.8707,-3.8707,-3.8707,-3.8707,-3.8707,-3.8707,-3.8707,-3.8707,-3.8707,-3.8707,-3.8707,-3.8707,-3.8707,-3.8707,-3.8707,-3.8707,-3.8707,-3.8707,-3.8707,-3.8707,-3.8707,-3.8707,-3.8707,-3.8707,-3.8707,-3.8707,-3.8707,-3.8707,-3.8707,-3.8707,-3.8707,-3.8707,-3.8707,-3.8707,-3.8707,-3.8707,-3.8707,-3.8707,-3.8707,-3.8707,-3.8707,-3.8707,-3.8707,-3.8707,-3.8707,-3.8707,-3.8707,-3.8707,-3.8707,-3.8884,-3.8961]}]]